<?xml version="1.0" encoding="UTF-8" standalone="no" ?>
<gpx xmlns="http://www.topografix.com/GPX/1/1" xmlns:xsi="http://www.w3.org/2001/XMLSchema-instance" xsi:schemaLocation="http://www.topografix.com/GPX/1/1 http://www.topografix.com/GPX/1/1/gpx.xsd" version="1.1" creator="VisuGPX - https://www.visugpx.com">
  <metadata>
    <name>Regordane</name>
    <desc><![CDATA[Geonaute keymaze 500]]></desc>
  </metadata>
  <trk>
    <name><![CDATA[Regordane_1]]></name>
    <trkseg>
      <trkpt lat="45.04308" lon="3.88251">
        <ele>646</ele>
        <time>2011-05-30T06:32:11Z</time>
      </trkpt>
      <trkpt lat="45.0428" lon="3.88242">
        <ele>654</ele>
        <time>2011-05-30T06:33:22Z</time>
      </trkpt>
      <trkpt lat="45.04272" lon="3.88243">
        <ele>654</ele>
        <time>2011-05-30T06:33:32Z</time>
      </trkpt>
      <trkpt lat="45.04259" lon="3.88239">
        <ele>654</ele>
        <time>2011-05-30T06:33:42Z</time>
      </trkpt>
      <trkpt lat="45.04248" lon="3.88238">
        <ele>651</ele>
        <time>2011-05-30T06:33:53Z</time>
      </trkpt>
      <trkpt lat="45.04234" lon="3.88234">
        <ele>647</ele>
        <time>2011-05-30T06:34:03Z</time>
      </trkpt>
      <trkpt lat="45.04219" lon="3.8823">
        <ele>647</ele>
        <time>2011-05-30T06:34:13Z</time>
      </trkpt>
      <trkpt lat="45.04209" lon="3.88226">
        <ele>647</ele>
        <time>2011-05-30T06:34:24Z</time>
      </trkpt>
      <trkpt lat="45.042" lon="3.88229">
        <ele>644</ele>
        <time>2011-05-30T06:34:35Z</time>
      </trkpt>
      <trkpt lat="45.04191" lon="3.88231">
        <ele>644</ele>
        <time>2011-05-30T06:34:45Z</time>
      </trkpt>
      <trkpt lat="45.04172" lon="3.88228">
        <ele>653</ele>
        <time>2011-05-30T06:34:56Z</time>
      </trkpt>
      <trkpt lat="45.04159" lon="3.88225">
        <ele>654</ele>
        <time>2011-05-30T06:35:06Z</time>
      </trkpt>
      <trkpt lat="45.04148" lon="3.88217">
        <ele>661</ele>
        <time>2011-05-30T06:35:16Z</time>
      </trkpt>
      <trkpt lat="45.04127" lon="3.88221">
        <ele>660</ele>
        <time>2011-05-30T06:35:26Z</time>
      </trkpt>
      <trkpt lat="45.04112" lon="3.88222">
        <ele>656</ele>
        <time>2011-05-30T06:35:36Z</time>
      </trkpt>
      <trkpt lat="45.04101" lon="3.88218">
        <ele>648</ele>
        <time>2011-05-30T06:35:46Z</time>
      </trkpt>
      <trkpt lat="45.04088" lon="3.88221">
        <ele>646</ele>
        <time>2011-05-30T06:35:56Z</time>
      </trkpt>
      <trkpt lat="45.04078" lon="3.88215">
        <ele>642</ele>
        <time>2011-05-30T06:36:06Z</time>
      </trkpt>
      <trkpt lat="45.04067" lon="3.88209">
        <ele>639</ele>
        <time>2011-05-30T06:36:17Z</time>
      </trkpt>
      <trkpt lat="45.04057" lon="3.88213">
        <ele>633</ele>
        <time>2011-05-30T06:36:27Z</time>
      </trkpt>
      <trkpt lat="45.04042" lon="3.88211">
        <ele>631</ele>
        <time>2011-05-30T06:36:37Z</time>
      </trkpt>
      <trkpt lat="45.04031" lon="3.88206">
        <ele>631</ele>
        <time>2011-05-30T06:36:47Z</time>
      </trkpt>
      <trkpt lat="45.04019" lon="3.88204">
        <ele>631</ele>
        <time>2011-05-30T06:36:57Z</time>
      </trkpt>
      <trkpt lat="45.04006" lon="3.88202">
        <ele>631</ele>
        <time>2011-05-30T06:37:07Z</time>
      </trkpt>
      <trkpt lat="45.03992" lon="3.88204">
        <ele>631</ele>
        <time>2011-05-30T06:37:17Z</time>
      </trkpt>
      <trkpt lat="45.0398" lon="3.88206">
        <ele>631</ele>
        <time>2011-05-30T06:37:28Z</time>
      </trkpt>
      <trkpt lat="45.03968" lon="3.88204">
        <ele>631</ele>
        <time>2011-05-30T06:37:38Z</time>
      </trkpt>
      <trkpt lat="45.03956" lon="3.882">
        <ele>631</ele>
        <time>2011-05-30T06:37:48Z</time>
      </trkpt>
      <trkpt lat="45.03939" lon="3.88202">
        <ele>636</ele>
        <time>2011-05-30T06:37:58Z</time>
      </trkpt>
      <trkpt lat="45.03924" lon="3.88205">
        <ele>641</ele>
        <time>2011-05-30T06:38:08Z</time>
      </trkpt>
      <trkpt lat="45.03904" lon="3.88208">
        <ele>648</ele>
        <time>2011-05-30T06:38:19Z</time>
      </trkpt>
      <trkpt lat="45.03891" lon="3.8821">
        <ele>649</ele>
        <time>2011-05-30T06:38:29Z</time>
      </trkpt>
      <trkpt lat="45.0388" lon="3.88208">
        <ele>649</ele>
        <time>2011-05-30T06:38:39Z</time>
      </trkpt>
      <trkpt lat="45.03866" lon="3.88205">
        <ele>649</ele>
        <time>2011-05-30T06:38:49Z</time>
      </trkpt>
      <trkpt lat="45.03853" lon="3.88199">
        <ele>649</ele>
        <time>2011-05-30T06:39:00Z</time>
      </trkpt>
      <trkpt lat="45.03839" lon="3.882">
        <ele>650</ele>
        <time>2011-05-30T06:39:11Z</time>
      </trkpt>
      <trkpt lat="45.03827" lon="3.88194">
        <ele>653</ele>
        <time>2011-05-30T06:39:21Z</time>
      </trkpt>
      <trkpt lat="45.03816" lon="3.88191">
        <ele>653</ele>
        <time>2011-05-30T06:39:31Z</time>
      </trkpt>
      <trkpt lat="45.03803" lon="3.88192">
        <ele>650</ele>
        <time>2011-05-30T06:39:41Z</time>
      </trkpt>
      <trkpt lat="45.03794" lon="3.88185">
        <ele>647</ele>
        <time>2011-05-30T06:39:51Z</time>
      </trkpt>
      <trkpt lat="45.03782" lon="3.88181">
        <ele>646</ele>
        <time>2011-05-30T06:40:01Z</time>
      </trkpt>
      <trkpt lat="45.03768" lon="3.8818">
        <ele>643</ele>
        <time>2011-05-30T06:40:11Z</time>
      </trkpt>
      <trkpt lat="45.03755" lon="3.88177">
        <ele>641</ele>
        <time>2011-05-30T06:40:22Z</time>
      </trkpt>
      <trkpt lat="45.03743" lon="3.8818">
        <ele>641</ele>
        <time>2011-05-30T06:40:32Z</time>
      </trkpt>
      <trkpt lat="45.0373" lon="3.88177">
        <ele>641</ele>
        <time>2011-05-30T06:40:42Z</time>
      </trkpt>
      <trkpt lat="45.03717" lon="3.88176">
        <ele>641</ele>
        <time>2011-05-30T06:40:53Z</time>
      </trkpt>
      <trkpt lat="45.03704" lon="3.88176">
        <ele>640</ele>
        <time>2011-05-30T06:41:03Z</time>
      </trkpt>
      <trkpt lat="45.03686" lon="3.88175">
        <ele>644</ele>
        <time>2011-05-30T06:41:13Z</time>
      </trkpt>
      <trkpt lat="45.0367" lon="3.88178">
        <ele>651</ele>
        <time>2011-05-30T06:41:23Z</time>
      </trkpt>
      <trkpt lat="45.03658" lon="3.88176">
        <ele>653</ele>
        <time>2011-05-30T06:41:33Z</time>
      </trkpt>
      <trkpt lat="45.03649" lon="3.88169">
        <ele>653</ele>
        <time>2011-05-30T06:41:43Z</time>
      </trkpt>
      <trkpt lat="45.03638" lon="3.88164">
        <ele>646</ele>
        <time>2011-05-30T06:41:54Z</time>
      </trkpt>
      <trkpt lat="45.03629" lon="3.88157">
        <ele>641</ele>
        <time>2011-05-30T06:42:04Z</time>
      </trkpt>
      <trkpt lat="45.03617" lon="3.88156">
        <ele>641</ele>
        <time>2011-05-30T06:42:14Z</time>
      </trkpt>
      <trkpt lat="45.03601" lon="3.88152">
        <ele>641</ele>
        <time>2011-05-30T06:42:24Z</time>
      </trkpt>
      <trkpt lat="45.03588" lon="3.88146">
        <ele>641</ele>
        <time>2011-05-30T06:42:34Z</time>
      </trkpt>
      <trkpt lat="45.03577" lon="3.88139">
        <ele>641</ele>
        <time>2011-05-30T06:42:44Z</time>
      </trkpt>
      <trkpt lat="45.03565" lon="3.88133">
        <ele>641</ele>
        <time>2011-05-30T06:42:54Z</time>
      </trkpt>
      <trkpt lat="45.03553" lon="3.88122">
        <ele>641</ele>
        <time>2011-05-30T06:43:05Z</time>
      </trkpt>
      <trkpt lat="45.03543" lon="3.88116">
        <ele>641</ele>
        <time>2011-05-30T06:43:15Z</time>
      </trkpt>
      <trkpt lat="45.03529" lon="3.88111">
        <ele>641</ele>
        <time>2011-05-30T06:43:25Z</time>
      </trkpt>
      <trkpt lat="45.03518" lon="3.88102">
        <ele>643</ele>
        <time>2011-05-30T06:43:36Z</time>
      </trkpt>
      <trkpt lat="45.03503" lon="3.88099">
        <ele>648</ele>
        <time>2011-05-30T06:43:46Z</time>
      </trkpt>
      <trkpt lat="45.03489" lon="3.88094">
        <ele>655</ele>
        <time>2011-05-30T06:43:57Z</time>
      </trkpt>
      <trkpt lat="45.03479" lon="3.88086">
        <ele>655</ele>
        <time>2011-05-30T06:44:07Z</time>
      </trkpt>
      <trkpt lat="45.03468" lon="3.88076">
        <ele>655</ele>
        <time>2011-05-30T06:44:17Z</time>
      </trkpt>
      <trkpt lat="45.03458" lon="3.88062">
        <ele>651</ele>
        <time>2011-05-30T06:44:28Z</time>
      </trkpt>
      <trkpt lat="45.03447" lon="3.88052">
        <ele>647</ele>
        <time>2011-05-30T06:44:38Z</time>
      </trkpt>
      <trkpt lat="45.03437" lon="3.8804">
        <ele>646</ele>
        <time>2011-05-30T06:44:49Z</time>
      </trkpt>
      <trkpt lat="45.03426" lon="3.8803">
        <ele>646</ele>
        <time>2011-05-30T06:45:00Z</time>
      </trkpt>
      <trkpt lat="45.0341" lon="3.88023">
        <ele>646</ele>
        <time>2011-05-30T06:45:10Z</time>
      </trkpt>
      <trkpt lat="45.03398" lon="3.88015">
        <ele>650</ele>
        <time>2011-05-30T06:45:20Z</time>
      </trkpt>
      <trkpt lat="45.03392" lon="3.88008">
        <ele>650</ele>
        <time>2011-05-30T06:45:30Z</time>
      </trkpt>
      <trkpt lat="45.03377" lon="3.88001">
        <ele>652</ele>
        <time>2011-05-30T06:45:41Z</time>
      </trkpt>
      <trkpt lat="45.03366" lon="3.8799">
        <ele>652</ele>
        <time>2011-05-30T06:45:52Z</time>
      </trkpt>
      <trkpt lat="45.03357" lon="3.87978">
        <ele>652</ele>
        <time>2011-05-30T06:46:02Z</time>
      </trkpt>
      <trkpt lat="45.03348" lon="3.87967">
        <ele>646</ele>
        <time>2011-05-30T06:46:12Z</time>
      </trkpt>
      <trkpt lat="45.03336" lon="3.87961">
        <ele>646</ele>
        <time>2011-05-30T06:46:22Z</time>
      </trkpt>
      <trkpt lat="45.03326" lon="3.87952">
        <ele>646</ele>
        <time>2011-05-30T06:46:32Z</time>
      </trkpt>
      <trkpt lat="45.03315" lon="3.87943">
        <ele>646</ele>
        <time>2011-05-30T06:46:42Z</time>
      </trkpt>
      <trkpt lat="45.03305" lon="3.87935">
        <ele>646</ele>
        <time>2011-05-30T06:46:52Z</time>
      </trkpt>
      <trkpt lat="45.03294" lon="3.87923">
        <ele>646</ele>
        <time>2011-05-30T06:47:03Z</time>
      </trkpt>
      <trkpt lat="45.03283" lon="3.87913">
        <ele>646</ele>
        <time>2011-05-30T06:47:13Z</time>
      </trkpt>
      <trkpt lat="45.03271" lon="3.87906">
        <ele>646</ele>
        <time>2011-05-30T06:47:23Z</time>
      </trkpt>
      <trkpt lat="45.03262" lon="3.87895">
        <ele>644</ele>
        <time>2011-05-30T06:47:33Z</time>
      </trkpt>
      <trkpt lat="45.03249" lon="3.87886">
        <ele>644</ele>
        <time>2011-05-30T06:47:43Z</time>
      </trkpt>
      <trkpt lat="45.03238" lon="3.87876">
        <ele>644</ele>
        <time>2011-05-30T06:47:53Z</time>
      </trkpt>
      <trkpt lat="45.03223" lon="3.87864">
        <ele>646</ele>
        <time>2011-05-30T06:48:04Z</time>
      </trkpt>
      <trkpt lat="45.03212" lon="3.87852">
        <ele>646</ele>
        <time>2011-05-30T06:48:15Z</time>
      </trkpt>
      <trkpt lat="45.03202" lon="3.8784">
        <ele>646</ele>
        <time>2011-05-30T06:48:25Z</time>
      </trkpt>
      <trkpt lat="45.03187" lon="3.87825">
        <ele>646</ele>
        <time>2011-05-30T06:48:38Z</time>
      </trkpt>
      <trkpt lat="45.0318" lon="3.87811">
        <ele>646</ele>
        <time>2011-05-30T06:48:48Z</time>
      </trkpt>
      <trkpt lat="45.03173" lon="3.87796">
        <ele>646</ele>
        <time>2011-05-30T06:48:59Z</time>
      </trkpt>
      <trkpt lat="45.03165" lon="3.87784">
        <ele>646</ele>
        <time>2011-05-30T06:49:09Z</time>
      </trkpt>
      <trkpt lat="45.03156" lon="3.87772">
        <ele>646</ele>
        <time>2011-05-30T06:49:19Z</time>
      </trkpt>
      <trkpt lat="45.03146" lon="3.87761">
        <ele>646</ele>
        <time>2011-05-30T06:49:29Z</time>
      </trkpt>
      <trkpt lat="45.03137" lon="3.87751">
        <ele>648</ele>
        <time>2011-05-30T06:49:39Z</time>
      </trkpt>
      <trkpt lat="45.03128" lon="3.87741">
        <ele>649</ele>
        <time>2011-05-30T06:49:49Z</time>
      </trkpt>
      <trkpt lat="45.03115" lon="3.87732">
        <ele>655</ele>
        <time>2011-05-30T06:49:59Z</time>
      </trkpt>
      <trkpt lat="45.03102" lon="3.87721">
        <ele>655</ele>
        <time>2011-05-30T06:50:09Z</time>
      </trkpt>
      <trkpt lat="45.03091" lon="3.87709">
        <ele>655</ele>
        <time>2011-05-30T06:50:20Z</time>
      </trkpt>
      <trkpt lat="45.0308" lon="3.87701">
        <ele>656</ele>
        <time>2011-05-30T06:50:30Z</time>
      </trkpt>
      <trkpt lat="45.0307" lon="3.8769">
        <ele>658</ele>
        <time>2011-05-30T06:50:40Z</time>
      </trkpt>
      <trkpt lat="45.03059" lon="3.8768">
        <ele>658</ele>
        <time>2011-05-30T06:50:50Z</time>
      </trkpt>
      <trkpt lat="45.03048" lon="3.87675">
        <ele>661</ele>
        <time>2011-05-30T06:51:00Z</time>
      </trkpt>
      <trkpt lat="45.0304" lon="3.87664">
        <ele>661</ele>
        <time>2011-05-30T06:51:10Z</time>
      </trkpt>
      <trkpt lat="45.03027" lon="3.87657">
        <ele>664</ele>
        <time>2011-05-30T06:51:20Z</time>
      </trkpt>
      <trkpt lat="45.03017" lon="3.87647">
        <ele>667</ele>
        <time>2011-05-30T06:51:30Z</time>
      </trkpt>
      <trkpt lat="45.03005" lon="3.87638">
        <ele>667</ele>
        <time>2011-05-30T06:51:40Z</time>
      </trkpt>
      <trkpt lat="45.02996" lon="3.87641">
        <ele>664</ele>
        <time>2011-05-30T06:51:52Z</time>
      </trkpt>
      <trkpt lat="45.02988" lon="3.87641">
        <ele>658</ele>
        <time>2011-05-30T06:52:03Z</time>
      </trkpt>
      <trkpt lat="45.02981" lon="3.87636">
        <ele>655</ele>
        <time>2011-05-30T06:52:13Z</time>
      </trkpt>
      <trkpt lat="45.02971" lon="3.87632">
        <ele>653</ele>
        <time>2011-05-30T06:52:24Z</time>
      </trkpt>
      <trkpt lat="45.02963" lon="3.87625">
        <ele>650</ele>
        <time>2011-05-30T06:52:34Z</time>
      </trkpt>
      <trkpt lat="45.02953" lon="3.87616">
        <ele>648</ele>
        <time>2011-05-30T06:52:44Z</time>
      </trkpt>
      <trkpt lat="45.02943" lon="3.87606">
        <ele>648</ele>
        <time>2011-05-30T06:52:54Z</time>
      </trkpt>
      <trkpt lat="45.02934" lon="3.87592">
        <ele>648</ele>
        <time>2011-05-30T06:53:05Z</time>
      </trkpt>
      <trkpt lat="45.02925" lon="3.87583">
        <ele>648</ele>
        <time>2011-05-30T06:53:15Z</time>
      </trkpt>
      <trkpt lat="45.02916" lon="3.87572">
        <ele>648</ele>
        <time>2011-05-30T06:53:25Z</time>
      </trkpt>
      <trkpt lat="45.02906" lon="3.87561">
        <ele>647</ele>
        <time>2011-05-30T06:53:35Z</time>
      </trkpt>
      <trkpt lat="45.02898" lon="3.87549">
        <ele>647</ele>
        <time>2011-05-30T06:53:45Z</time>
      </trkpt>
      <trkpt lat="45.02889" lon="3.87535">
        <ele>647</ele>
        <time>2011-05-30T06:53:56Z</time>
      </trkpt>
      <trkpt lat="45.0288" lon="3.87522">
        <ele>647</ele>
        <time>2011-05-30T06:54:06Z</time>
      </trkpt>
      <trkpt lat="45.02872" lon="3.87513">
        <ele>647</ele>
        <time>2011-05-30T06:54:16Z</time>
      </trkpt>
      <trkpt lat="45.02859" lon="3.87516">
        <ele>651</ele>
        <time>2011-05-30T06:54:27Z</time>
      </trkpt>
      <trkpt lat="45.02857" lon="3.87509">
        <ele>651</ele>
        <time>2011-05-30T06:54:37Z</time>
      </trkpt>
      <trkpt lat="45.02855" lon="3.875">
        <ele>651</ele>
        <time>2011-05-30T06:54:55Z</time>
      </trkpt>
      <trkpt lat="45.0286" lon="3.87501">
        <ele>655</ele>
        <time>2011-05-30T06:55:05Z</time>
      </trkpt>
      <trkpt lat="45.02862" lon="3.8751">
        <ele>661</ele>
        <time>2011-05-30T06:55:16Z</time>
      </trkpt>
      <trkpt lat="45.02859" lon="3.8752">
        <ele>661</ele>
        <time>2011-05-30T06:55:27Z</time>
      </trkpt>
      <trkpt lat="45.02848" lon="3.87527">
        <ele>661</ele>
        <time>2011-05-30T06:55:37Z</time>
      </trkpt>
      <trkpt lat="45.02837" lon="3.8754">
        <ele>664</ele>
        <time>2011-05-30T06:55:49Z</time>
      </trkpt>
      <trkpt lat="45.0283" lon="3.87546">
        <ele>665</ele>
        <time>2011-05-30T06:56:00Z</time>
      </trkpt>
      <trkpt lat="45.02824" lon="3.8755">
        <ele>665</ele>
        <time>2011-05-30T06:56:10Z</time>
      </trkpt>
      <trkpt lat="45.02818" lon="3.87552">
        <ele>665</ele>
        <time>2011-05-30T06:56:20Z</time>
      </trkpt>
      <trkpt lat="45.02813" lon="3.87554">
        <ele>667</ele>
        <time>2011-05-30T06:56:33Z</time>
      </trkpt>
      <trkpt lat="45.0281" lon="3.87555">
        <ele>669</ele>
        <time>2011-05-30T06:56:44Z</time>
      </trkpt>
      <trkpt lat="45.02809" lon="3.87554">
        <ele>669</ele>
        <time>2011-05-30T06:57:02Z</time>
      </trkpt>
      <trkpt lat="45.02809" lon="3.87553">
        <ele>669</ele>
        <time>2011-05-30T06:57:12Z</time>
      </trkpt>
      <trkpt lat="45.02806" lon="3.87549">
        <ele>669</ele>
        <time>2011-05-30T06:57:25Z</time>
      </trkpt>
      <trkpt lat="45.02806" lon="3.87548">
        <ele>669</ele>
        <time>2011-05-30T06:57:38Z</time>
      </trkpt>
      <trkpt lat="45.02808" lon="3.87548">
        <ele>672</ele>
        <time>2011-05-30T06:57:50Z</time>
      </trkpt>
      <trkpt lat="45.02807" lon="3.87548">
        <ele>672</ele>
        <time>2011-05-30T06:58:10Z</time>
      </trkpt>
      <trkpt lat="45.02803" lon="3.87551">
        <ele>672</ele>
        <time>2011-05-30T06:58:25Z</time>
      </trkpt>
      <trkpt lat="45.02803" lon="3.87552">
        <ele>672</ele>
        <time>2011-05-30T06:58:35Z</time>
      </trkpt>
      <trkpt lat="45.02803" lon="3.87556">
        <ele>668</ele>
        <time>2011-05-30T06:58:51Z</time>
      </trkpt>
      <trkpt lat="45.02805" lon="3.87553">
        <ele>668</ele>
        <time>2011-05-30T06:59:03Z</time>
      </trkpt>
      <trkpt lat="45.02807" lon="3.87556">
        <ele>668</ele>
        <time>2011-05-30T06:59:17Z</time>
      </trkpt>
      <trkpt lat="45.02811" lon="3.87554">
        <ele>668</ele>
        <time>2011-05-30T06:59:29Z</time>
      </trkpt>
      <trkpt lat="45.02806" lon="3.87547">
        <ele>668</ele>
        <time>2011-05-30T06:59:39Z</time>
      </trkpt>
      <trkpt lat="45.02804" lon="3.87532">
        <ele>668</ele>
        <time>2011-05-30T06:59:49Z</time>
      </trkpt>
      <trkpt lat="45.02801" lon="3.87523">
        <ele>668</ele>
        <time>2011-05-30T07:00:00Z</time>
      </trkpt>
      <trkpt lat="45.02809" lon="3.87538">
        <ele>666</ele>
        <time>2011-05-30T07:00:12Z</time>
      </trkpt>
      <trkpt lat="45.02814" lon="3.87555">
        <ele>665</ele>
        <time>2011-05-30T07:00:23Z</time>
      </trkpt>
      <trkpt lat="45.02815" lon="3.87573">
        <ele>660</ele>
        <time>2011-05-30T07:00:33Z</time>
      </trkpt>
      <trkpt lat="45.02803" lon="3.87583">
        <ele>659</ele>
        <time>2011-05-30T07:00:45Z</time>
      </trkpt>
      <trkpt lat="45.0279" lon="3.87594">
        <ele>659</ele>
        <time>2011-05-30T07:00:55Z</time>
      </trkpt>
      <trkpt lat="45.0278" lon="3.87599">
        <ele>659</ele>
        <time>2011-05-30T07:01:05Z</time>
      </trkpt>
      <trkpt lat="45.02768" lon="3.87607">
        <ele>659</ele>
        <time>2011-05-30T07:01:16Z</time>
      </trkpt>
      <trkpt lat="45.02756" lon="3.87611">
        <ele>659</ele>
        <time>2011-05-30T07:01:26Z</time>
      </trkpt>
      <trkpt lat="45.02746" lon="3.87614">
        <ele>659</ele>
        <time>2011-05-30T07:01:37Z</time>
      </trkpt>
      <trkpt lat="45.02732" lon="3.87612">
        <ele>658</ele>
        <time>2011-05-30T07:01:48Z</time>
      </trkpt>
      <trkpt lat="45.0272" lon="3.87613">
        <ele>658</ele>
        <time>2011-05-30T07:01:58Z</time>
      </trkpt>
      <trkpt lat="45.02709" lon="3.87616">
        <ele>658</ele>
        <time>2011-05-30T07:02:08Z</time>
      </trkpt>
      <trkpt lat="45.02696" lon="3.87616">
        <ele>657</ele>
        <time>2011-05-30T07:02:19Z</time>
      </trkpt>
      <trkpt lat="45.02682" lon="3.87617">
        <ele>657</ele>
        <time>2011-05-30T07:02:30Z</time>
      </trkpt>
      <trkpt lat="45.02671" lon="3.87622">
        <ele>657</ele>
        <time>2011-05-30T07:02:41Z</time>
      </trkpt>
      <trkpt lat="45.0266" lon="3.87618">
        <ele>657</ele>
        <time>2011-05-30T07:02:51Z</time>
      </trkpt>
      <trkpt lat="45.02648" lon="3.87611">
        <ele>657</ele>
        <time>2011-05-30T07:03:02Z</time>
      </trkpt>
      <trkpt lat="45.02636" lon="3.87609">
        <ele>657</ele>
        <time>2011-05-30T07:03:13Z</time>
      </trkpt>
      <trkpt lat="45.02623" lon="3.87606">
        <ele>658</ele>
        <time>2011-05-30T07:03:24Z</time>
      </trkpt>
      <trkpt lat="45.02612" lon="3.87603">
        <ele>660</ele>
        <time>2011-05-30T07:03:35Z</time>
      </trkpt>
      <trkpt lat="45.026" lon="3.87602">
        <ele>663</ele>
        <time>2011-05-30T07:03:45Z</time>
      </trkpt>
      <trkpt lat="45.02588" lon="3.87597">
        <ele>664</ele>
        <time>2011-05-30T07:03:57Z</time>
      </trkpt>
      <trkpt lat="45.02575" lon="3.87593">
        <ele>664</ele>
        <time>2011-05-30T07:04:08Z</time>
      </trkpt>
      <trkpt lat="45.02565" lon="3.87593">
        <ele>664</ele>
        <time>2011-05-30T07:04:18Z</time>
      </trkpt>
      <trkpt lat="45.02554" lon="3.87591">
        <ele>664</ele>
        <time>2011-05-30T07:04:28Z</time>
      </trkpt>
      <trkpt lat="45.02541" lon="3.87588">
        <ele>665</ele>
        <time>2011-05-30T07:04:38Z</time>
      </trkpt>
      <trkpt lat="45.0253" lon="3.87584">
        <ele>665</ele>
        <time>2011-05-30T07:04:48Z</time>
      </trkpt>
      <trkpt lat="45.02519" lon="3.87584">
        <ele>666</ele>
        <time>2011-05-30T07:04:59Z</time>
      </trkpt>
      <trkpt lat="45.02508" lon="3.87584">
        <ele>667</ele>
        <time>2011-05-30T07:05:10Z</time>
      </trkpt>
      <trkpt lat="45.02496" lon="3.87584">
        <ele>668</ele>
        <time>2011-05-30T07:05:22Z</time>
      </trkpt>
      <trkpt lat="45.02485" lon="3.87583">
        <ele>671</ele>
        <time>2011-05-30T07:05:32Z</time>
      </trkpt>
      <trkpt lat="45.02473" lon="3.8758">
        <ele>673</ele>
        <time>2011-05-30T07:05:42Z</time>
      </trkpt>
      <trkpt lat="45.02463" lon="3.87576">
        <ele>677</ele>
        <time>2011-05-30T07:05:52Z</time>
      </trkpt>
      <trkpt lat="45.02454" lon="3.87571">
        <ele>678</ele>
        <time>2011-05-30T07:06:03Z</time>
      </trkpt>
      <trkpt lat="45.02444" lon="3.87567">
        <ele>678</ele>
        <time>2011-05-30T07:06:13Z</time>
      </trkpt>
      <trkpt lat="45.02435" lon="3.87562">
        <ele>679</ele>
        <time>2011-05-30T07:06:23Z</time>
      </trkpt>
      <trkpt lat="45.02426" lon="3.87559">
        <ele>680</ele>
        <time>2011-05-30T07:06:33Z</time>
      </trkpt>
      <trkpt lat="45.02415" lon="3.87555">
        <ele>682</ele>
        <time>2011-05-30T07:06:43Z</time>
      </trkpt>
      <trkpt lat="45.02405" lon="3.8755">
        <ele>687</ele>
        <time>2011-05-30T07:06:54Z</time>
      </trkpt>
      <trkpt lat="45.02397" lon="3.87545">
        <ele>688</ele>
        <time>2011-05-30T07:07:04Z</time>
      </trkpt>
      <trkpt lat="45.02388" lon="3.87536">
        <ele>688</ele>
        <time>2011-05-30T07:07:15Z</time>
      </trkpt>
      <trkpt lat="45.02379" lon="3.87532">
        <ele>688</ele>
        <time>2011-05-30T07:07:25Z</time>
      </trkpt>
      <trkpt lat="45.0237" lon="3.87527">
        <ele>689</ele>
        <time>2011-05-30T07:07:35Z</time>
      </trkpt>
      <trkpt lat="45.02361" lon="3.87523">
        <ele>690</ele>
        <time>2011-05-30T07:07:45Z</time>
      </trkpt>
      <trkpt lat="45.02351" lon="3.87519">
        <ele>693</ele>
        <time>2011-05-30T07:07:56Z</time>
      </trkpt>
      <trkpt lat="45.02342" lon="3.87515">
        <ele>695</ele>
        <time>2011-05-30T07:08:07Z</time>
      </trkpt>
      <trkpt lat="45.02333" lon="3.87511">
        <ele>696</ele>
        <time>2011-05-30T07:08:17Z</time>
      </trkpt>
      <trkpt lat="45.02325" lon="3.87509">
        <ele>698</ele>
        <time>2011-05-30T07:08:27Z</time>
      </trkpt>
      <trkpt lat="45.02316" lon="3.87506">
        <ele>700</ele>
        <time>2011-05-30T07:08:38Z</time>
      </trkpt>
      <trkpt lat="45.02306" lon="3.87503">
        <ele>701</ele>
        <time>2011-05-30T07:08:49Z</time>
      </trkpt>
      <trkpt lat="45.02297" lon="3.87501">
        <ele>702</ele>
        <time>2011-05-30T07:08:59Z</time>
      </trkpt>
      <trkpt lat="45.02292" lon="3.87499">
        <ele>702</ele>
        <time>2011-05-30T07:09:21Z</time>
      </trkpt>
      <trkpt lat="45.02283" lon="3.87494">
        <ele>702</ele>
        <time>2011-05-30T07:09:31Z</time>
      </trkpt>
      <trkpt lat="45.02274" lon="3.87489">
        <ele>702</ele>
        <time>2011-05-30T07:09:41Z</time>
      </trkpt>
      <trkpt lat="45.02266" lon="3.87485">
        <ele>704</ele>
        <time>2011-05-30T07:09:51Z</time>
      </trkpt>
      <trkpt lat="45.02257" lon="3.87481">
        <ele>709</ele>
        <time>2011-05-30T07:10:21Z</time>
      </trkpt>
      <trkpt lat="45.02254" lon="3.8748">
        <ele>710</ele>
        <time>2011-05-30T07:10:32Z</time>
      </trkpt>
      <trkpt lat="45.02245" lon="3.87476">
        <ele>711</ele>
        <time>2011-05-30T07:10:42Z</time>
      </trkpt>
      <trkpt lat="45.02235" lon="3.8747">
        <ele>712</ele>
        <time>2011-05-30T07:10:52Z</time>
      </trkpt>
      <trkpt lat="45.02226" lon="3.87465">
        <ele>713</ele>
        <time>2011-05-30T07:11:02Z</time>
      </trkpt>
      <trkpt lat="45.02216" lon="3.87459">
        <ele>714</ele>
        <time>2011-05-30T07:11:13Z</time>
      </trkpt>
      <trkpt lat="45.02206" lon="3.87453">
        <ele>715</ele>
        <time>2011-05-30T07:11:23Z</time>
      </trkpt>
      <trkpt lat="45.02197" lon="3.87445">
        <ele>716</ele>
        <time>2011-05-30T07:11:34Z</time>
      </trkpt>
      <trkpt lat="45.02187" lon="3.87441">
        <ele>719</ele>
        <time>2011-05-30T07:11:44Z</time>
      </trkpt>
      <trkpt lat="45.02176" lon="3.87435">
        <ele>720</ele>
        <time>2011-05-30T07:11:55Z</time>
      </trkpt>
      <trkpt lat="45.02166" lon="3.8743">
        <ele>721</ele>
        <time>2011-05-30T07:12:05Z</time>
      </trkpt>
      <trkpt lat="45.02157" lon="3.87422">
        <ele>722</ele>
        <time>2011-05-30T07:12:15Z</time>
      </trkpt>
      <trkpt lat="45.02148" lon="3.87413">
        <ele>722</ele>
        <time>2011-05-30T07:12:26Z</time>
      </trkpt>
      <trkpt lat="45.02139" lon="3.87405">
        <ele>724</ele>
        <time>2011-05-30T07:12:36Z</time>
      </trkpt>
      <trkpt lat="45.02131" lon="3.87397">
        <ele>724</ele>
        <time>2011-05-30T07:12:46Z</time>
      </trkpt>
      <trkpt lat="45.02122" lon="3.8739">
        <ele>724</ele>
        <time>2011-05-30T07:12:56Z</time>
      </trkpt>
      <trkpt lat="45.02113" lon="3.87384">
        <ele>727</ele>
        <time>2011-05-30T07:13:06Z</time>
      </trkpt>
      <trkpt lat="45.02103" lon="3.87378">
        <ele>729</ele>
        <time>2011-05-30T07:13:16Z</time>
      </trkpt>
      <trkpt lat="45.02092" lon="3.87371">
        <ele>731</ele>
        <time>2011-05-30T07:13:27Z</time>
      </trkpt>
      <trkpt lat="45.02083" lon="3.87363">
        <ele>732</ele>
        <time>2011-05-30T07:13:38Z</time>
      </trkpt>
      <trkpt lat="45.02074" lon="3.87357">
        <ele>732</ele>
        <time>2011-05-30T07:13:48Z</time>
      </trkpt>
      <trkpt lat="45.02065" lon="3.8735">
        <ele>733</ele>
        <time>2011-05-30T07:13:58Z</time>
      </trkpt>
      <trkpt lat="45.02056" lon="3.87343">
        <ele>735</ele>
        <time>2011-05-30T07:14:08Z</time>
      </trkpt>
      <trkpt lat="45.02048" lon="3.87336">
        <ele>736</ele>
        <time>2011-05-30T07:14:18Z</time>
      </trkpt>
      <trkpt lat="45.02037" lon="3.87328">
        <ele>737</ele>
        <time>2011-05-30T07:14:29Z</time>
      </trkpt>
      <trkpt lat="45.02031" lon="3.87318">
        <ele>738</ele>
        <time>2011-05-30T07:14:40Z</time>
      </trkpt>
      <trkpt lat="45.02026" lon="3.87308">
        <ele>740</ele>
        <time>2011-05-30T07:14:50Z</time>
      </trkpt>
      <trkpt lat="45.02022" lon="3.87297">
        <ele>740</ele>
        <time>2011-05-30T07:15:00Z</time>
      </trkpt>
      <trkpt lat="45.02015" lon="3.8729">
        <ele>741</ele>
        <time>2011-05-30T07:15:11Z</time>
      </trkpt>
      <trkpt lat="45.0201" lon="3.87283">
        <ele>745</ele>
        <time>2011-05-30T07:15:21Z</time>
      </trkpt>
      <trkpt lat="45.02005" lon="3.87276">
        <ele>748</ele>
        <time>2011-05-30T07:15:31Z</time>
      </trkpt>
      <trkpt lat="45.02" lon="3.87267">
        <ele>750</ele>
        <time>2011-05-30T07:15:43Z</time>
      </trkpt>
      <trkpt lat="45.01994" lon="3.87262">
        <ele>751</ele>
        <time>2011-05-30T07:15:54Z</time>
      </trkpt>
      <trkpt lat="45.01989" lon="3.87257">
        <ele>752</ele>
        <time>2011-05-30T07:16:05Z</time>
      </trkpt>
      <trkpt lat="45.01985" lon="3.87248">
        <ele>755</ele>
        <time>2011-05-30T07:16:16Z</time>
      </trkpt>
      <trkpt lat="45.01978" lon="3.87245">
        <ele>758</ele>
        <time>2011-05-30T07:16:27Z</time>
      </trkpt>
      <trkpt lat="45.01974" lon="3.87246">
        <ele>759</ele>
        <time>2011-05-30T07:16:46Z</time>
      </trkpt>
      <trkpt lat="45.01973" lon="3.87247">
        <ele>769</ele>
        <time>2011-05-30T07:17:03Z</time>
      </trkpt>
      <trkpt lat="45.01976" lon="3.87245">
        <ele>769</ele>
        <time>2011-05-30T07:17:14Z</time>
      </trkpt>
      <trkpt lat="45.01975" lon="3.87241">
        <ele>769</ele>
        <time>2011-05-30T07:17:27Z</time>
      </trkpt>
      <trkpt lat="45.01973" lon="3.87236">
        <ele>769</ele>
        <time>2011-05-30T07:17:43Z</time>
      </trkpt>
      <trkpt lat="45.01973" lon="3.87235">
        <ele>769</ele>
        <time>2011-05-30T07:18:02Z</time>
      </trkpt>
      <trkpt lat="45.01974" lon="3.87237">
        <ele>769</ele>
        <time>2011-05-30T07:18:15Z</time>
      </trkpt>
      <trkpt lat="45.01974" lon="3.87239">
        <ele>769</ele>
        <time>2011-05-30T07:18:26Z</time>
      </trkpt>
      <trkpt lat="45.01976" lon="3.87238">
        <ele>766</ele>
        <time>2011-05-30T07:18:42Z</time>
      </trkpt>
      <trkpt lat="45.01976" lon="3.87239">
        <ele>766</ele>
        <time>2011-05-30T07:19:02Z</time>
      </trkpt>
      <trkpt lat="45.01973" lon="3.87244">
        <ele>766</ele>
        <time>2011-05-30T07:19:13Z</time>
      </trkpt>
      <trkpt lat="45.01968" lon="3.87245">
        <ele>766</ele>
        <time>2011-05-30T07:19:24Z</time>
      </trkpt>
      <trkpt lat="45.01961" lon="3.87245">
        <ele>766</ele>
        <time>2011-05-30T07:19:35Z</time>
      </trkpt>
      <trkpt lat="45.01957" lon="3.87246">
        <ele>766</ele>
        <time>2011-05-30T07:19:50Z</time>
      </trkpt>
      <trkpt lat="45.0195" lon="3.87245">
        <ele>766</ele>
        <time>2011-05-30T07:20:00Z</time>
      </trkpt>
      <trkpt lat="45.01943" lon="3.87245">
        <ele>764</ele>
        <time>2011-05-30T07:20:11Z</time>
      </trkpt>
      <trkpt lat="45.01935" lon="3.87245">
        <ele>764</ele>
        <time>2011-05-30T07:20:21Z</time>
      </trkpt>
      <trkpt lat="45.01926" lon="3.87245">
        <ele>763</ele>
        <time>2011-05-30T07:20:31Z</time>
      </trkpt>
      <trkpt lat="45.01918" lon="3.87246">
        <ele>763</ele>
        <time>2011-05-30T07:20:41Z</time>
      </trkpt>
      <trkpt lat="45.01907" lon="3.87251">
        <ele>763</ele>
        <time>2011-05-30T07:20:52Z</time>
      </trkpt>
      <trkpt lat="45.01896" lon="3.87257">
        <ele>771</ele>
        <time>2011-05-30T07:21:02Z</time>
      </trkpt>
      <trkpt lat="45.01888" lon="3.8726">
        <ele>772</ele>
        <time>2011-05-30T07:21:12Z</time>
      </trkpt>
      <trkpt lat="45.0188" lon="3.87261">
        <ele>772</ele>
        <time>2011-05-30T07:21:22Z</time>
      </trkpt>
      <trkpt lat="45.01872" lon="3.87261">
        <ele>774</ele>
        <time>2011-05-30T07:21:32Z</time>
      </trkpt>
      <trkpt lat="45.01865" lon="3.87263">
        <ele>775</ele>
        <time>2011-05-30T07:21:42Z</time>
      </trkpt>
      <trkpt lat="45.01857" lon="3.87261">
        <ele>777</ele>
        <time>2011-05-30T07:21:52Z</time>
      </trkpt>
      <trkpt lat="45.0185" lon="3.87258">
        <ele>778</ele>
        <time>2011-05-30T07:22:02Z</time>
      </trkpt>
      <trkpt lat="45.01842" lon="3.87253">
        <ele>779</ele>
        <time>2011-05-30T07:22:12Z</time>
      </trkpt>
      <trkpt lat="45.01834" lon="3.87247">
        <ele>780</ele>
        <time>2011-05-30T07:22:22Z</time>
      </trkpt>
      <trkpt lat="45.01826" lon="3.8724">
        <ele>781</ele>
        <time>2011-05-30T07:22:32Z</time>
      </trkpt>
      <trkpt lat="45.01818" lon="3.87233">
        <ele>782</ele>
        <time>2011-05-30T07:22:42Z</time>
      </trkpt>
      <trkpt lat="45.01809" lon="3.87226">
        <ele>783</ele>
        <time>2011-05-30T07:22:52Z</time>
      </trkpt>
      <trkpt lat="45.018" lon="3.87219">
        <ele>783</ele>
        <time>2011-05-30T07:23:02Z</time>
      </trkpt>
      <trkpt lat="45.01791" lon="3.87212">
        <ele>784</ele>
        <time>2011-05-30T07:23:12Z</time>
      </trkpt>
      <trkpt lat="45.01782" lon="3.87206">
        <ele>784</ele>
        <time>2011-05-30T07:23:22Z</time>
      </trkpt>
      <trkpt lat="45.01773" lon="3.87199">
        <ele>786</ele>
        <time>2011-05-30T07:23:32Z</time>
      </trkpt>
      <trkpt lat="45.01765" lon="3.87191">
        <ele>786</ele>
        <time>2011-05-30T07:23:42Z</time>
      </trkpt>
      <trkpt lat="45.01753" lon="3.87185">
        <ele>787</ele>
        <time>2011-05-30T07:23:53Z</time>
      </trkpt>
      <trkpt lat="45.01743" lon="3.87177">
        <ele>788</ele>
        <time>2011-05-30T07:24:03Z</time>
      </trkpt>
      <trkpt lat="45.01734" lon="3.87171">
        <ele>789</ele>
        <time>2011-05-30T07:24:13Z</time>
      </trkpt>
      <trkpt lat="45.01724" lon="3.87167">
        <ele>791</ele>
        <time>2011-05-30T07:24:23Z</time>
      </trkpt>
      <trkpt lat="45.01714" lon="3.87161">
        <ele>792</ele>
        <time>2011-05-30T07:24:33Z</time>
      </trkpt>
      <trkpt lat="45.01703" lon="3.87157">
        <ele>795</ele>
        <time>2011-05-30T07:24:43Z</time>
      </trkpt>
      <trkpt lat="45.01692" lon="3.8715">
        <ele>796</ele>
        <time>2011-05-30T07:24:53Z</time>
      </trkpt>
      <trkpt lat="45.01682" lon="3.87142">
        <ele>796</ele>
        <time>2011-05-30T07:25:03Z</time>
      </trkpt>
      <trkpt lat="45.01671" lon="3.87136">
        <ele>796</ele>
        <time>2011-05-30T07:25:13Z</time>
      </trkpt>
      <trkpt lat="45.01659" lon="3.87128">
        <ele>796</ele>
        <time>2011-05-30T07:25:24Z</time>
      </trkpt>
      <trkpt lat="45.01649" lon="3.87123">
        <ele>797</ele>
        <time>2011-05-30T07:25:34Z</time>
      </trkpt>
      <trkpt lat="45.01637" lon="3.87118">
        <ele>801</ele>
        <time>2011-05-30T07:25:44Z</time>
      </trkpt>
      <trkpt lat="45.01627" lon="3.87112">
        <ele>801</ele>
        <time>2011-05-30T07:25:55Z</time>
      </trkpt>
      <trkpt lat="45.01616" lon="3.87104">
        <ele>801</ele>
        <time>2011-05-30T07:26:06Z</time>
      </trkpt>
      <trkpt lat="45.01605" lon="3.87098">
        <ele>802</ele>
        <time>2011-05-30T07:26:16Z</time>
      </trkpt>
      <trkpt lat="45.01595" lon="3.87092">
        <ele>806</ele>
        <time>2011-05-30T07:26:26Z</time>
      </trkpt>
      <trkpt lat="45.01585" lon="3.87086">
        <ele>808</ele>
        <time>2011-05-30T07:26:36Z</time>
      </trkpt>
      <trkpt lat="45.01576" lon="3.8708">
        <ele>809</ele>
        <time>2011-05-30T07:26:46Z</time>
      </trkpt>
      <trkpt lat="45.01566" lon="3.87074">
        <ele>810</ele>
        <time>2011-05-30T07:26:56Z</time>
      </trkpt>
      <trkpt lat="45.01555" lon="3.8707">
        <ele>811</ele>
        <time>2011-05-30T07:27:07Z</time>
      </trkpt>
      <trkpt lat="45.01545" lon="3.87065">
        <ele>811</ele>
        <time>2011-05-30T07:27:17Z</time>
      </trkpt>
      <trkpt lat="45.01536" lon="3.87057">
        <ele>811</ele>
        <time>2011-05-30T07:27:27Z</time>
      </trkpt>
      <trkpt lat="45.01527" lon="3.8705">
        <ele>813</ele>
        <time>2011-05-30T07:27:38Z</time>
      </trkpt>
      <trkpt lat="45.01519" lon="3.87039">
        <ele>813</ele>
        <time>2011-05-30T07:27:48Z</time>
      </trkpt>
      <trkpt lat="45.01513" lon="3.87029">
        <ele>813</ele>
        <time>2011-05-30T07:27:58Z</time>
      </trkpt>
      <trkpt lat="45.01505" lon="3.87023">
        <ele>813</ele>
        <time>2011-05-30T07:28:08Z</time>
      </trkpt>
      <trkpt lat="45.01496" lon="3.87019">
        <ele>815</ele>
        <time>2011-05-30T07:28:18Z</time>
      </trkpt>
      <trkpt lat="45.01487" lon="3.87011">
        <ele>817</ele>
        <time>2011-05-30T07:28:28Z</time>
      </trkpt>
      <trkpt lat="45.01478" lon="3.87009">
        <ele>819</ele>
        <time>2011-05-30T07:28:38Z</time>
      </trkpt>
      <trkpt lat="45.01469" lon="3.87007">
        <ele>821</ele>
        <time>2011-05-30T07:28:48Z</time>
      </trkpt>
      <trkpt lat="45.01458" lon="3.87003">
        <ele>822</ele>
        <time>2011-05-30T07:28:59Z</time>
      </trkpt>
      <trkpt lat="45.01448" lon="3.87004">
        <ele>824</ele>
        <time>2011-05-30T07:29:10Z</time>
      </trkpt>
      <trkpt lat="45.01439" lon="3.87008">
        <ele>826</ele>
        <time>2011-05-30T07:29:20Z</time>
      </trkpt>
      <trkpt lat="45.01429" lon="3.8701">
        <ele>826</ele>
        <time>2011-05-30T07:29:30Z</time>
      </trkpt>
      <trkpt lat="45.01421" lon="3.87014">
        <ele>828</ele>
        <time>2011-05-30T07:29:41Z</time>
      </trkpt>
      <trkpt lat="45.01412" lon="3.87012">
        <ele>828</ele>
        <time>2011-05-30T07:29:51Z</time>
      </trkpt>
      <trkpt lat="45.01401" lon="3.87016">
        <ele>828</ele>
        <time>2011-05-30T07:30:01Z</time>
      </trkpt>
      <trkpt lat="45.01393" lon="3.87012">
        <ele>834</ele>
        <time>2011-05-30T07:30:11Z</time>
      </trkpt>
      <trkpt lat="45.01384" lon="3.87012">
        <ele>836</ele>
        <time>2011-05-30T07:30:21Z</time>
      </trkpt>
      <trkpt lat="45.01376" lon="3.87014">
        <ele>837</ele>
        <time>2011-05-30T07:30:33Z</time>
      </trkpt>
      <trkpt lat="45.01366" lon="3.8702">
        <ele>838</ele>
        <time>2011-05-30T07:30:43Z</time>
      </trkpt>
      <trkpt lat="45.01357" lon="3.87024">
        <ele>839</ele>
        <time>2011-05-30T07:30:53Z</time>
      </trkpt>
      <trkpt lat="45.01345" lon="3.87024">
        <ele>842</ele>
        <time>2011-05-30T07:31:03Z</time>
      </trkpt>
      <trkpt lat="45.01333" lon="3.8702">
        <ele>844</ele>
        <time>2011-05-30T07:31:14Z</time>
      </trkpt>
      <trkpt lat="45.01325" lon="3.8701">
        <ele>844</ele>
        <time>2011-05-30T07:31:24Z</time>
      </trkpt>
      <trkpt lat="45.01316" lon="3.86996">
        <ele>844</ele>
        <time>2011-05-30T07:31:35Z</time>
      </trkpt>
      <trkpt lat="45.01305" lon="3.86986">
        <ele>845</ele>
        <time>2011-05-30T07:31:45Z</time>
      </trkpt>
      <trkpt lat="45.01294" lon="3.86979">
        <ele>845</ele>
        <time>2011-05-30T07:31:56Z</time>
      </trkpt>
      <trkpt lat="45.01286" lon="3.86974">
        <ele>846</ele>
        <time>2011-05-30T07:32:06Z</time>
      </trkpt>
      <trkpt lat="45.01276" lon="3.86966">
        <ele>846</ele>
        <time>2011-05-30T07:32:16Z</time>
      </trkpt>
      <trkpt lat="45.01265" lon="3.86959">
        <ele>847</ele>
        <time>2011-05-30T07:32:26Z</time>
      </trkpt>
      <trkpt lat="45.01257" lon="3.86957">
        <ele>847</ele>
        <time>2011-05-30T07:32:43Z</time>
      </trkpt>
      <trkpt lat="45.01256" lon="3.86957">
        <ele>847</ele>
        <time>2011-05-30T07:32:53Z</time>
      </trkpt>
      <trkpt lat="45.01248" lon="3.8695">
        <ele>847</ele>
        <time>2011-05-30T07:33:03Z</time>
      </trkpt>
      <trkpt lat="45.01237" lon="3.86942">
        <ele>847</ele>
        <time>2011-05-30T07:33:14Z</time>
      </trkpt>
      <trkpt lat="45.01228" lon="3.86933">
        <ele>847</ele>
        <time>2011-05-30T07:33:24Z</time>
      </trkpt>
      <trkpt lat="45.0122" lon="3.8693">
        <ele>849</ele>
        <time>2011-05-30T07:33:43Z</time>
      </trkpt>
      <trkpt lat="45.01218" lon="3.86932">
        <ele>850</ele>
        <time>2011-05-30T07:34:10Z</time>
      </trkpt>
      <trkpt lat="45.01219" lon="3.86937">
        <ele>850</ele>
        <time>2011-05-30T07:34:20Z</time>
      </trkpt>
      <trkpt lat="45.0122" lon="3.86936">
        <ele>851</ele>
        <time>2011-05-30T07:34:43Z</time>
      </trkpt>
      <trkpt lat="45.0122" lon="3.86934">
        <ele>851</ele>
        <time>2011-05-30T07:34:53Z</time>
      </trkpt>
      <trkpt lat="45.01214" lon="3.86927">
        <ele>851</ele>
        <time>2011-05-30T07:35:03Z</time>
      </trkpt>
      <trkpt lat="45.01211" lon="3.86925">
        <ele>851</ele>
        <time>2011-05-30T07:35:19Z</time>
      </trkpt>
      <trkpt lat="45.012" lon="3.86917">
        <ele>851</ele>
        <time>2011-05-30T07:35:30Z</time>
      </trkpt>
      <trkpt lat="45.01189" lon="3.8691">
        <ele>851</ele>
        <time>2011-05-30T07:35:41Z</time>
      </trkpt>
      <trkpt lat="45.01179" lon="3.86903">
        <ele>851</ele>
        <time>2011-05-30T07:35:51Z</time>
      </trkpt>
      <trkpt lat="45.01173" lon="3.86899">
        <ele>851</ele>
        <time>2011-05-30T07:36:05Z</time>
      </trkpt>
      <trkpt lat="45.01171" lon="3.86902">
        <ele>852</ele>
        <time>2011-05-30T07:36:47Z</time>
      </trkpt>
      <trkpt lat="45.01166" lon="3.86893">
        <ele>852</ele>
        <time>2011-05-30T07:36:57Z</time>
      </trkpt>
      <trkpt lat="45.01156" lon="3.86886">
        <ele>852</ele>
        <time>2011-05-30T07:37:07Z</time>
      </trkpt>
      <trkpt lat="45.01145" lon="3.86879">
        <ele>852</ele>
        <time>2011-05-30T07:37:17Z</time>
      </trkpt>
      <trkpt lat="45.01134" lon="3.86873">
        <ele>853</ele>
        <time>2011-05-30T07:37:28Z</time>
      </trkpt>
      <trkpt lat="45.01123" lon="3.86866">
        <ele>854</ele>
        <time>2011-05-30T07:37:38Z</time>
      </trkpt>
      <trkpt lat="45.0111" lon="3.86858">
        <ele>855</ele>
        <time>2011-05-30T07:37:49Z</time>
      </trkpt>
      <trkpt lat="45.01098" lon="3.86848">
        <ele>855</ele>
        <time>2011-05-30T07:38:00Z</time>
      </trkpt>
      <trkpt lat="45.01086" lon="3.86842">
        <ele>855</ele>
        <time>2011-05-30T07:38:10Z</time>
      </trkpt>
      <trkpt lat="45.01074" lon="3.86833">
        <ele>856</ele>
        <time>2011-05-30T07:38:21Z</time>
      </trkpt>
      <trkpt lat="45.01063" lon="3.86823">
        <ele>856</ele>
        <time>2011-05-30T07:38:31Z</time>
      </trkpt>
      <trkpt lat="45.01052" lon="3.86811">
        <ele>856</ele>
        <time>2011-05-30T07:38:42Z</time>
      </trkpt>
      <trkpt lat="45.01042" lon="3.86801">
        <ele>856</ele>
        <time>2011-05-30T07:38:52Z</time>
      </trkpt>
      <trkpt lat="45.01032" lon="3.86793">
        <ele>857</ele>
        <time>2011-05-30T07:39:02Z</time>
      </trkpt>
      <trkpt lat="45.01022" lon="3.86782">
        <ele>858</ele>
        <time>2011-05-30T07:39:13Z</time>
      </trkpt>
      <trkpt lat="45.01013" lon="3.8677">
        <ele>858</ele>
        <time>2011-05-30T07:39:23Z</time>
      </trkpt>
      <trkpt lat="45.01003" lon="3.86758">
        <ele>858</ele>
        <time>2011-05-30T07:39:33Z</time>
      </trkpt>
      <trkpt lat="45.00991" lon="3.86748">
        <ele>858</ele>
        <time>2011-05-30T07:39:44Z</time>
      </trkpt>
      <trkpt lat="45.00978" lon="3.86741">
        <ele>858</ele>
        <time>2011-05-30T07:39:54Z</time>
      </trkpt>
      <trkpt lat="45.00965" lon="3.86736">
        <ele>858</ele>
        <time>2011-05-30T07:40:04Z</time>
      </trkpt>
      <trkpt lat="45.00953" lon="3.8673">
        <ele>858</ele>
        <time>2011-05-30T07:40:14Z</time>
      </trkpt>
      <trkpt lat="45.00941" lon="3.86724">
        <ele>858</ele>
        <time>2011-05-30T07:40:24Z</time>
      </trkpt>
      <trkpt lat="45.00929" lon="3.86717">
        <ele>858</ele>
        <time>2011-05-30T07:40:34Z</time>
      </trkpt>
      <trkpt lat="45.00917" lon="3.86711">
        <ele>858</ele>
        <time>2011-05-30T07:40:44Z</time>
      </trkpt>
      <trkpt lat="45.00905" lon="3.86705">
        <ele>858</ele>
        <time>2011-05-30T07:40:54Z</time>
      </trkpt>
      <trkpt lat="45.00893" lon="3.86699">
        <ele>859</ele>
        <time>2011-05-30T07:41:04Z</time>
      </trkpt>
      <trkpt lat="45.00882" lon="3.86691">
        <ele>859</ele>
        <time>2011-05-30T07:41:14Z</time>
      </trkpt>
      <trkpt lat="45.00871" lon="3.86685">
        <ele>860</ele>
        <time>2011-05-30T07:41:24Z</time>
      </trkpt>
      <trkpt lat="45.00859" lon="3.8668">
        <ele>861</ele>
        <time>2011-05-30T07:41:34Z</time>
      </trkpt>
      <trkpt lat="45.00848" lon="3.86673">
        <ele>861</ele>
        <time>2011-05-30T07:41:44Z</time>
      </trkpt>
      <trkpt lat="45.00836" lon="3.86667">
        <ele>861</ele>
        <time>2011-05-30T07:41:54Z</time>
      </trkpt>
      <trkpt lat="45.00824" lon="3.86661">
        <ele>861</ele>
        <time>2011-05-30T07:42:04Z</time>
      </trkpt>
      <trkpt lat="45.00813" lon="3.86655">
        <ele>862</ele>
        <time>2011-05-30T07:42:14Z</time>
      </trkpt>
      <trkpt lat="45.00801" lon="3.86649">
        <ele>862</ele>
        <time>2011-05-30T07:42:24Z</time>
      </trkpt>
      <trkpt lat="45.0079" lon="3.86643">
        <ele>862</ele>
        <time>2011-05-30T07:42:34Z</time>
      </trkpt>
      <trkpt lat="45.00779" lon="3.86637">
        <ele>863</ele>
        <time>2011-05-30T07:42:44Z</time>
      </trkpt>
      <trkpt lat="45.00767" lon="3.8663">
        <ele>864</ele>
        <time>2011-05-30T07:42:54Z</time>
      </trkpt>
      <trkpt lat="45.00755" lon="3.86623">
        <ele>864</ele>
        <time>2011-05-30T07:43:04Z</time>
      </trkpt>
      <trkpt lat="45.00744" lon="3.86614">
        <ele>864</ele>
        <time>2011-05-30T07:43:14Z</time>
      </trkpt>
      <trkpt lat="45.00732" lon="3.86605">
        <ele>864</ele>
        <time>2011-05-30T07:43:24Z</time>
      </trkpt>
      <trkpt lat="45.0072" lon="3.86596">
        <ele>864</ele>
        <time>2011-05-30T07:43:34Z</time>
      </trkpt>
      <trkpt lat="45.00708" lon="3.86587">
        <ele>864</ele>
        <time>2011-05-30T07:43:44Z</time>
      </trkpt>
      <trkpt lat="45.00698" lon="3.86577">
        <ele>864</ele>
        <time>2011-05-30T07:43:54Z</time>
      </trkpt>
      <trkpt lat="45.00687" lon="3.86567">
        <ele>864</ele>
        <time>2011-05-30T07:44:04Z</time>
      </trkpt>
      <trkpt lat="45.00677" lon="3.86557">
        <ele>864</ele>
        <time>2011-05-30T07:44:14Z</time>
      </trkpt>
      <trkpt lat="45.00666" lon="3.86547">
        <ele>864</ele>
        <time>2011-05-30T07:44:25Z</time>
      </trkpt>
      <trkpt lat="45.00658" lon="3.86542">
        <ele>864</ele>
        <time>2011-05-30T07:44:41Z</time>
      </trkpt>
      <trkpt lat="45.00648" lon="3.86531">
        <ele>864</ele>
        <time>2011-05-30T07:44:51Z</time>
      </trkpt>
      <trkpt lat="45.00637" lon="3.86519">
        <ele>864</ele>
        <time>2011-05-30T07:45:02Z</time>
      </trkpt>
      <trkpt lat="45.00628" lon="3.86507">
        <ele>864</ele>
        <time>2011-05-30T07:45:12Z</time>
      </trkpt>
      <trkpt lat="45.00618" lon="3.86495">
        <ele>864</ele>
        <time>2011-05-30T07:45:22Z</time>
      </trkpt>
      <trkpt lat="45.00608" lon="3.86484">
        <ele>864</ele>
        <time>2011-05-30T07:45:32Z</time>
      </trkpt>
      <trkpt lat="45.00598" lon="3.86473">
        <ele>864</ele>
        <time>2011-05-30T07:45:42Z</time>
      </trkpt>
      <trkpt lat="45.00589" lon="3.86462">
        <ele>864</ele>
        <time>2011-05-30T07:45:52Z</time>
      </trkpt>
      <trkpt lat="45.0058" lon="3.86451">
        <ele>864</ele>
        <time>2011-05-30T07:46:02Z</time>
      </trkpt>
      <trkpt lat="45.00571" lon="3.8644">
        <ele>864</ele>
        <time>2011-05-30T07:46:12Z</time>
      </trkpt>
      <trkpt lat="45.00561" lon="3.8643">
        <ele>864</ele>
        <time>2011-05-30T07:46:22Z</time>
      </trkpt>
      <trkpt lat="45.00552" lon="3.86419">
        <ele>864</ele>
        <time>2011-05-30T07:46:32Z</time>
      </trkpt>
      <trkpt lat="45.00542" lon="3.86406">
        <ele>864</ele>
        <time>2011-05-30T07:46:43Z</time>
      </trkpt>
      <trkpt lat="45.00532" lon="3.86396">
        <ele>864</ele>
        <time>2011-05-30T07:46:53Z</time>
      </trkpt>
      <trkpt lat="45.00522" lon="3.86385">
        <ele>864</ele>
        <time>2011-05-30T07:47:04Z</time>
      </trkpt>
      <trkpt lat="45.00513" lon="3.86372">
        <ele>864</ele>
        <time>2011-05-30T07:47:14Z</time>
      </trkpt>
      <trkpt lat="45.00504" lon="3.86362">
        <ele>865</ele>
        <time>2011-05-30T07:47:24Z</time>
      </trkpt>
      <trkpt lat="45.00502" lon="3.86359">
        <ele>867</ele>
        <time>2011-05-30T07:47:42Z</time>
      </trkpt>
      <trkpt lat="45.00494" lon="3.86351">
        <ele>867</ele>
        <time>2011-05-30T07:47:52Z</time>
      </trkpt>
      <trkpt lat="45.00483" lon="3.86342">
        <ele>867</ele>
        <time>2011-05-30T07:48:02Z</time>
      </trkpt>
      <trkpt lat="45.00472" lon="3.86333">
        <ele>867</ele>
        <time>2011-05-30T07:48:13Z</time>
      </trkpt>
      <trkpt lat="45.00462" lon="3.86326">
        <ele>867</ele>
        <time>2011-05-30T07:48:23Z</time>
      </trkpt>
      <trkpt lat="45.00451" lon="3.86318">
        <ele>867</ele>
        <time>2011-05-30T07:48:34Z</time>
      </trkpt>
      <trkpt lat="45.00441" lon="3.86308">
        <ele>867</ele>
        <time>2011-05-30T07:48:44Z</time>
      </trkpt>
      <trkpt lat="45.00431" lon="3.86298">
        <ele>867</ele>
        <time>2011-05-30T07:48:55Z</time>
      </trkpt>
      <trkpt lat="45.00418" lon="3.86289">
        <ele>867</ele>
        <time>2011-05-30T07:49:07Z</time>
      </trkpt>
      <trkpt lat="45.00405" lon="3.86278">
        <ele>867</ele>
        <time>2011-05-30T07:49:19Z</time>
      </trkpt>
      <trkpt lat="45.00397" lon="3.86266">
        <ele>867</ele>
        <time>2011-05-30T07:49:30Z</time>
      </trkpt>
      <trkpt lat="45.00389" lon="3.86266">
        <ele>867</ele>
        <time>2011-05-30T07:49:40Z</time>
      </trkpt>
      <trkpt lat="45.00385" lon="3.86268">
        <ele>867</ele>
        <time>2011-05-30T07:49:51Z</time>
      </trkpt>
      <trkpt lat="45.00378" lon="3.86262">
        <ele>867</ele>
        <time>2011-05-30T07:50:06Z</time>
      </trkpt>
      <trkpt lat="45.00368" lon="3.86255">
        <ele>867</ele>
        <time>2011-05-30T07:50:33Z</time>
      </trkpt>
      <trkpt lat="45.00359" lon="3.86246">
        <ele>867</ele>
        <time>2011-05-30T07:50:44Z</time>
      </trkpt>
      <trkpt lat="45.00347" lon="3.86236">
        <ele>868</ele>
        <time>2011-05-30T07:50:56Z</time>
      </trkpt>
      <trkpt lat="45.00337" lon="3.86226">
        <ele>869</ele>
        <time>2011-05-30T07:51:06Z</time>
      </trkpt>
      <trkpt lat="45.00326" lon="3.86217">
        <ele>869</ele>
        <time>2011-05-30T07:51:16Z</time>
      </trkpt>
      <trkpt lat="45.00315" lon="3.86206">
        <ele>869</ele>
        <time>2011-05-30T07:51:27Z</time>
      </trkpt>
      <trkpt lat="45.00304" lon="3.86194">
        <ele>869</ele>
        <time>2011-05-30T07:51:38Z</time>
      </trkpt>
      <trkpt lat="45.00293" lon="3.86185">
        <ele>869</ele>
        <time>2011-05-30T07:51:48Z</time>
      </trkpt>
      <trkpt lat="45.00281" lon="3.86175">
        <ele>870</ele>
        <time>2011-05-30T07:51:59Z</time>
      </trkpt>
      <trkpt lat="45.00271" lon="3.86164">
        <ele>870</ele>
        <time>2011-05-30T07:52:09Z</time>
      </trkpt>
      <trkpt lat="45.00259" lon="3.8615">
        <ele>870</ele>
        <time>2011-05-30T07:52:21Z</time>
      </trkpt>
      <trkpt lat="45.00247" lon="3.86137">
        <ele>870</ele>
        <time>2011-05-30T07:52:33Z</time>
      </trkpt>
      <trkpt lat="45.00235" lon="3.86123">
        <ele>870</ele>
        <time>2011-05-30T07:52:45Z</time>
      </trkpt>
      <trkpt lat="45.00223" lon="3.86108">
        <ele>870</ele>
        <time>2011-05-30T07:52:57Z</time>
      </trkpt>
      <trkpt lat="45.00212" lon="3.86094">
        <ele>870</ele>
        <time>2011-05-30T07:53:08Z</time>
      </trkpt>
      <trkpt lat="45.00202" lon="3.86082">
        <ele>870</ele>
        <time>2011-05-30T07:53:18Z</time>
      </trkpt>
      <trkpt lat="45.00189" lon="3.86068">
        <ele>870</ele>
        <time>2011-05-30T07:53:30Z</time>
      </trkpt>
      <trkpt lat="45.00178" lon="3.86056">
        <ele>870</ele>
        <time>2011-05-30T07:53:41Z</time>
      </trkpt>
      <trkpt lat="45.00168" lon="3.86042">
        <ele>870</ele>
        <time>2011-05-30T07:53:52Z</time>
      </trkpt>
      <trkpt lat="45.00157" lon="3.86029">
        <ele>870</ele>
        <time>2011-05-30T07:54:03Z</time>
      </trkpt>
      <trkpt lat="45.00147" lon="3.86015">
        <ele>870</ele>
        <time>2011-05-30T07:54:14Z</time>
      </trkpt>
      <trkpt lat="45.00139" lon="3.86002">
        <ele>870</ele>
        <time>2011-05-30T07:54:24Z</time>
      </trkpt>
      <trkpt lat="45.00129" lon="3.85988">
        <ele>870</ele>
        <time>2011-05-30T07:54:35Z</time>
      </trkpt>
      <trkpt lat="45.0012" lon="3.85978">
        <ele>870</ele>
        <time>2011-05-30T07:54:45Z</time>
      </trkpt>
      <trkpt lat="45.00109" lon="3.85964">
        <ele>870</ele>
        <time>2011-05-30T07:54:57Z</time>
      </trkpt>
      <trkpt lat="45.00098" lon="3.85952">
        <ele>870</ele>
        <time>2011-05-30T07:55:08Z</time>
      </trkpt>
      <trkpt lat="45.00085" lon="3.8594">
        <ele>870</ele>
        <time>2011-05-30T07:55:20Z</time>
      </trkpt>
      <trkpt lat="45.00074" lon="3.85929">
        <ele>869</ele>
        <time>2011-05-30T07:55:31Z</time>
      </trkpt>
      <trkpt lat="45.00062" lon="3.8592">
        <ele>867</ele>
        <time>2011-05-30T07:55:42Z</time>
      </trkpt>
      <trkpt lat="45.00051" lon="3.85908">
        <ele>866</ele>
        <time>2011-05-30T07:55:53Z</time>
      </trkpt>
      <trkpt lat="45.00039" lon="3.85896">
        <ele>866</ele>
        <time>2011-05-30T07:56:05Z</time>
      </trkpt>
      <trkpt lat="45.00029" lon="3.85883">
        <ele>866</ele>
        <time>2011-05-30T07:56:15Z</time>
      </trkpt>
      <trkpt lat="45.0002" lon="3.85868">
        <ele>866</ele>
        <time>2011-05-30T07:56:26Z</time>
      </trkpt>
      <trkpt lat="45.00012" lon="3.85854">
        <ele>865</ele>
        <time>2011-05-30T07:56:36Z</time>
      </trkpt>
      <trkpt lat="45.00006" lon="3.85843">
        <ele>864</ele>
        <time>2011-05-30T07:56:56Z</time>
      </trkpt>
      <trkpt lat="45.00009" lon="3.85847">
        <ele>864</ele>
        <time>2011-05-30T07:57:08Z</time>
      </trkpt>
      <trkpt lat="45.00006" lon="3.85842">
        <ele>862</ele>
        <time>2011-05-30T07:57:20Z</time>
      </trkpt>
      <trkpt lat="45.00006" lon="3.85842">
        <ele>862</ele>
        <time>2011-05-30T07:57:40Z</time>
      </trkpt>
      <trkpt lat="45.00006" lon="3.85844">
        <ele>862</ele>
        <time>2011-05-30T07:58:18Z</time>
      </trkpt>
      <trkpt lat="45.00005" lon="3.85842">
        <ele>862</ele>
        <time>2011-05-30T07:59:43Z</time>
      </trkpt>
      <trkpt lat="45.00005" lon="3.85841">
        <ele>862</ele>
        <time>2011-05-30T08:00:29Z</time>
      </trkpt>
      <trkpt lat="45.00004" lon="3.85839">
        <ele>863</ele>
        <time>2011-05-30T08:01:00Z</time>
      </trkpt>
      <trkpt lat="45.00003" lon="3.85836">
        <ele>863</ele>
        <time>2011-05-30T08:01:13Z</time>
      </trkpt>
      <trkpt lat="45.00002" lon="3.85834">
        <ele>863</ele>
        <time>2011-05-30T08:01:25Z</time>
      </trkpt>
      <trkpt lat="45" lon="3.85833">
        <ele>863</ele>
        <time>2011-05-30T08:01:50Z</time>
      </trkpt>
      <trkpt lat="44.99996" lon="3.85821">
        <ele>863</ele>
        <time>2011-05-30T08:02:00Z</time>
      </trkpt>
      <trkpt lat="44.99992" lon="3.85808">
        <ele>863</ele>
        <time>2011-05-30T08:02:10Z</time>
      </trkpt>
      <trkpt lat="44.99989" lon="3.85796">
        <ele>863</ele>
        <time>2011-05-30T08:02:20Z</time>
      </trkpt>
      <trkpt lat="44.99984" lon="3.85783">
        <ele>863</ele>
        <time>2011-05-30T08:02:30Z</time>
      </trkpt>
      <trkpt lat="44.99975" lon="3.85776">
        <ele>863</ele>
        <time>2011-05-30T08:02:40Z</time>
      </trkpt>
      <trkpt lat="44.99964" lon="3.85774">
        <ele>863</ele>
        <time>2011-05-30T08:02:51Z</time>
      </trkpt>
      <trkpt lat="44.99952" lon="3.85772">
        <ele>863</ele>
        <time>2011-05-30T08:03:01Z</time>
      </trkpt>
      <trkpt lat="44.99939" lon="3.85772">
        <ele>863</ele>
        <time>2011-05-30T08:03:13Z</time>
      </trkpt>
      <trkpt lat="44.99926" lon="3.85772">
        <ele>862</ele>
        <time>2011-05-30T08:03:24Z</time>
      </trkpt>
      <trkpt lat="44.99913" lon="3.85769">
        <ele>862</ele>
        <time>2011-05-30T08:03:35Z</time>
      </trkpt>
      <trkpt lat="44.99902" lon="3.85766">
        <ele>862</ele>
        <time>2011-05-30T08:03:45Z</time>
      </trkpt>
      <trkpt lat="44.99889" lon="3.85763">
        <ele>862</ele>
        <time>2011-05-30T08:03:56Z</time>
      </trkpt>
      <trkpt lat="44.99876" lon="3.85761">
        <ele>862</ele>
        <time>2011-05-30T08:04:07Z</time>
      </trkpt>
      <trkpt lat="44.99864" lon="3.85759">
        <ele>862</ele>
        <time>2011-05-30T08:04:17Z</time>
      </trkpt>
      <trkpt lat="44.9985" lon="3.85754">
        <ele>862</ele>
        <time>2011-05-30T08:04:29Z</time>
      </trkpt>
      <trkpt lat="44.99839" lon="3.85751">
        <ele>862</ele>
        <time>2011-05-30T08:04:39Z</time>
      </trkpt>
      <trkpt lat="44.99827" lon="3.85748">
        <ele>862</ele>
        <time>2011-05-30T08:04:49Z</time>
      </trkpt>
      <trkpt lat="44.99815" lon="3.85744">
        <ele>863</ele>
        <time>2011-05-30T08:04:59Z</time>
      </trkpt>
      <trkpt lat="44.99804" lon="3.85739">
        <ele>863</ele>
        <time>2011-05-30T08:05:09Z</time>
      </trkpt>
      <trkpt lat="44.99792" lon="3.85736">
        <ele>863</ele>
        <time>2011-05-30T08:05:19Z</time>
      </trkpt>
      <trkpt lat="44.9978" lon="3.85733">
        <ele>864</ele>
        <time>2011-05-30T08:05:29Z</time>
      </trkpt>
      <trkpt lat="44.99767" lon="3.85729">
        <ele>865</ele>
        <time>2011-05-30T08:05:40Z</time>
      </trkpt>
      <trkpt lat="44.99755" lon="3.85726">
        <ele>865</ele>
        <time>2011-05-30T08:05:50Z</time>
      </trkpt>
      <trkpt lat="44.99742" lon="3.85723">
        <ele>865</ele>
        <time>2011-05-30T08:06:01Z</time>
      </trkpt>
      <trkpt lat="44.99729" lon="3.85723">
        <ele>866</ele>
        <time>2011-05-30T08:06:11Z</time>
      </trkpt>
      <trkpt lat="44.99717" lon="3.85721">
        <ele>866</ele>
        <time>2011-05-30T08:06:21Z</time>
      </trkpt>
      <trkpt lat="44.99706" lon="3.85724">
        <ele>866</ele>
        <time>2011-05-30T08:06:31Z</time>
      </trkpt>
      <trkpt lat="44.99694" lon="3.85728">
        <ele>866</ele>
        <time>2011-05-30T08:06:41Z</time>
      </trkpt>
      <trkpt lat="44.99681" lon="3.85726">
        <ele>867</ele>
        <time>2011-05-30T08:06:52Z</time>
      </trkpt>
      <trkpt lat="44.99668" lon="3.85725">
        <ele>869</ele>
        <time>2011-05-30T08:07:02Z</time>
      </trkpt>
      <trkpt lat="44.99656" lon="3.85723">
        <ele>871</ele>
        <time>2011-05-30T08:07:12Z</time>
      </trkpt>
      <trkpt lat="44.99643" lon="3.85723">
        <ele>872</ele>
        <time>2011-05-30T08:07:22Z</time>
      </trkpt>
      <trkpt lat="44.99632" lon="3.85721">
        <ele>873</ele>
        <time>2011-05-30T08:07:32Z</time>
      </trkpt>
      <trkpt lat="44.99621" lon="3.85719">
        <ele>873</ele>
        <time>2011-05-30T08:07:42Z</time>
      </trkpt>
      <trkpt lat="44.99609" lon="3.85717">
        <ele>873</ele>
        <time>2011-05-30T08:07:52Z</time>
      </trkpt>
      <trkpt lat="44.99596" lon="3.85715">
        <ele>873</ele>
        <time>2011-05-30T08:08:03Z</time>
      </trkpt>
      <trkpt lat="44.99585" lon="3.85712">
        <ele>874</ele>
        <time>2011-05-30T08:08:13Z</time>
      </trkpt>
      <trkpt lat="44.99572" lon="3.85708">
        <ele>875</ele>
        <time>2011-05-30T08:08:24Z</time>
      </trkpt>
      <trkpt lat="44.9956" lon="3.85703">
        <ele>876</ele>
        <time>2011-05-30T08:08:34Z</time>
      </trkpt>
      <trkpt lat="44.99546" lon="3.85699">
        <ele>877</ele>
        <time>2011-05-30T08:08:45Z</time>
      </trkpt>
      <trkpt lat="44.99534" lon="3.85695">
        <ele>879</ele>
        <time>2011-05-30T08:08:55Z</time>
      </trkpt>
      <trkpt lat="44.99522" lon="3.8569">
        <ele>879</ele>
        <time>2011-05-30T08:09:05Z</time>
      </trkpt>
      <trkpt lat="44.9951" lon="3.85686">
        <ele>879</ele>
        <time>2011-05-30T08:09:15Z</time>
      </trkpt>
      <trkpt lat="44.99498" lon="3.8568">
        <ele>881</ele>
        <time>2011-05-30T08:09:26Z</time>
      </trkpt>
      <trkpt lat="44.99485" lon="3.85677">
        <ele>882</ele>
        <time>2011-05-30T08:09:36Z</time>
      </trkpt>
      <trkpt lat="44.99472" lon="3.85672">
        <ele>885</ele>
        <time>2011-05-30T08:09:47Z</time>
      </trkpt>
      <trkpt lat="44.9946" lon="3.85664">
        <ele>886</ele>
        <time>2011-05-30T08:09:57Z</time>
      </trkpt>
      <trkpt lat="44.9945" lon="3.85658">
        <ele>887</ele>
        <time>2011-05-30T08:10:07Z</time>
      </trkpt>
      <trkpt lat="44.99441" lon="3.85652">
        <ele>889</ele>
        <time>2011-05-30T08:10:17Z</time>
      </trkpt>
      <trkpt lat="44.9943" lon="3.85646">
        <ele>889</ele>
        <time>2011-05-30T08:10:27Z</time>
      </trkpt>
      <trkpt lat="44.99421" lon="3.85642">
        <ele>890</ele>
        <time>2011-05-30T08:10:37Z</time>
      </trkpt>
      <trkpt lat="44.99413" lon="3.85641">
        <ele>893</ele>
        <time>2011-05-30T08:10:47Z</time>
      </trkpt>
      <trkpt lat="44.99401" lon="3.85641">
        <ele>894</ele>
        <time>2011-05-30T08:10:57Z</time>
      </trkpt>
      <trkpt lat="44.99391" lon="3.85641">
        <ele>894</ele>
        <time>2011-05-30T08:11:07Z</time>
      </trkpt>
      <trkpt lat="44.99378" lon="3.85639">
        <ele>896</ele>
        <time>2011-05-30T08:11:18Z</time>
      </trkpt>
      <trkpt lat="44.99366" lon="3.85638">
        <ele>896</ele>
        <time>2011-05-30T08:11:29Z</time>
      </trkpt>
      <trkpt lat="44.99354" lon="3.8564">
        <ele>895</ele>
        <time>2011-05-30T08:11:39Z</time>
      </trkpt>
      <trkpt lat="44.99341" lon="3.85642">
        <ele>895</ele>
        <time>2011-05-30T08:11:50Z</time>
      </trkpt>
      <trkpt lat="44.99329" lon="3.85644">
        <ele>895</ele>
        <time>2011-05-30T08:12:00Z</time>
      </trkpt>
      <trkpt lat="44.99318" lon="3.85646">
        <ele>895</ele>
        <time>2011-05-30T08:12:10Z</time>
      </trkpt>
      <trkpt lat="44.99305" lon="3.85647">
        <ele>899</ele>
        <time>2011-05-30T08:12:21Z</time>
      </trkpt>
      <trkpt lat="44.99293" lon="3.85646">
        <ele>899</ele>
        <time>2011-05-30T08:12:31Z</time>
      </trkpt>
      <trkpt lat="44.99281" lon="3.85644">
        <ele>899</ele>
        <time>2011-05-30T08:12:41Z</time>
      </trkpt>
      <trkpt lat="44.99268" lon="3.85641">
        <ele>899</ele>
        <time>2011-05-30T08:12:51Z</time>
      </trkpt>
      <trkpt lat="44.99255" lon="3.85641">
        <ele>899</ele>
        <time>2011-05-30T08:13:01Z</time>
      </trkpt>
      <trkpt lat="44.99243" lon="3.85641">
        <ele>900</ele>
        <time>2011-05-30T08:13:11Z</time>
      </trkpt>
      <trkpt lat="44.99231" lon="3.85639">
        <ele>900</ele>
        <time>2011-05-30T08:13:21Z</time>
      </trkpt>
      <trkpt lat="44.99218" lon="3.85637">
        <ele>900</ele>
        <time>2011-05-30T08:13:31Z</time>
      </trkpt>
      <trkpt lat="44.99206" lon="3.85636">
        <ele>900</ele>
        <time>2011-05-30T08:13:41Z</time>
      </trkpt>
      <trkpt lat="44.99194" lon="3.85634">
        <ele>900</ele>
        <time>2011-05-30T08:13:51Z</time>
      </trkpt>
      <trkpt lat="44.99181" lon="3.85631">
        <ele>900</ele>
        <time>2011-05-30T08:14:01Z</time>
      </trkpt>
      <trkpt lat="44.99169" lon="3.85628">
        <ele>901</ele>
        <time>2011-05-30T08:14:11Z</time>
      </trkpt>
      <trkpt lat="44.99157" lon="3.85625">
        <ele>901</ele>
        <time>2011-05-30T08:14:21Z</time>
      </trkpt>
      <trkpt lat="44.99144" lon="3.85621">
        <ele>901</ele>
        <time>2011-05-30T08:14:31Z</time>
      </trkpt>
      <trkpt lat="44.99131" lon="3.85618">
        <ele>901</ele>
        <time>2011-05-30T08:14:41Z</time>
      </trkpt>
      <trkpt lat="44.99119" lon="3.85615">
        <ele>901</ele>
        <time>2011-05-30T08:14:51Z</time>
      </trkpt>
      <trkpt lat="44.99107" lon="3.85614">
        <ele>901</ele>
        <time>2011-05-30T08:15:01Z</time>
      </trkpt>
      <trkpt lat="44.99095" lon="3.85614">
        <ele>901</ele>
        <time>2011-05-30T08:15:11Z</time>
      </trkpt>
      <trkpt lat="44.99083" lon="3.85617">
        <ele>901</ele>
        <time>2011-05-30T08:15:21Z</time>
      </trkpt>
      <trkpt lat="44.99071" lon="3.85618">
        <ele>901</ele>
        <time>2011-05-30T08:15:31Z</time>
      </trkpt>
      <trkpt lat="44.99059" lon="3.85618">
        <ele>901</ele>
        <time>2011-05-30T08:15:41Z</time>
      </trkpt>
      <trkpt lat="44.99047" lon="3.85618">
        <ele>901</ele>
        <time>2011-05-30T08:15:51Z</time>
      </trkpt>
      <trkpt lat="44.99035" lon="3.85617">
        <ele>901</ele>
        <time>2011-05-30T08:16:01Z</time>
      </trkpt>
      <trkpt lat="44.99023" lon="3.85615">
        <ele>901</ele>
        <time>2011-05-30T08:16:12Z</time>
      </trkpt>
      <trkpt lat="44.99011" lon="3.85614">
        <ele>901</ele>
        <time>2011-05-30T08:16:22Z</time>
      </trkpt>
      <trkpt lat="44.98999" lon="3.85613">
        <ele>903</ele>
        <time>2011-05-30T08:16:32Z</time>
      </trkpt>
      <trkpt lat="44.98988" lon="3.85613">
        <ele>904</ele>
        <time>2011-05-30T08:16:42Z</time>
      </trkpt>
      <trkpt lat="44.98975" lon="3.85613">
        <ele>906</ele>
        <time>2011-05-30T08:16:52Z</time>
      </trkpt>
      <trkpt lat="44.98963" lon="3.85613">
        <ele>906</ele>
        <time>2011-05-30T08:17:03Z</time>
      </trkpt>
      <trkpt lat="44.98951" lon="3.85614">
        <ele>907</ele>
        <time>2011-05-30T08:17:13Z</time>
      </trkpt>
      <trkpt lat="44.98938" lon="3.85613">
        <ele>908</ele>
        <time>2011-05-30T08:17:24Z</time>
      </trkpt>
      <trkpt lat="44.98926" lon="3.85614">
        <ele>908</ele>
        <time>2011-05-30T08:17:34Z</time>
      </trkpt>
      <trkpt lat="44.98913" lon="3.85614">
        <ele>909</ele>
        <time>2011-05-30T08:17:45Z</time>
      </trkpt>
      <trkpt lat="44.98901" lon="3.85614">
        <ele>911</ele>
        <time>2011-05-30T08:17:55Z</time>
      </trkpt>
      <trkpt lat="44.9889" lon="3.85615">
        <ele>913</ele>
        <time>2011-05-30T08:18:05Z</time>
      </trkpt>
      <trkpt lat="44.98879" lon="3.85616">
        <ele>914</ele>
        <time>2011-05-30T08:18:15Z</time>
      </trkpt>
      <trkpt lat="44.98867" lon="3.85615">
        <ele>915</ele>
        <time>2011-05-30T08:18:26Z</time>
      </trkpt>
      <trkpt lat="44.98856" lon="3.85614">
        <ele>916</ele>
        <time>2011-05-30T08:18:36Z</time>
      </trkpt>
      <trkpt lat="44.98845" lon="3.85615">
        <ele>917</ele>
        <time>2011-05-30T08:18:46Z</time>
      </trkpt>
      <trkpt lat="44.98834" lon="3.85613">
        <ele>918</ele>
        <time>2011-05-30T08:18:56Z</time>
      </trkpt>
      <trkpt lat="44.98822" lon="3.85613">
        <ele>919</ele>
        <time>2011-05-30T08:19:06Z</time>
      </trkpt>
      <trkpt lat="44.98811" lon="3.85611">
        <ele>919</ele>
        <time>2011-05-30T08:19:16Z</time>
      </trkpt>
      <trkpt lat="44.988" lon="3.85606">
        <ele>920</ele>
        <time>2011-05-30T08:19:26Z</time>
      </trkpt>
      <trkpt lat="44.9879" lon="3.85603">
        <ele>920</ele>
        <time>2011-05-30T08:19:36Z</time>
      </trkpt>
      <trkpt lat="44.98774" lon="3.85604">
        <ele>920</ele>
        <time>2011-05-30T08:19:47Z</time>
      </trkpt>
      <trkpt lat="44.98763" lon="3.85601">
        <ele>920</ele>
        <time>2011-05-30T08:19:57Z</time>
      </trkpt>
      <trkpt lat="44.9875" lon="3.85598">
        <ele>930</ele>
        <time>2011-05-30T08:20:12Z</time>
      </trkpt>
      <trkpt lat="44.98742" lon="3.85593">
        <ele>933</ele>
        <time>2011-05-30T08:20:23Z</time>
      </trkpt>
      <trkpt lat="44.98731" lon="3.85589">
        <ele>933</ele>
        <time>2011-05-30T08:20:33Z</time>
      </trkpt>
      <trkpt lat="44.98717" lon="3.85586">
        <ele>933</ele>
        <time>2011-05-30T08:20:45Z</time>
      </trkpt>
      <trkpt lat="44.98703" lon="3.85577">
        <ele>931</ele>
        <time>2011-05-30T08:20:57Z</time>
      </trkpt>
      <trkpt lat="44.98682" lon="3.85571">
        <ele>928</ele>
        <time>2011-05-30T08:21:20Z</time>
      </trkpt>
      <trkpt lat="44.98664" lon="3.85575">
        <ele>929</ele>
        <time>2011-05-30T08:21:32Z</time>
      </trkpt>
      <trkpt lat="44.98653" lon="3.8557">
        <ele>931</ele>
        <time>2011-05-30T08:21:42Z</time>
      </trkpt>
      <trkpt lat="44.98642" lon="3.8557">
        <ele>931</ele>
        <time>2011-05-30T08:21:52Z</time>
      </trkpt>
      <trkpt lat="44.98629" lon="3.85558">
        <ele>933</ele>
        <time>2011-05-30T08:22:02Z</time>
      </trkpt>
      <trkpt lat="44.98618" lon="3.85554">
        <ele>933</ele>
        <time>2011-05-30T08:22:13Z</time>
      </trkpt>
      <trkpt lat="44.98606" lon="3.85548">
        <ele>935</ele>
        <time>2011-05-30T08:22:24Z</time>
      </trkpt>
      <trkpt lat="44.98595" lon="3.85544">
        <ele>937</ele>
        <time>2011-05-30T08:22:34Z</time>
      </trkpt>
      <trkpt lat="44.98585" lon="3.85538">
        <ele>937</ele>
        <time>2011-05-30T08:22:46Z</time>
      </trkpt>
      <trkpt lat="44.98549" lon="3.85526">
        <ele>937</ele>
        <time>2011-05-30T08:23:19Z</time>
      </trkpt>
      <trkpt lat="44.98534" lon="3.85522">
        <ele>937</ele>
        <time>2011-05-30T08:23:30Z</time>
      </trkpt>
      <trkpt lat="44.98526" lon="3.8552">
        <ele>940</ele>
        <time>2011-05-30T08:23:41Z</time>
      </trkpt>
      <trkpt lat="44.98528" lon="3.85517">
        <ele>941</ele>
        <time>2011-05-30T08:23:53Z</time>
      </trkpt>
      <trkpt lat="44.98528" lon="3.85516">
        <ele>941</ele>
        <time>2011-05-30T08:24:04Z</time>
      </trkpt>
      <trkpt lat="44.9853" lon="3.85515">
        <ele>941</ele>
        <time>2011-05-30T08:24:32Z</time>
      </trkpt>
      <trkpt lat="44.98528" lon="3.85515">
        <ele>941</ele>
        <time>2011-05-30T08:24:54Z</time>
      </trkpt>
      <trkpt lat="44.98516" lon="3.85513">
        <ele>941</ele>
        <time>2011-05-30T08:25:05Z</time>
      </trkpt>
      <trkpt lat="44.98505" lon="3.85512">
        <ele>941</ele>
        <time>2011-05-30T08:25:15Z</time>
      </trkpt>
      <trkpt lat="44.98494" lon="3.85512">
        <ele>941</ele>
        <time>2011-05-30T08:25:25Z</time>
      </trkpt>
      <trkpt lat="44.98482" lon="3.85513">
        <ele>942</ele>
        <time>2011-05-30T08:25:35Z</time>
      </trkpt>
      <trkpt lat="44.98471" lon="3.85515">
        <ele>943</ele>
        <time>2011-05-30T08:25:45Z</time>
      </trkpt>
      <trkpt lat="44.98458" lon="3.8552">
        <ele>946</ele>
        <time>2011-05-30T08:25:56Z</time>
      </trkpt>
      <trkpt lat="44.98449" lon="3.8552">
        <ele>955</ele>
        <time>2011-05-30T08:26:08Z</time>
      </trkpt>
      <trkpt lat="44.98436" lon="3.8552">
        <ele>955</ele>
        <time>2011-05-30T08:26:18Z</time>
      </trkpt>
      <trkpt lat="44.98427" lon="3.85521">
        <ele>955</ele>
        <time>2011-05-30T08:26:28Z</time>
      </trkpt>
      <trkpt lat="44.98416" lon="3.85524">
        <ele>955</ele>
        <time>2011-05-30T08:26:39Z</time>
      </trkpt>
      <trkpt lat="44.98407" lon="3.85525">
        <ele>955</ele>
        <time>2011-05-30T08:26:50Z</time>
      </trkpt>
      <trkpt lat="44.98398" lon="3.85533">
        <ele>954</ele>
        <time>2011-05-30T08:27:01Z</time>
      </trkpt>
      <trkpt lat="44.98384" lon="3.85537">
        <ele>951</ele>
        <time>2011-05-30T08:27:11Z</time>
      </trkpt>
      <trkpt lat="44.98377" lon="3.85544">
        <ele>949</ele>
        <time>2011-05-30T08:27:21Z</time>
      </trkpt>
      <trkpt lat="44.98368" lon="3.85547">
        <ele>951</ele>
        <time>2011-05-30T08:27:31Z</time>
      </trkpt>
      <trkpt lat="44.98357" lon="3.85553">
        <ele>951</ele>
        <time>2011-05-30T08:27:42Z</time>
      </trkpt>
      <trkpt lat="44.98349" lon="3.85557">
        <ele>956</ele>
        <time>2011-05-30T08:27:52Z</time>
      </trkpt>
      <trkpt lat="44.9834" lon="3.85562">
        <ele>958</ele>
        <time>2011-05-30T08:28:03Z</time>
      </trkpt>
      <trkpt lat="44.98327" lon="3.85568">
        <ele>960</ele>
        <time>2011-05-30T08:28:13Z</time>
      </trkpt>
      <trkpt lat="44.98319" lon="3.85574">
        <ele>961</ele>
        <time>2011-05-30T08:28:23Z</time>
      </trkpt>
      <trkpt lat="44.98309" lon="3.85583">
        <ele>961</ele>
        <time>2011-05-30T08:28:33Z</time>
      </trkpt>
      <trkpt lat="44.98303" lon="3.85593">
        <ele>963</ele>
        <time>2011-05-30T08:28:43Z</time>
      </trkpt>
      <trkpt lat="44.98291" lon="3.856">
        <ele>963</ele>
        <time>2011-05-30T08:28:54Z</time>
      </trkpt>
      <trkpt lat="44.98281" lon="3.85607">
        <ele>964</ele>
        <time>2011-05-30T08:29:04Z</time>
      </trkpt>
      <trkpt lat="44.98267" lon="3.85613">
        <ele>966</ele>
        <time>2011-05-30T08:29:15Z</time>
      </trkpt>
      <trkpt lat="44.98255" lon="3.85614">
        <ele>968</ele>
        <time>2011-05-30T08:29:25Z</time>
      </trkpt>
      <trkpt lat="44.98244" lon="3.85613">
        <ele>970</ele>
        <time>2011-05-30T08:29:35Z</time>
      </trkpt>
      <trkpt lat="44.98232" lon="3.85611">
        <ele>971</ele>
        <time>2011-05-30T08:29:45Z</time>
      </trkpt>
      <trkpt lat="44.9822" lon="3.85606">
        <ele>971</ele>
        <time>2011-05-30T08:29:55Z</time>
      </trkpt>
      <trkpt lat="44.98208" lon="3.85601">
        <ele>971</ele>
        <time>2011-05-30T08:30:05Z</time>
      </trkpt>
      <trkpt lat="44.98196" lon="3.85598">
        <ele>971</ele>
        <time>2011-05-30T08:30:15Z</time>
      </trkpt>
      <trkpt lat="44.98183" lon="3.85595">
        <ele>971</ele>
        <time>2011-05-30T08:30:25Z</time>
      </trkpt>
      <trkpt lat="44.98171" lon="3.85592">
        <ele>971</ele>
        <time>2011-05-30T08:30:35Z</time>
      </trkpt>
      <trkpt lat="44.98159" lon="3.85589">
        <ele>971</ele>
        <time>2011-05-30T08:30:45Z</time>
      </trkpt>
      <trkpt lat="44.98146" lon="3.85588">
        <ele>971</ele>
        <time>2011-05-30T08:30:55Z</time>
      </trkpt>
      <trkpt lat="44.98134" lon="3.85587">
        <ele>971</ele>
        <time>2011-05-30T08:31:05Z</time>
      </trkpt>
      <trkpt lat="44.98121" lon="3.85586">
        <ele>971</ele>
        <time>2011-05-30T08:31:15Z</time>
      </trkpt>
      <trkpt lat="44.98109" lon="3.85584">
        <ele>972</ele>
        <time>2011-05-30T08:31:25Z</time>
      </trkpt>
      <trkpt lat="44.98096" lon="3.85584">
        <ele>972</ele>
        <time>2011-05-30T08:31:35Z</time>
      </trkpt>
      <trkpt lat="44.98085" lon="3.85582">
        <ele>972</ele>
        <time>2011-05-30T08:31:45Z</time>
      </trkpt>
      <trkpt lat="44.98073" lon="3.85581">
        <ele>973</ele>
        <time>2011-05-30T08:31:55Z</time>
      </trkpt>
      <trkpt lat="44.98061" lon="3.85579">
        <ele>973</ele>
        <time>2011-05-30T08:32:05Z</time>
      </trkpt>
      <trkpt lat="44.98049" lon="3.85578">
        <ele>973</ele>
        <time>2011-05-30T08:32:15Z</time>
      </trkpt>
      <trkpt lat="44.98037" lon="3.85576">
        <ele>973</ele>
        <time>2011-05-30T08:32:25Z</time>
      </trkpt>
      <trkpt lat="44.98026" lon="3.85572">
        <ele>975</ele>
        <time>2011-05-30T08:32:35Z</time>
      </trkpt>
      <trkpt lat="44.98014" lon="3.85568">
        <ele>976</ele>
        <time>2011-05-30T08:32:45Z</time>
      </trkpt>
      <trkpt lat="44.98002" lon="3.85565">
        <ele>976</ele>
        <time>2011-05-30T08:32:55Z</time>
      </trkpt>
      <trkpt lat="44.9799" lon="3.85561">
        <ele>976</ele>
        <time>2011-05-30T08:33:05Z</time>
      </trkpt>
      <trkpt lat="44.97979" lon="3.85558">
        <ele>976</ele>
        <time>2011-05-30T08:33:15Z</time>
      </trkpt>
      <trkpt lat="44.97967" lon="3.85555">
        <ele>976</ele>
        <time>2011-05-30T08:33:25Z</time>
      </trkpt>
      <trkpt lat="44.97955" lon="3.85552">
        <ele>976</ele>
        <time>2011-05-30T08:33:35Z</time>
      </trkpt>
      <trkpt lat="44.97943" lon="3.85549">
        <ele>976</ele>
        <time>2011-05-30T08:33:45Z</time>
      </trkpt>
      <trkpt lat="44.97931" lon="3.85546">
        <ele>976</ele>
        <time>2011-05-30T08:33:55Z</time>
      </trkpt>
      <trkpt lat="44.9792" lon="3.85542">
        <ele>976</ele>
        <time>2011-05-30T08:34:05Z</time>
      </trkpt>
      <trkpt lat="44.97908" lon="3.85538">
        <ele>976</ele>
        <time>2011-05-30T08:34:15Z</time>
      </trkpt>
      <trkpt lat="44.97896" lon="3.85533">
        <ele>976</ele>
        <time>2011-05-30T08:34:25Z</time>
      </trkpt>
      <trkpt lat="44.97884" lon="3.85526">
        <ele>976</ele>
        <time>2011-05-30T08:34:35Z</time>
      </trkpt>
      <trkpt lat="44.97874" lon="3.85518">
        <ele>976</ele>
        <time>2011-05-30T08:34:45Z</time>
      </trkpt>
      <trkpt lat="44.97863" lon="3.85509">
        <ele>976</ele>
        <time>2011-05-30T08:34:55Z</time>
      </trkpt>
      <trkpt lat="44.97852" lon="3.85503">
        <ele>976</ele>
        <time>2011-05-30T08:35:05Z</time>
      </trkpt>
      <trkpt lat="44.97841" lon="3.85497">
        <ele>976</ele>
        <time>2011-05-30T08:35:15Z</time>
      </trkpt>
      <trkpt lat="44.97831" lon="3.85483">
        <ele>976</ele>
        <time>2011-05-30T08:35:26Z</time>
      </trkpt>
      <trkpt lat="44.97821" lon="3.85474">
        <ele>976</ele>
        <time>2011-05-30T08:35:36Z</time>
      </trkpt>
      <trkpt lat="44.9781" lon="3.85464">
        <ele>976</ele>
        <time>2011-05-30T08:35:47Z</time>
      </trkpt>
      <trkpt lat="44.978" lon="3.85455">
        <ele>976</ele>
        <time>2011-05-30T08:35:57Z</time>
      </trkpt>
      <trkpt lat="44.97792" lon="3.85445">
        <ele>976</ele>
        <time>2011-05-30T08:36:07Z</time>
      </trkpt>
      <trkpt lat="44.97795" lon="3.8544">
        <ele>976</ele>
        <time>2011-05-30T08:36:21Z</time>
      </trkpt>
      <trkpt lat="44.97797" lon="3.8544">
        <ele>976</ele>
        <time>2011-05-30T08:36:38Z</time>
      </trkpt>
      <trkpt lat="44.97791" lon="3.85436">
        <ele>975</ele>
        <time>2011-05-30T08:36:49Z</time>
      </trkpt>
      <trkpt lat="44.97781" lon="3.85428">
        <ele>973</ele>
        <time>2011-05-30T08:37:00Z</time>
      </trkpt>
      <trkpt lat="44.9777" lon="3.85417">
        <ele>970</ele>
        <time>2011-05-30T08:37:10Z</time>
      </trkpt>
      <trkpt lat="44.9776" lon="3.85408">
        <ele>970</ele>
        <time>2011-05-30T08:37:21Z</time>
      </trkpt>
      <trkpt lat="44.97746" lon="3.85402">
        <ele>970</ele>
        <time>2011-05-30T08:37:31Z</time>
      </trkpt>
      <trkpt lat="44.97731" lon="3.85391">
        <ele>970</ele>
        <time>2011-05-30T08:37:45Z</time>
      </trkpt>
      <trkpt lat="44.97725" lon="3.85378">
        <ele>967</ele>
        <time>2011-05-30T08:37:56Z</time>
      </trkpt>
      <trkpt lat="44.97715" lon="3.85369">
        <ele>967</ele>
        <time>2011-05-30T08:38:06Z</time>
      </trkpt>
      <trkpt lat="44.97707" lon="3.85357">
        <ele>963</ele>
        <time>2011-05-30T08:38:16Z</time>
      </trkpt>
      <trkpt lat="44.977" lon="3.85348">
        <ele>963</ele>
        <time>2011-05-30T08:38:26Z</time>
      </trkpt>
      <trkpt lat="44.9769" lon="3.85335">
        <ele>963</ele>
        <time>2011-05-30T08:38:36Z</time>
      </trkpt>
      <trkpt lat="44.97681" lon="3.85325">
        <ele>961</ele>
        <time>2011-05-30T08:38:46Z</time>
      </trkpt>
      <trkpt lat="44.9767" lon="3.85314">
        <ele>961</ele>
        <time>2011-05-30T08:38:56Z</time>
      </trkpt>
      <trkpt lat="44.97659" lon="3.85304">
        <ele>961</ele>
        <time>2011-05-30T08:39:06Z</time>
      </trkpt>
      <trkpt lat="44.97647" lon="3.85295">
        <ele>962</ele>
        <time>2011-05-30T08:39:16Z</time>
      </trkpt>
      <trkpt lat="44.97635" lon="3.85282">
        <ele>962</ele>
        <time>2011-05-30T08:39:27Z</time>
      </trkpt>
      <trkpt lat="44.97623" lon="3.85272">
        <ele>962</ele>
        <time>2011-05-30T08:39:38Z</time>
      </trkpt>
      <trkpt lat="44.97612" lon="3.85264">
        <ele>962</ele>
        <time>2011-05-30T08:39:48Z</time>
      </trkpt>
      <trkpt lat="44.97601" lon="3.85257">
        <ele>962</ele>
        <time>2011-05-30T08:39:58Z</time>
      </trkpt>
      <trkpt lat="44.97589" lon="3.85254">
        <ele>962</ele>
        <time>2011-05-30T08:40:08Z</time>
      </trkpt>
      <trkpt lat="44.97586" lon="3.85265">
        <ele>962</ele>
        <time>2011-05-30T08:40:18Z</time>
      </trkpt>
      <trkpt lat="44.97579" lon="3.85272">
        <ele>959</ele>
        <time>2011-05-30T08:40:29Z</time>
      </trkpt>
      <trkpt lat="44.97566" lon="3.85262">
        <ele>958</ele>
        <time>2011-05-30T08:40:41Z</time>
      </trkpt>
      <trkpt lat="44.97559" lon="3.85249">
        <ele>958</ele>
        <time>2011-05-30T08:40:51Z</time>
      </trkpt>
      <trkpt lat="44.97553" lon="3.8524">
        <ele>958</ele>
        <time>2011-05-30T08:41:01Z</time>
      </trkpt>
      <trkpt lat="44.97551" lon="3.85238">
        <ele>958</ele>
        <time>2011-05-30T08:41:15Z</time>
      </trkpt>
      <trkpt lat="44.97549" lon="3.85232">
        <ele>958</ele>
        <time>2011-05-30T08:41:31Z</time>
      </trkpt>
      <trkpt lat="44.97538" lon="3.85229">
        <ele>958</ele>
        <time>2011-05-30T08:41:41Z</time>
      </trkpt>
      <trkpt lat="44.97528" lon="3.85221">
        <ele>958</ele>
        <time>2011-05-30T08:41:52Z</time>
      </trkpt>
      <trkpt lat="44.9752" lon="3.85213">
        <ele>958</ele>
        <time>2011-05-30T08:42:02Z</time>
      </trkpt>
      <trkpt lat="44.97509" lon="3.85205">
        <ele>958</ele>
        <time>2011-05-30T08:42:13Z</time>
      </trkpt>
      <trkpt lat="44.97499" lon="3.85197">
        <ele>958</ele>
        <time>2011-05-30T08:42:24Z</time>
      </trkpt>
      <trkpt lat="44.97489" lon="3.85189">
        <ele>958</ele>
        <time>2011-05-30T08:42:34Z</time>
      </trkpt>
      <trkpt lat="44.9748" lon="3.85178">
        <ele>958</ele>
        <time>2011-05-30T08:42:44Z</time>
      </trkpt>
      <trkpt lat="44.97473" lon="3.85171">
        <ele>958</ele>
        <time>2011-05-30T08:42:54Z</time>
      </trkpt>
      <trkpt lat="44.97465" lon="3.85159">
        <ele>958</ele>
        <time>2011-05-30T08:43:04Z</time>
      </trkpt>
      <trkpt lat="44.97456" lon="3.85147">
        <ele>958</ele>
        <time>2011-05-30T08:43:14Z</time>
      </trkpt>
      <trkpt lat="44.97449" lon="3.85134">
        <ele>958</ele>
        <time>2011-05-30T08:43:24Z</time>
      </trkpt>
      <trkpt lat="44.97444" lon="3.85119">
        <ele>958</ele>
        <time>2011-05-30T08:43:34Z</time>
      </trkpt>
      <trkpt lat="44.97439" lon="3.85102">
        <ele>958</ele>
        <time>2011-05-30T08:43:44Z</time>
      </trkpt>
      <trkpt lat="44.97434" lon="3.85086">
        <ele>960</ele>
        <time>2011-05-30T08:43:54Z</time>
      </trkpt>
      <trkpt lat="44.97427" lon="3.85071">
        <ele>961</ele>
        <time>2011-05-30T08:44:04Z</time>
      </trkpt>
      <trkpt lat="44.97419" lon="3.85057">
        <ele>961</ele>
        <time>2011-05-30T08:44:14Z</time>
      </trkpt>
      <trkpt lat="44.97411" lon="3.85045">
        <ele>961</ele>
        <time>2011-05-30T08:44:24Z</time>
      </trkpt>
      <trkpt lat="44.97402" lon="3.85033">
        <ele>961</ele>
        <time>2011-05-30T08:44:34Z</time>
      </trkpt>
      <trkpt lat="44.97394" lon="3.85019">
        <ele>961</ele>
        <time>2011-05-30T08:44:44Z</time>
      </trkpt>
      <trkpt lat="44.97386" lon="3.85006">
        <ele>961</ele>
        <time>2011-05-30T08:44:54Z</time>
      </trkpt>
      <trkpt lat="44.97376" lon="3.84991">
        <ele>961</ele>
        <time>2011-05-30T08:45:05Z</time>
      </trkpt>
      <trkpt lat="44.97366" lon="3.84979">
        <ele>961</ele>
        <time>2011-05-30T08:45:15Z</time>
      </trkpt>
      <trkpt lat="44.97354" lon="3.84968">
        <ele>961</ele>
        <time>2011-05-30T08:45:25Z</time>
      </trkpt>
      <trkpt lat="44.97344" lon="3.84958">
        <ele>961</ele>
        <time>2011-05-30T08:45:36Z</time>
      </trkpt>
      <trkpt lat="44.97333" lon="3.8495">
        <ele>959</ele>
        <time>2011-05-30T08:45:46Z</time>
      </trkpt>
      <trkpt lat="44.97318" lon="3.84946">
        <ele>959</ele>
        <time>2011-05-30T08:45:59Z</time>
      </trkpt>
      <trkpt lat="44.97304" lon="3.84947">
        <ele>959</ele>
        <time>2011-05-30T08:46:09Z</time>
      </trkpt>
      <trkpt lat="44.97292" lon="3.84947">
        <ele>958</ele>
        <time>2011-05-30T08:46:19Z</time>
      </trkpt>
      <trkpt lat="44.97277" lon="3.84941">
        <ele>955</ele>
        <time>2011-05-30T08:46:31Z</time>
      </trkpt>
      <trkpt lat="44.97263" lon="3.84945">
        <ele>953</ele>
        <time>2011-05-30T08:46:41Z</time>
      </trkpt>
      <trkpt lat="44.97249" lon="3.84947">
        <ele>949</ele>
        <time>2011-05-30T08:46:51Z</time>
      </trkpt>
      <trkpt lat="44.97237" lon="3.84946">
        <ele>947</ele>
        <time>2011-05-30T08:47:02Z</time>
      </trkpt>
      <trkpt lat="44.97227" lon="3.84936">
        <ele>947</ele>
        <time>2011-05-30T08:47:12Z</time>
      </trkpt>
      <trkpt lat="44.97219" lon="3.84921">
        <ele>947</ele>
        <time>2011-05-30T08:47:22Z</time>
      </trkpt>
      <trkpt lat="44.97209" lon="3.84909">
        <ele>946</ele>
        <time>2011-05-30T08:47:33Z</time>
      </trkpt>
      <trkpt lat="44.97204" lon="3.84895">
        <ele>946</ele>
        <time>2011-05-30T08:47:43Z</time>
      </trkpt>
      <trkpt lat="44.97197" lon="3.84883">
        <ele>946</ele>
        <time>2011-05-30T08:47:54Z</time>
      </trkpt>
      <trkpt lat="44.97187" lon="3.84871">
        <ele>946</ele>
        <time>2011-05-30T08:48:04Z</time>
      </trkpt>
      <trkpt lat="44.97177" lon="3.84858">
        <ele>946</ele>
        <time>2011-05-30T08:48:15Z</time>
      </trkpt>
      <trkpt lat="44.97171" lon="3.84844">
        <ele>943</ele>
        <time>2011-05-30T08:48:26Z</time>
      </trkpt>
      <trkpt lat="44.97163" lon="3.84837">
        <ele>942</ele>
        <time>2011-05-30T08:48:37Z</time>
      </trkpt>
      <trkpt lat="44.97153" lon="3.84827">
        <ele>939</ele>
        <time>2011-05-30T08:48:48Z</time>
      </trkpt>
      <trkpt lat="44.97145" lon="3.84816">
        <ele>935</ele>
        <time>2011-05-30T08:48:58Z</time>
      </trkpt>
      <trkpt lat="44.97137" lon="3.84805">
        <ele>932</ele>
        <time>2011-05-30T08:49:08Z</time>
      </trkpt>
      <trkpt lat="44.9713" lon="3.84792">
        <ele>931</ele>
        <time>2011-05-30T08:49:18Z</time>
      </trkpt>
      <trkpt lat="44.97124" lon="3.84779">
        <ele>929</ele>
        <time>2011-05-30T08:49:29Z</time>
      </trkpt>
      <trkpt lat="44.97121" lon="3.84766">
        <ele>928</ele>
        <time>2011-05-30T08:49:40Z</time>
      </trkpt>
      <trkpt lat="44.97114" lon="3.84755">
        <ele>926</ele>
        <time>2011-05-30T08:49:50Z</time>
      </trkpt>
      <trkpt lat="44.97104" lon="3.84752">
        <ele>923</ele>
        <time>2011-05-30T08:50:00Z</time>
      </trkpt>
      <trkpt lat="44.97092" lon="3.84752">
        <ele>922</ele>
        <time>2011-05-30T08:50:12Z</time>
      </trkpt>
      <trkpt lat="44.97082" lon="3.8476">
        <ele>922</ele>
        <time>2011-05-30T08:50:23Z</time>
      </trkpt>
      <trkpt lat="44.97079" lon="3.84771">
        <ele>925</ele>
        <time>2011-05-30T08:50:33Z</time>
      </trkpt>
      <trkpt lat="44.97075" lon="3.84782">
        <ele>927</ele>
        <time>2011-05-30T08:50:43Z</time>
      </trkpt>
      <trkpt lat="44.97074" lon="3.84798">
        <ele>929</ele>
        <time>2011-05-30T08:50:53Z</time>
      </trkpt>
      <trkpt lat="44.97072" lon="3.84815">
        <ele>929</ele>
        <time>2011-05-30T08:51:04Z</time>
      </trkpt>
      <trkpt lat="44.9707" lon="3.84832">
        <ele>930</ele>
        <time>2011-05-30T08:51:14Z</time>
      </trkpt>
      <trkpt lat="44.97066" lon="3.8485">
        <ele>930</ele>
        <time>2011-05-30T08:51:24Z</time>
      </trkpt>
      <trkpt lat="44.97064" lon="3.84866">
        <ele>930</ele>
        <time>2011-05-30T08:51:34Z</time>
      </trkpt>
      <trkpt lat="44.97063" lon="3.84884">
        <ele>930</ele>
        <time>2011-05-30T08:51:45Z</time>
      </trkpt>
      <trkpt lat="44.97055" lon="3.849">
        <ele>930</ele>
        <time>2011-05-30T08:51:55Z</time>
      </trkpt>
      <trkpt lat="44.97046" lon="3.84913">
        <ele>930</ele>
        <time>2011-05-30T08:52:06Z</time>
      </trkpt>
      <trkpt lat="44.97033" lon="3.84926">
        <ele>930</ele>
        <time>2011-05-30T08:52:18Z</time>
      </trkpt>
      <trkpt lat="44.97025" lon="3.84934">
        <ele>930</ele>
        <time>2011-05-30T08:52:28Z</time>
      </trkpt>
      <trkpt lat="44.97016" lon="3.84941">
        <ele>930</ele>
        <time>2011-05-30T08:52:38Z</time>
      </trkpt>
      <trkpt lat="44.97006" lon="3.84949">
        <ele>933</ele>
        <time>2011-05-30T08:52:49Z</time>
      </trkpt>
      <trkpt lat="44.96996" lon="3.84958">
        <ele>934</ele>
        <time>2011-05-30T08:53:00Z</time>
      </trkpt>
      <trkpt lat="44.96988" lon="3.84964">
        <ele>934</ele>
        <time>2011-05-30T08:53:10Z</time>
      </trkpt>
      <trkpt lat="44.96979" lon="3.8497">
        <ele>934</ele>
        <time>2011-05-30T08:53:21Z</time>
      </trkpt>
      <trkpt lat="44.96967" lon="3.84976">
        <ele>934</ele>
        <time>2011-05-30T08:53:31Z</time>
      </trkpt>
      <trkpt lat="44.96955" lon="3.84969">
        <ele>934</ele>
        <time>2011-05-30T08:53:43Z</time>
      </trkpt>
      <trkpt lat="44.96946" lon="3.8496">
        <ele>934</ele>
        <time>2011-05-30T08:53:53Z</time>
      </trkpt>
      <trkpt lat="44.96935" lon="3.84949">
        <ele>935</ele>
        <time>2011-05-30T08:54:04Z</time>
      </trkpt>
      <trkpt lat="44.96925" lon="3.84943">
        <ele>937</ele>
        <time>2011-05-30T08:54:14Z</time>
      </trkpt>
      <trkpt lat="44.96914" lon="3.84933">
        <ele>939</ele>
        <time>2011-05-30T08:54:25Z</time>
      </trkpt>
      <trkpt lat="44.96903" lon="3.8492">
        <ele>940</ele>
        <time>2011-05-30T08:54:37Z</time>
      </trkpt>
      <trkpt lat="44.96892" lon="3.84908">
        <ele>940</ele>
        <time>2011-05-30T08:54:48Z</time>
      </trkpt>
      <trkpt lat="44.9688" lon="3.849">
        <ele>940</ele>
        <time>2011-05-30T08:54:59Z</time>
      </trkpt>
      <trkpt lat="44.96869" lon="3.84892">
        <ele>940</ele>
        <time>2011-05-30T08:55:10Z</time>
      </trkpt>
      <trkpt lat="44.96858" lon="3.84888">
        <ele>940</ele>
        <time>2011-05-30T08:55:20Z</time>
      </trkpt>
      <trkpt lat="44.96845" lon="3.84882">
        <ele>940</ele>
        <time>2011-05-30T08:55:31Z</time>
      </trkpt>
      <trkpt lat="44.96833" lon="3.84876">
        <ele>940</ele>
        <time>2011-05-30T08:55:42Z</time>
      </trkpt>
      <trkpt lat="44.96821" lon="3.8487">
        <ele>940</ele>
        <time>2011-05-30T08:55:52Z</time>
      </trkpt>
      <trkpt lat="44.96808" lon="3.84861">
        <ele>940</ele>
        <time>2011-05-30T08:56:04Z</time>
      </trkpt>
      <trkpt lat="44.96796" lon="3.84854">
        <ele>940</ele>
        <time>2011-05-30T08:56:14Z</time>
      </trkpt>
      <trkpt lat="44.96783" lon="3.84848">
        <ele>940</ele>
        <time>2011-05-30T08:56:25Z</time>
      </trkpt>
      <trkpt lat="44.96771" lon="3.84844">
        <ele>940</ele>
        <time>2011-05-30T08:56:35Z</time>
      </trkpt>
      <trkpt lat="44.96759" lon="3.84843">
        <ele>940</ele>
        <time>2011-05-30T08:56:45Z</time>
      </trkpt>
      <trkpt lat="44.96748" lon="3.84843">
        <ele>940</ele>
        <time>2011-05-30T08:56:55Z</time>
      </trkpt>
      <trkpt lat="44.96737" lon="3.8484">
        <ele>940</ele>
        <time>2011-05-30T08:57:05Z</time>
      </trkpt>
      <trkpt lat="44.96725" lon="3.84835">
        <ele>940</ele>
        <time>2011-05-30T08:57:16Z</time>
      </trkpt>
      <trkpt lat="44.96714" lon="3.84831">
        <ele>940</ele>
        <time>2011-05-30T08:57:26Z</time>
      </trkpt>
      <trkpt lat="44.96702" lon="3.84825">
        <ele>940</ele>
        <time>2011-05-30T08:57:38Z</time>
      </trkpt>
      <trkpt lat="44.96691" lon="3.84821">
        <ele>940</ele>
        <time>2011-05-30T08:57:48Z</time>
      </trkpt>
      <trkpt lat="44.96679" lon="3.84815">
        <ele>940</ele>
        <time>2011-05-30T08:57:59Z</time>
      </trkpt>
      <trkpt lat="44.96668" lon="3.84809">
        <ele>940</ele>
        <time>2011-05-30T08:58:09Z</time>
      </trkpt>
      <trkpt lat="44.96656" lon="3.84801">
        <ele>940</ele>
        <time>2011-05-30T08:58:21Z</time>
      </trkpt>
      <trkpt lat="44.96645" lon="3.84794">
        <ele>941</ele>
        <time>2011-05-30T08:58:32Z</time>
      </trkpt>
      <trkpt lat="44.96634" lon="3.8479">
        <ele>941</ele>
        <time>2011-05-30T08:58:44Z</time>
      </trkpt>
      <trkpt lat="44.96624" lon="3.84794">
        <ele>942</ele>
        <time>2011-05-30T08:58:58Z</time>
      </trkpt>
      <trkpt lat="44.96622" lon="3.84793">
        <ele>945</ele>
        <time>2011-05-30T08:59:38Z</time>
      </trkpt>
      <trkpt lat="44.96613" lon="3.84801">
        <ele>945</ele>
        <time>2011-05-30T08:59:49Z</time>
      </trkpt>
      <trkpt lat="44.96603" lon="3.8481">
        <ele>945</ele>
        <time>2011-05-30T09:00:01Z</time>
      </trkpt>
      <trkpt lat="44.96593" lon="3.84818">
        <ele>945</ele>
        <time>2011-05-30T09:00:12Z</time>
      </trkpt>
      <trkpt lat="44.96585" lon="3.84827">
        <ele>949</ele>
        <time>2011-05-30T09:00:44Z</time>
      </trkpt>
      <trkpt lat="44.96577" lon="3.84834">
        <ele>949</ele>
        <time>2011-05-30T09:00:55Z</time>
      </trkpt>
      <trkpt lat="44.96567" lon="3.84836">
        <ele>949</ele>
        <time>2011-05-30T09:01:06Z</time>
      </trkpt>
      <trkpt lat="44.96555" lon="3.84833">
        <ele>950</ele>
        <time>2011-05-30T09:01:17Z</time>
      </trkpt>
      <trkpt lat="44.9655" lon="3.84819">
        <ele>952</ele>
        <time>2011-05-30T09:01:27Z</time>
      </trkpt>
      <trkpt lat="44.96548" lon="3.84802">
        <ele>953</ele>
        <time>2011-05-30T09:01:37Z</time>
      </trkpt>
      <trkpt lat="44.96548" lon="3.84786">
        <ele>953</ele>
        <time>2011-05-30T09:01:47Z</time>
      </trkpt>
      <trkpt lat="44.96546" lon="3.8477">
        <ele>953</ele>
        <time>2011-05-30T09:01:57Z</time>
      </trkpt>
      <trkpt lat="44.96542" lon="3.84752">
        <ele>954</ele>
        <time>2011-05-30T09:02:08Z</time>
      </trkpt>
      <trkpt lat="44.96534" lon="3.84737">
        <ele>955</ele>
        <time>2011-05-30T09:02:19Z</time>
      </trkpt>
      <trkpt lat="44.96523" lon="3.8473">
        <ele>955</ele>
        <time>2011-05-30T09:02:30Z</time>
      </trkpt>
      <trkpt lat="44.96511" lon="3.84726">
        <ele>955</ele>
        <time>2011-05-30T09:02:40Z</time>
      </trkpt>
      <trkpt lat="44.965" lon="3.8472">
        <ele>955</ele>
        <time>2011-05-30T09:02:51Z</time>
      </trkpt>
      <trkpt lat="44.96489" lon="3.84713">
        <ele>955</ele>
        <time>2011-05-30T09:03:01Z</time>
      </trkpt>
      <trkpt lat="44.96476" lon="3.84706">
        <ele>955</ele>
        <time>2011-05-30T09:03:12Z</time>
      </trkpt>
      <trkpt lat="44.96464" lon="3.84699">
        <ele>955</ele>
        <time>2011-05-30T09:03:23Z</time>
      </trkpt>
      <trkpt lat="44.96452" lon="3.84693">
        <ele>955</ele>
        <time>2011-05-30T09:03:33Z</time>
      </trkpt>
      <trkpt lat="44.96441" lon="3.84689">
        <ele>955</ele>
        <time>2011-05-30T09:03:43Z</time>
      </trkpt>
      <trkpt lat="44.96428" lon="3.84685">
        <ele>955</ele>
        <time>2011-05-30T09:03:53Z</time>
      </trkpt>
      <trkpt lat="44.96415" lon="3.84683">
        <ele>955</ele>
        <time>2011-05-30T09:04:03Z</time>
      </trkpt>
      <trkpt lat="44.96402" lon="3.84676">
        <ele>955</ele>
        <time>2011-05-30T09:04:13Z</time>
      </trkpt>
      <trkpt lat="44.96388" lon="3.8467">
        <ele>955</ele>
        <time>2011-05-30T09:04:24Z</time>
      </trkpt>
      <trkpt lat="44.96376" lon="3.84665">
        <ele>955</ele>
        <time>2011-05-30T09:04:34Z</time>
      </trkpt>
      <trkpt lat="44.96363" lon="3.84659">
        <ele>955</ele>
        <time>2011-05-30T09:04:44Z</time>
      </trkpt>
      <trkpt lat="44.96351" lon="3.84654">
        <ele>955</ele>
        <time>2011-05-30T09:04:55Z</time>
      </trkpt>
      <trkpt lat="44.96339" lon="3.84647">
        <ele>955</ele>
        <time>2011-05-30T09:05:05Z</time>
      </trkpt>
      <trkpt lat="44.96328" lon="3.84641">
        <ele>955</ele>
        <time>2011-05-30T09:05:15Z</time>
      </trkpt>
      <trkpt lat="44.96317" lon="3.84635">
        <ele>955</ele>
        <time>2011-05-30T09:05:26Z</time>
      </trkpt>
      <trkpt lat="44.96307" lon="3.84629">
        <ele>955</ele>
        <time>2011-05-30T09:05:36Z</time>
      </trkpt>
      <trkpt lat="44.96296" lon="3.84623">
        <ele>955</ele>
        <time>2011-05-30T09:05:46Z</time>
      </trkpt>
      <trkpt lat="44.96289" lon="3.84618">
        <ele>956</ele>
        <time>2011-05-30T09:06:12Z</time>
      </trkpt>
      <trkpt lat="44.96288" lon="3.84615">
        <ele>957</ele>
        <time>2011-05-30T09:06:28Z</time>
      </trkpt>
      <trkpt lat="44.96286" lon="3.84615">
        <ele>957</ele>
        <time>2011-05-30T09:06:44Z</time>
      </trkpt>
      <trkpt lat="44.96278" lon="3.84612">
        <ele>957</ele>
        <time>2011-05-30T09:06:54Z</time>
      </trkpt>
      <trkpt lat="44.96266" lon="3.84611">
        <ele>957</ele>
        <time>2011-05-30T09:07:05Z</time>
      </trkpt>
      <trkpt lat="44.96255" lon="3.84606">
        <ele>958</ele>
        <time>2011-05-30T09:07:16Z</time>
      </trkpt>
      <trkpt lat="44.96245" lon="3.84603">
        <ele>958</ele>
        <time>2011-05-30T09:07:26Z</time>
      </trkpt>
      <trkpt lat="44.96235" lon="3.84599">
        <ele>958</ele>
        <time>2011-05-30T09:07:36Z</time>
      </trkpt>
      <trkpt lat="44.96224" lon="3.84595">
        <ele>958</ele>
        <time>2011-05-30T09:07:46Z</time>
      </trkpt>
      <trkpt lat="44.96212" lon="3.8459">
        <ele>958</ele>
        <time>2011-05-30T09:07:56Z</time>
      </trkpt>
      <trkpt lat="44.962" lon="3.84585">
        <ele>958</ele>
        <time>2011-05-30T09:08:07Z</time>
      </trkpt>
      <trkpt lat="44.96186" lon="3.84581">
        <ele>958</ele>
        <time>2011-05-30T09:08:18Z</time>
      </trkpt>
      <trkpt lat="44.96173" lon="3.84574">
        <ele>958</ele>
        <time>2011-05-30T09:08:28Z</time>
      </trkpt>
      <trkpt lat="44.96162" lon="3.84568">
        <ele>958</ele>
        <time>2011-05-30T09:08:38Z</time>
      </trkpt>
      <trkpt lat="44.96149" lon="3.84561">
        <ele>958</ele>
        <time>2011-05-30T09:08:48Z</time>
      </trkpt>
      <trkpt lat="44.96136" lon="3.84555">
        <ele>958</ele>
        <time>2011-05-30T09:08:58Z</time>
      </trkpt>
      <trkpt lat="44.96124" lon="3.84548">
        <ele>958</ele>
        <time>2011-05-30T09:09:08Z</time>
      </trkpt>
      <trkpt lat="44.96112" lon="3.8454">
        <ele>958</ele>
        <time>2011-05-30T09:09:18Z</time>
      </trkpt>
      <trkpt lat="44.961" lon="3.84534">
        <ele>958</ele>
        <time>2011-05-30T09:09:28Z</time>
      </trkpt>
      <trkpt lat="44.96088" lon="3.84529">
        <ele>958</ele>
        <time>2011-05-30T09:09:38Z</time>
      </trkpt>
      <trkpt lat="44.96075" lon="3.84527">
        <ele>958</ele>
        <time>2011-05-30T09:09:48Z</time>
      </trkpt>
      <trkpt lat="44.96062" lon="3.84528">
        <ele>958</ele>
        <time>2011-05-30T09:09:58Z</time>
      </trkpt>
      <trkpt lat="44.96048" lon="3.84528">
        <ele>959</ele>
        <time>2011-05-30T09:10:08Z</time>
      </trkpt>
      <trkpt lat="44.96035" lon="3.84526">
        <ele>959</ele>
        <time>2011-05-30T09:10:18Z</time>
      </trkpt>
      <trkpt lat="44.96023" lon="3.84525">
        <ele>959</ele>
        <time>2011-05-30T09:10:28Z</time>
      </trkpt>
      <trkpt lat="44.9601" lon="3.84522">
        <ele>959</ele>
        <time>2011-05-30T09:10:38Z</time>
      </trkpt>
      <trkpt lat="44.95995" lon="3.84523">
        <ele>959</ele>
        <time>2011-05-30T09:10:48Z</time>
      </trkpt>
      <trkpt lat="44.95984" lon="3.8452">
        <ele>958</ele>
        <time>2011-05-30T09:10:58Z</time>
      </trkpt>
      <trkpt lat="44.95972" lon="3.84518">
        <ele>957</ele>
        <time>2011-05-30T09:11:08Z</time>
      </trkpt>
      <trkpt lat="44.95959" lon="3.84513">
        <ele>957</ele>
        <time>2011-05-30T09:11:18Z</time>
      </trkpt>
      <trkpt lat="44.95947" lon="3.84514">
        <ele>957</ele>
        <time>2011-05-30T09:11:29Z</time>
      </trkpt>
      <trkpt lat="44.95935" lon="3.84517">
        <ele>957</ele>
        <time>2011-05-30T09:11:39Z</time>
      </trkpt>
      <trkpt lat="44.95924" lon="3.8452">
        <ele>957</ele>
        <time>2011-05-30T09:11:49Z</time>
      </trkpt>
      <trkpt lat="44.95912" lon="3.84526">
        <ele>957</ele>
        <time>2011-05-30T09:11:59Z</time>
      </trkpt>
      <trkpt lat="44.95899" lon="3.84535">
        <ele>957</ele>
        <time>2011-05-30T09:12:09Z</time>
      </trkpt>
      <trkpt lat="44.95886" lon="3.84539">
        <ele>957</ele>
        <time>2011-05-30T09:12:19Z</time>
      </trkpt>
      <trkpt lat="44.95873" lon="3.84545">
        <ele>957</ele>
        <time>2011-05-30T09:12:30Z</time>
      </trkpt>
      <trkpt lat="44.9586" lon="3.84552">
        <ele>957</ele>
        <time>2011-05-30T09:12:40Z</time>
      </trkpt>
      <trkpt lat="44.95846" lon="3.84559">
        <ele>957</ele>
        <time>2011-05-30T09:12:50Z</time>
      </trkpt>
      <trkpt lat="44.95835" lon="3.84563">
        <ele>953</ele>
        <time>2011-05-30T09:13:01Z</time>
      </trkpt>
      <trkpt lat="44.95821" lon="3.8457">
        <ele>952</ele>
        <time>2011-05-30T09:13:11Z</time>
      </trkpt>
      <trkpt lat="44.95808" lon="3.84574">
        <ele>951</ele>
        <time>2011-05-30T09:13:22Z</time>
      </trkpt>
      <trkpt lat="44.95797" lon="3.84573">
        <ele>949</ele>
        <time>2011-05-30T09:13:32Z</time>
      </trkpt>
      <trkpt lat="44.95785" lon="3.84573">
        <ele>947</ele>
        <time>2011-05-30T09:13:42Z</time>
      </trkpt>
      <trkpt lat="44.95772" lon="3.84578">
        <ele>946</ele>
        <time>2011-05-30T09:13:52Z</time>
      </trkpt>
      <trkpt lat="44.95758" lon="3.84585">
        <ele>944</ele>
        <time>2011-05-30T09:14:02Z</time>
      </trkpt>
      <trkpt lat="44.95746" lon="3.84591">
        <ele>944</ele>
        <time>2011-05-30T09:14:12Z</time>
      </trkpt>
      <trkpt lat="44.95735" lon="3.84595">
        <ele>944</ele>
        <time>2011-05-30T09:14:22Z</time>
      </trkpt>
      <trkpt lat="44.95724" lon="3.846">
        <ele>944</ele>
        <time>2011-05-30T09:14:32Z</time>
      </trkpt>
      <trkpt lat="44.95712" lon="3.846">
        <ele>944</ele>
        <time>2011-05-30T09:14:42Z</time>
      </trkpt>
      <trkpt lat="44.95699" lon="3.846">
        <ele>944</ele>
        <time>2011-05-30T09:14:53Z</time>
      </trkpt>
      <trkpt lat="44.95689" lon="3.84596">
        <ele>945</ele>
        <time>2011-05-30T09:15:03Z</time>
      </trkpt>
      <trkpt lat="44.95674" lon="3.84597">
        <ele>948</ele>
        <time>2011-05-30T09:15:13Z</time>
      </trkpt>
      <trkpt lat="44.95663" lon="3.84594">
        <ele>954</ele>
        <time>2011-05-30T09:15:23Z</time>
      </trkpt>
      <trkpt lat="44.95649" lon="3.84593">
        <ele>954</ele>
        <time>2011-05-30T09:15:34Z</time>
      </trkpt>
      <trkpt lat="44.95636" lon="3.84588">
        <ele>954</ele>
        <time>2011-05-30T09:15:44Z</time>
      </trkpt>
      <trkpt lat="44.95627" lon="3.84581">
        <ele>954</ele>
        <time>2011-05-30T09:15:54Z</time>
      </trkpt>
      <trkpt lat="44.95619" lon="3.84578">
        <ele>955</ele>
        <time>2011-05-30T09:16:04Z</time>
      </trkpt>
      <trkpt lat="44.95618" lon="3.84578">
        <ele>955</ele>
        <time>2011-05-30T09:16:15Z</time>
      </trkpt>
      <trkpt lat="44.95615" lon="3.84579">
        <ele>955</ele>
        <time>2011-05-30T09:16:40Z</time>
      </trkpt>
      <trkpt lat="44.95617" lon="3.84582">
        <ele>955</ele>
        <time>2011-05-30T09:16:59Z</time>
      </trkpt>
      <trkpt lat="44.95615" lon="3.84597">
        <ele>955</ele>
        <time>2011-05-30T09:17:09Z</time>
      </trkpt>
      <trkpt lat="44.95613" lon="3.84601">
        <ele>955</ele>
        <time>2011-05-30T09:17:26Z</time>
      </trkpt>
      <trkpt lat="44.95615" lon="3.84588">
        <ele>955</ele>
        <time>2011-05-30T09:17:40Z</time>
      </trkpt>
      <trkpt lat="44.95616" lon="3.84585">
        <ele>955</ele>
        <time>2011-05-30T09:18:07Z</time>
      </trkpt>
      <trkpt lat="44.95609" lon="3.84573">
        <ele>955</ele>
        <time>2011-05-30T09:18:18Z</time>
      </trkpt>
      <trkpt lat="44.95599" lon="3.84568">
        <ele>955</ele>
        <time>2011-05-30T09:18:28Z</time>
      </trkpt>
      <trkpt lat="44.95589" lon="3.84567">
        <ele>955</ele>
        <time>2011-05-30T09:18:38Z</time>
      </trkpt>
      <trkpt lat="44.95579" lon="3.84568">
        <ele>955</ele>
        <time>2011-05-30T09:18:48Z</time>
      </trkpt>
      <trkpt lat="44.95566" lon="3.84574">
        <ele>958</ele>
        <time>2011-05-30T09:18:58Z</time>
      </trkpt>
      <trkpt lat="44.95552" lon="3.84574">
        <ele>958</ele>
        <time>2011-05-30T09:19:09Z</time>
      </trkpt>
      <trkpt lat="44.95541" lon="3.84569">
        <ele>958</ele>
        <time>2011-05-30T09:19:19Z</time>
      </trkpt>
      <trkpt lat="44.95528" lon="3.84571">
        <ele>958</ele>
        <time>2011-05-30T09:19:29Z</time>
      </trkpt>
      <trkpt lat="44.95513" lon="3.84573">
        <ele>958</ele>
        <time>2011-05-30T09:19:39Z</time>
      </trkpt>
      <trkpt lat="44.95502" lon="3.84575">
        <ele>956</ele>
        <time>2011-05-30T09:19:49Z</time>
      </trkpt>
      <trkpt lat="44.95496" lon="3.84576">
        <ele>959</ele>
        <time>2011-05-30T09:19:59Z</time>
      </trkpt>
      <trkpt lat="44.95484" lon="3.84588">
        <ele>963</ele>
        <time>2011-05-30T09:20:12Z</time>
      </trkpt>
      <trkpt lat="44.95476" lon="3.84592">
        <ele>971</ele>
        <time>2011-05-30T09:20:23Z</time>
      </trkpt>
      <trkpt lat="44.95467" lon="3.84599">
        <ele>973</ele>
        <time>2011-05-30T09:20:35Z</time>
      </trkpt>
      <trkpt lat="44.95454" lon="3.84601">
        <ele>973</ele>
        <time>2011-05-30T09:20:45Z</time>
      </trkpt>
      <trkpt lat="44.95445" lon="3.84606">
        <ele>967</ele>
        <time>2011-05-30T09:20:56Z</time>
      </trkpt>
      <trkpt lat="44.95434" lon="3.84609">
        <ele>966</ele>
        <time>2011-05-30T09:21:07Z</time>
      </trkpt>
      <trkpt lat="44.95423" lon="3.84612">
        <ele>965</ele>
        <time>2011-05-30T09:21:18Z</time>
      </trkpt>
      <trkpt lat="44.95414" lon="3.84613">
        <ele>965</ele>
        <time>2011-05-30T09:21:29Z</time>
      </trkpt>
      <trkpt lat="44.95403" lon="3.84616">
        <ele>965</ele>
        <time>2011-05-30T09:21:39Z</time>
      </trkpt>
      <trkpt lat="44.95394" lon="3.8462">
        <ele>965</ele>
        <time>2011-05-30T09:21:49Z</time>
      </trkpt>
      <trkpt lat="44.95383" lon="3.8462">
        <ele>965</ele>
        <time>2011-05-30T09:21:59Z</time>
      </trkpt>
      <trkpt lat="44.95373" lon="3.84618">
        <ele>965</ele>
        <time>2011-05-30T09:22:09Z</time>
      </trkpt>
      <trkpt lat="44.95361" lon="3.84616">
        <ele>966</ele>
        <time>2011-05-30T09:22:19Z</time>
      </trkpt>
      <trkpt lat="44.95348" lon="3.84616">
        <ele>966</ele>
        <time>2011-05-30T09:22:29Z</time>
      </trkpt>
      <trkpt lat="44.95338" lon="3.84615">
        <ele>967</ele>
        <time>2011-05-30T09:22:41Z</time>
      </trkpt>
      <trkpt lat="44.9533" lon="3.84617">
        <ele>967</ele>
        <time>2011-05-30T09:22:51Z</time>
      </trkpt>
      <trkpt lat="44.95318" lon="3.84616">
        <ele>967</ele>
        <time>2011-05-30T09:23:02Z</time>
      </trkpt>
      <trkpt lat="44.95306" lon="3.84617">
        <ele>967</ele>
        <time>2011-05-30T09:23:12Z</time>
      </trkpt>
      <trkpt lat="44.95294" lon="3.84615">
        <ele>967</ele>
        <time>2011-05-30T09:23:22Z</time>
      </trkpt>
      <trkpt lat="44.9528" lon="3.84616">
        <ele>969</ele>
        <time>2011-05-30T09:23:33Z</time>
      </trkpt>
      <trkpt lat="44.95268" lon="3.84618">
        <ele>969</ele>
        <time>2011-05-30T09:23:43Z</time>
      </trkpt>
      <trkpt lat="44.95256" lon="3.84619">
        <ele>970</ele>
        <time>2011-05-30T09:23:53Z</time>
      </trkpt>
      <trkpt lat="44.95244" lon="3.84618">
        <ele>970</ele>
        <time>2011-05-30T09:24:03Z</time>
      </trkpt>
      <trkpt lat="44.95232" lon="3.84619">
        <ele>970</ele>
        <time>2011-05-30T09:24:13Z</time>
      </trkpt>
      <trkpt lat="44.95219" lon="3.8462">
        <ele>970</ele>
        <time>2011-05-30T09:24:23Z</time>
      </trkpt>
      <trkpt lat="44.95208" lon="3.84621">
        <ele>970</ele>
        <time>2011-05-30T09:24:33Z</time>
      </trkpt>
      <trkpt lat="44.95195" lon="3.84622">
        <ele>970</ele>
        <time>2011-05-30T09:24:43Z</time>
      </trkpt>
      <trkpt lat="44.95184" lon="3.84623">
        <ele>970</ele>
        <time>2011-05-30T09:24:53Z</time>
      </trkpt>
      <trkpt lat="44.95171" lon="3.84625">
        <ele>970</ele>
        <time>2011-05-30T09:25:03Z</time>
      </trkpt>
      <trkpt lat="44.95157" lon="3.84625">
        <ele>970</ele>
        <time>2011-05-30T09:25:13Z</time>
      </trkpt>
      <trkpt lat="44.95145" lon="3.84626">
        <ele>970</ele>
        <time>2011-05-30T09:25:23Z</time>
      </trkpt>
      <trkpt lat="44.95132" lon="3.84627">
        <ele>970</ele>
        <time>2011-05-30T09:25:33Z</time>
      </trkpt>
      <trkpt lat="44.95121" lon="3.84627">
        <ele>970</ele>
        <time>2011-05-30T09:25:43Z</time>
      </trkpt>
      <trkpt lat="44.95109" lon="3.84626">
        <ele>970</ele>
        <time>2011-05-30T09:25:53Z</time>
      </trkpt>
      <trkpt lat="44.95097" lon="3.84626">
        <ele>970</ele>
        <time>2011-05-30T09:26:03Z</time>
      </trkpt>
      <trkpt lat="44.95083" lon="3.84623">
        <ele>970</ele>
        <time>2011-05-30T09:26:14Z</time>
      </trkpt>
      <trkpt lat="44.95071" lon="3.84618">
        <ele>970</ele>
        <time>2011-05-30T09:26:24Z</time>
      </trkpt>
      <trkpt lat="44.9506" lon="3.84613">
        <ele>970</ele>
        <time>2011-05-30T09:26:34Z</time>
      </trkpt>
      <trkpt lat="44.95048" lon="3.84611">
        <ele>970</ele>
        <time>2011-05-30T09:26:44Z</time>
      </trkpt>
      <trkpt lat="44.95036" lon="3.84609">
        <ele>970</ele>
        <time>2011-05-30T09:26:54Z</time>
      </trkpt>
      <trkpt lat="44.95024" lon="3.84607">
        <ele>970</ele>
        <time>2011-05-30T09:27:04Z</time>
      </trkpt>
      <trkpt lat="44.95013" lon="3.84606">
        <ele>970</ele>
        <time>2011-05-30T09:27:14Z</time>
      </trkpt>
      <trkpt lat="44.94999" lon="3.84603">
        <ele>970</ele>
        <time>2011-05-30T09:27:25Z</time>
      </trkpt>
      <trkpt lat="44.9499" lon="3.84601">
        <ele>970</ele>
        <time>2011-05-30T09:27:35Z</time>
      </trkpt>
      <trkpt lat="44.9498" lon="3.84605">
        <ele>970</ele>
        <time>2011-05-30T09:27:45Z</time>
      </trkpt>
      <trkpt lat="44.94968" lon="3.84611">
        <ele>970</ele>
        <time>2011-05-30T09:27:55Z</time>
      </trkpt>
      <trkpt lat="44.94957" lon="3.84614">
        <ele>970</ele>
        <time>2011-05-30T09:28:05Z</time>
      </trkpt>
      <trkpt lat="44.94948" lon="3.8462">
        <ele>972</ele>
        <time>2011-05-30T09:28:19Z</time>
      </trkpt>
      <trkpt lat="44.94938" lon="3.84622">
        <ele>973</ele>
        <time>2011-05-30T09:28:29Z</time>
      </trkpt>
      <trkpt lat="44.94929" lon="3.84625">
        <ele>973</ele>
        <time>2011-05-30T09:28:39Z</time>
      </trkpt>
      <trkpt lat="44.94918" lon="3.8463">
        <ele>973</ele>
        <time>2011-05-30T09:28:50Z</time>
      </trkpt>
      <trkpt lat="44.94906" lon="3.84635">
        <ele>974</ele>
        <time>2011-05-30T09:29:01Z</time>
      </trkpt>
      <trkpt lat="44.94895" lon="3.84639">
        <ele>975</ele>
        <time>2011-05-30T09:29:12Z</time>
      </trkpt>
      <trkpt lat="44.94885" lon="3.84642">
        <ele>975</ele>
        <time>2011-05-30T09:29:22Z</time>
      </trkpt>
      <trkpt lat="44.94875" lon="3.84646">
        <ele>976</ele>
        <time>2011-05-30T09:29:32Z</time>
      </trkpt>
      <trkpt lat="44.94864" lon="3.84651">
        <ele>977</ele>
        <time>2011-05-30T09:29:43Z</time>
      </trkpt>
      <trkpt lat="44.94853" lon="3.84657">
        <ele>977</ele>
        <time>2011-05-30T09:29:53Z</time>
      </trkpt>
      <trkpt lat="44.94841" lon="3.84661">
        <ele>977</ele>
        <time>2011-05-30T09:30:03Z</time>
      </trkpt>
      <trkpt lat="44.94829" lon="3.84665">
        <ele>978</ele>
        <time>2011-05-30T09:30:13Z</time>
      </trkpt>
      <trkpt lat="44.94818" lon="3.8467">
        <ele>978</ele>
        <time>2011-05-30T09:30:23Z</time>
      </trkpt>
      <trkpt lat="44.94806" lon="3.84676">
        <ele>980</ele>
        <time>2011-05-30T09:30:33Z</time>
      </trkpt>
      <trkpt lat="44.94793" lon="3.84682">
        <ele>980</ele>
        <time>2011-05-30T09:30:43Z</time>
      </trkpt>
      <trkpt lat="44.94781" lon="3.84686">
        <ele>981</ele>
        <time>2011-05-30T09:30:54Z</time>
      </trkpt>
      <trkpt lat="44.94769" lon="3.8469">
        <ele>981</ele>
        <time>2011-05-30T09:31:04Z</time>
      </trkpt>
      <trkpt lat="44.94755" lon="3.847">
        <ele>982</ele>
        <time>2011-05-30T09:31:22Z</time>
      </trkpt>
      <trkpt lat="44.94744" lon="3.84707">
        <ele>982</ele>
        <time>2011-05-30T09:31:33Z</time>
      </trkpt>
      <trkpt lat="44.94733" lon="3.84714">
        <ele>986</ele>
        <time>2011-05-30T09:31:43Z</time>
      </trkpt>
      <trkpt lat="44.9472" lon="3.84721">
        <ele>990</ele>
        <time>2011-05-30T09:31:53Z</time>
      </trkpt>
      <trkpt lat="44.94706" lon="3.84726">
        <ele>991</ele>
        <time>2011-05-30T09:32:05Z</time>
      </trkpt>
      <trkpt lat="44.94695" lon="3.84728">
        <ele>991</ele>
        <time>2011-05-30T09:32:15Z</time>
      </trkpt>
      <trkpt lat="44.94684" lon="3.84729">
        <ele>991</ele>
        <time>2011-05-30T09:32:25Z</time>
      </trkpt>
      <trkpt lat="44.94672" lon="3.84734">
        <ele>991</ele>
        <time>2011-05-30T09:32:35Z</time>
      </trkpt>
      <trkpt lat="44.94661" lon="3.84737">
        <ele>991</ele>
        <time>2011-05-30T09:32:45Z</time>
      </trkpt>
      <trkpt lat="44.9465" lon="3.84739">
        <ele>991</ele>
        <time>2011-05-30T09:32:55Z</time>
      </trkpt>
      <trkpt lat="44.9464" lon="3.84745">
        <ele>991</ele>
        <time>2011-05-30T09:33:06Z</time>
      </trkpt>
      <trkpt lat="44.94627" lon="3.84752">
        <ele>991</ele>
        <time>2011-05-30T09:33:16Z</time>
      </trkpt>
      <trkpt lat="44.94616" lon="3.84754">
        <ele>991</ele>
        <time>2011-05-30T09:33:26Z</time>
      </trkpt>
      <trkpt lat="44.94605" lon="3.84757">
        <ele>991</ele>
        <time>2011-05-30T09:33:36Z</time>
      </trkpt>
      <trkpt lat="44.94594" lon="3.84761">
        <ele>991</ele>
        <time>2011-05-30T09:33:47Z</time>
      </trkpt>
      <trkpt lat="44.94583" lon="3.84765">
        <ele>992</ele>
        <time>2011-05-30T09:33:57Z</time>
      </trkpt>
      <trkpt lat="44.94572" lon="3.8477">
        <ele>993</ele>
        <time>2011-05-30T09:34:08Z</time>
      </trkpt>
      <trkpt lat="44.9456" lon="3.84775">
        <ele>994</ele>
        <time>2011-05-30T09:34:18Z</time>
      </trkpt>
      <trkpt lat="44.94549" lon="3.84779">
        <ele>995</ele>
        <time>2011-05-30T09:34:28Z</time>
      </trkpt>
      <trkpt lat="44.94534" lon="3.84795">
        <ele>996</ele>
        <time>2011-05-30T09:34:44Z</time>
      </trkpt>
      <trkpt lat="44.94521" lon="3.84798">
        <ele>996</ele>
        <time>2011-05-30T09:34:57Z</time>
      </trkpt>
      <trkpt lat="44.94507" lon="3.848">
        <ele>996</ele>
        <time>2011-05-30T09:35:08Z</time>
      </trkpt>
      <trkpt lat="44.94498" lon="3.84806">
        <ele>999</ele>
        <time>2011-05-30T09:35:19Z</time>
      </trkpt>
      <trkpt lat="44.94484" lon="3.84809">
        <ele>1002</ele>
        <time>2011-05-30T09:35:30Z</time>
      </trkpt>
      <trkpt lat="44.94474" lon="3.84815">
        <ele>1002</ele>
        <time>2011-05-30T09:35:42Z</time>
      </trkpt>
      <trkpt lat="44.94459" lon="3.84816">
        <ele>1005</ele>
        <time>2011-05-30T09:35:53Z</time>
      </trkpt>
      <trkpt lat="44.94446" lon="3.84818">
        <ele>1005</ele>
        <time>2011-05-30T09:36:03Z</time>
      </trkpt>
      <trkpt lat="44.94434" lon="3.84816">
        <ele>1005</ele>
        <time>2011-05-30T09:36:14Z</time>
      </trkpt>
      <trkpt lat="44.94423" lon="3.84812">
        <ele>1005</ele>
        <time>2011-05-30T09:36:25Z</time>
      </trkpt>
      <trkpt lat="44.94413" lon="3.84809">
        <ele>1005</ele>
        <time>2011-05-30T09:36:35Z</time>
      </trkpt>
      <trkpt lat="44.94402" lon="3.84806">
        <ele>1005</ele>
        <time>2011-05-30T09:36:45Z</time>
      </trkpt>
      <trkpt lat="44.94388" lon="3.84805">
        <ele>1006</ele>
        <time>2011-05-30T09:36:59Z</time>
      </trkpt>
      <trkpt lat="44.94378" lon="3.84802">
        <ele>1006</ele>
        <time>2011-05-30T09:37:09Z</time>
      </trkpt>
      <trkpt lat="44.94364" lon="3.84801">
        <ele>1007</ele>
        <time>2011-05-30T09:37:19Z</time>
      </trkpt>
      <trkpt lat="44.94352" lon="3.84799">
        <ele>1007</ele>
        <time>2011-05-30T09:37:29Z</time>
      </trkpt>
      <trkpt lat="44.94342" lon="3.84796">
        <ele>1007</ele>
        <time>2011-05-30T09:37:39Z</time>
      </trkpt>
      <trkpt lat="44.9433" lon="3.84794">
        <ele>1007</ele>
        <time>2011-05-30T09:37:50Z</time>
      </trkpt>
      <trkpt lat="44.94321" lon="3.84792">
        <ele>1007</ele>
        <time>2011-05-30T09:38:00Z</time>
      </trkpt>
      <trkpt lat="44.94307" lon="3.8479">
        <ele>1007</ele>
        <time>2011-05-30T09:38:10Z</time>
      </trkpt>
      <trkpt lat="44.94294" lon="3.84788">
        <ele>1007</ele>
        <time>2011-05-30T09:38:20Z</time>
      </trkpt>
      <trkpt lat="44.94285" lon="3.84785">
        <ele>1011</ele>
        <time>2011-05-30T09:38:30Z</time>
      </trkpt>
      <trkpt lat="44.94277" lon="3.8479">
        <ele>1013</ele>
        <time>2011-05-30T09:38:40Z</time>
      </trkpt>
      <trkpt lat="44.94267" lon="3.84786">
        <ele>1013</ele>
        <time>2011-05-30T09:38:50Z</time>
      </trkpt>
      <trkpt lat="44.94255" lon="3.84786">
        <ele>1013</ele>
        <time>2011-05-30T09:39:01Z</time>
      </trkpt>
      <trkpt lat="44.94247" lon="3.84779">
        <ele>1012</ele>
        <time>2011-05-30T09:39:11Z</time>
      </trkpt>
      <trkpt lat="44.94238" lon="3.84774">
        <ele>1012</ele>
        <time>2011-05-30T09:39:21Z</time>
      </trkpt>
      <trkpt lat="44.94229" lon="3.8477">
        <ele>1010</ele>
        <time>2011-05-30T09:39:31Z</time>
      </trkpt>
      <trkpt lat="44.94218" lon="3.84772">
        <ele>1010</ele>
        <time>2011-05-30T09:39:41Z</time>
      </trkpt>
      <trkpt lat="44.94206" lon="3.84772">
        <ele>1011</ele>
        <time>2011-05-30T09:39:51Z</time>
      </trkpt>
      <trkpt lat="44.94194" lon="3.84772">
        <ele>1013</ele>
        <time>2011-05-30T09:40:01Z</time>
      </trkpt>
      <trkpt lat="44.94184" lon="3.84767">
        <ele>1013</ele>
        <time>2011-05-30T09:40:13Z</time>
      </trkpt>
      <trkpt lat="44.94173" lon="3.84767">
        <ele>1016</ele>
        <time>2011-05-30T09:40:23Z</time>
      </trkpt>
      <trkpt lat="44.94158" lon="3.84766">
        <ele>1016</ele>
        <time>2011-05-30T09:40:33Z</time>
      </trkpt>
      <trkpt lat="44.94149" lon="3.84764">
        <ele>1016</ele>
        <time>2011-05-30T09:40:43Z</time>
      </trkpt>
      <trkpt lat="44.94138" lon="3.84761">
        <ele>1016</ele>
        <time>2011-05-30T09:40:53Z</time>
      </trkpt>
      <trkpt lat="44.94124" lon="3.84758">
        <ele>1016</ele>
        <time>2011-05-30T09:41:03Z</time>
      </trkpt>
      <trkpt lat="44.94117" lon="3.84754">
        <ele>1016</ele>
        <time>2011-05-30T09:41:16Z</time>
      </trkpt>
      <trkpt lat="44.94115" lon="3.84752">
        <ele>1016</ele>
        <time>2011-05-30T09:41:29Z</time>
      </trkpt>
      <trkpt lat="44.94101" lon="3.84749">
        <ele>1016</ele>
        <time>2011-05-30T09:41:41Z</time>
      </trkpt>
      <trkpt lat="44.9409" lon="3.84747">
        <ele>1016</ele>
        <time>2011-05-30T09:41:51Z</time>
      </trkpt>
      <trkpt lat="44.94063" lon="3.84728">
        <ele>1016</ele>
        <time>2011-05-30T09:42:18Z</time>
      </trkpt>
      <trkpt lat="44.94048" lon="3.84734">
        <ele>1015</ele>
        <time>2011-05-30T09:42:29Z</time>
      </trkpt>
      <trkpt lat="44.94034" lon="3.8473">
        <ele>1015</ele>
        <time>2011-05-30T09:42:40Z</time>
      </trkpt>
      <trkpt lat="44.94021" lon="3.84729">
        <ele>1016</ele>
        <time>2011-05-30T09:42:52Z</time>
      </trkpt>
      <trkpt lat="44.94011" lon="3.84726">
        <ele>1020</ele>
        <time>2011-05-30T09:43:03Z</time>
      </trkpt>
      <trkpt lat="44.94" lon="3.84723">
        <ele>1020</ele>
        <time>2011-05-30T09:43:13Z</time>
      </trkpt>
      <trkpt lat="44.93988" lon="3.84721">
        <ele>1021</ele>
        <time>2011-05-30T09:43:23Z</time>
      </trkpt>
      <trkpt lat="44.93972" lon="3.8472">
        <ele>1021</ele>
        <time>2011-05-30T09:43:34Z</time>
      </trkpt>
      <trkpt lat="44.93967" lon="3.84716">
        <ele>1021</ele>
        <time>2011-05-30T09:43:44Z</time>
      </trkpt>
      <trkpt lat="44.93952" lon="3.84716">
        <ele>1021</ele>
        <time>2011-05-30T09:43:54Z</time>
      </trkpt>
      <trkpt lat="44.93938" lon="3.84712">
        <ele>1021</ele>
        <time>2011-05-30T09:44:07Z</time>
      </trkpt>
      <trkpt lat="44.93926" lon="3.84708">
        <ele>1022</ele>
        <time>2011-05-30T09:44:17Z</time>
      </trkpt>
      <trkpt lat="44.93914" lon="3.84704">
        <ele>1024</ele>
        <time>2011-05-30T09:44:28Z</time>
      </trkpt>
      <trkpt lat="44.93901" lon="3.847">
        <ele>1025</ele>
        <time>2011-05-30T09:44:39Z</time>
      </trkpt>
      <trkpt lat="44.93889" lon="3.84697">
        <ele>1025</ele>
        <time>2011-05-30T09:44:50Z</time>
      </trkpt>
      <trkpt lat="44.93873" lon="3.84695">
        <ele>1025</ele>
        <time>2011-05-30T09:45:01Z</time>
      </trkpt>
      <trkpt lat="44.93861" lon="3.84689">
        <ele>1025</ele>
        <time>2011-05-30T09:45:12Z</time>
      </trkpt>
      <trkpt lat="44.93851" lon="3.84685">
        <ele>1025</ele>
        <time>2011-05-30T09:45:22Z</time>
      </trkpt>
      <trkpt lat="44.93839" lon="3.84679">
        <ele>1025</ele>
        <time>2011-05-30T09:45:33Z</time>
      </trkpt>
      <trkpt lat="44.93826" lon="3.8468">
        <ele>1025</ele>
        <time>2011-05-30T09:45:43Z</time>
      </trkpt>
      <trkpt lat="44.93824" lon="3.84674">
        <ele>1025</ele>
        <time>2011-05-30T09:46:16Z</time>
      </trkpt>
      <trkpt lat="44.93822" lon="3.84674">
        <ele>1025</ele>
        <time>2011-05-30T09:46:52Z</time>
      </trkpt>
      <trkpt lat="44.93811" lon="3.8467">
        <ele>1025</ele>
        <time>2011-05-30T09:47:03Z</time>
      </trkpt>
      <trkpt lat="44.93799" lon="3.84665">
        <ele>1025</ele>
        <time>2011-05-30T09:47:14Z</time>
      </trkpt>
      <trkpt lat="44.93792" lon="3.84665">
        <ele>1025</ele>
        <time>2011-05-30T09:47:25Z</time>
      </trkpt>
      <trkpt lat="44.93782" lon="3.84672">
        <ele>1025</ele>
        <time>2011-05-30T09:47:36Z</time>
      </trkpt>
      <trkpt lat="44.93771" lon="3.8468">
        <ele>1025</ele>
        <time>2011-05-30T09:47:47Z</time>
      </trkpt>
      <trkpt lat="44.93759" lon="3.84687">
        <ele>1025</ele>
        <time>2011-05-30T09:47:57Z</time>
      </trkpt>
      <trkpt lat="44.93749" lon="3.84692">
        <ele>1025</ele>
        <time>2011-05-30T09:48:07Z</time>
      </trkpt>
      <trkpt lat="44.93737" lon="3.84694">
        <ele>1025</ele>
        <time>2011-05-30T09:48:17Z</time>
      </trkpt>
      <trkpt lat="44.93725" lon="3.84699">
        <ele>1025</ele>
        <time>2011-05-30T09:48:27Z</time>
      </trkpt>
      <trkpt lat="44.93713" lon="3.847">
        <ele>1025</ele>
        <time>2011-05-30T09:48:37Z</time>
      </trkpt>
      <trkpt lat="44.93699" lon="3.84704">
        <ele>1025</ele>
        <time>2011-05-30T09:48:48Z</time>
      </trkpt>
      <trkpt lat="44.93687" lon="3.84708">
        <ele>1025</ele>
        <time>2011-05-30T09:48:58Z</time>
      </trkpt>
      <trkpt lat="44.93674" lon="3.84711">
        <ele>1025</ele>
        <time>2011-05-30T09:49:09Z</time>
      </trkpt>
      <trkpt lat="44.93663" lon="3.84713">
        <ele>1025</ele>
        <time>2011-05-30T09:49:19Z</time>
      </trkpt>
      <trkpt lat="44.93651" lon="3.84714">
        <ele>1025</ele>
        <time>2011-05-30T09:49:29Z</time>
      </trkpt>
      <trkpt lat="44.93647" lon="3.84717">
        <ele>1025</ele>
        <time>2011-05-30T09:49:46Z</time>
      </trkpt>
      <trkpt lat="44.93645" lon="3.84715">
        <ele>1025</ele>
        <time>2011-05-30T09:50:05Z</time>
      </trkpt>
      <trkpt lat="44.93633" lon="3.84714">
        <ele>1025</ele>
        <time>2011-05-30T09:50:17Z</time>
      </trkpt>
      <trkpt lat="44.93622" lon="3.84715">
        <ele>1025</ele>
        <time>2011-05-30T09:50:27Z</time>
      </trkpt>
      <trkpt lat="44.9361" lon="3.84713">
        <ele>1025</ele>
        <time>2011-05-30T09:50:37Z</time>
      </trkpt>
      <trkpt lat="44.93592" lon="3.84714">
        <ele>1026</ele>
        <time>2011-05-30T09:50:51Z</time>
      </trkpt>
      <trkpt lat="44.93581" lon="3.8471">
        <ele>1026</ele>
        <time>2011-05-30T09:51:01Z</time>
      </trkpt>
      <trkpt lat="44.93569" lon="3.84707">
        <ele>1026</ele>
        <time>2011-05-30T09:51:12Z</time>
      </trkpt>
      <trkpt lat="44.93558" lon="3.84703">
        <ele>1026</ele>
        <time>2011-05-30T09:51:22Z</time>
      </trkpt>
      <trkpt lat="44.93549" lon="3.84701">
        <ele>1026</ele>
        <time>2011-05-30T09:51:32Z</time>
      </trkpt>
      <trkpt lat="44.93536" lon="3.84699">
        <ele>1026</ele>
        <time>2011-05-30T09:51:42Z</time>
      </trkpt>
      <trkpt lat="44.93526" lon="3.84695">
        <ele>1026</ele>
        <time>2011-05-30T09:51:52Z</time>
      </trkpt>
      <trkpt lat="44.93517" lon="3.84691">
        <ele>1026</ele>
        <time>2011-05-30T09:52:02Z</time>
      </trkpt>
      <trkpt lat="44.93505" lon="3.84685">
        <ele>1026</ele>
        <time>2011-05-30T09:52:12Z</time>
      </trkpt>
      <trkpt lat="44.93493" lon="3.84679">
        <ele>1026</ele>
        <time>2011-05-30T09:52:22Z</time>
      </trkpt>
      <trkpt lat="44.93481" lon="3.84675">
        <ele>1026</ele>
        <time>2011-05-30T09:52:33Z</time>
      </trkpt>
      <trkpt lat="44.9347" lon="3.84666">
        <ele>1026</ele>
        <time>2011-05-30T09:52:44Z</time>
      </trkpt>
      <trkpt lat="44.9346" lon="3.8466">
        <ele>1026</ele>
        <time>2011-05-30T09:52:54Z</time>
      </trkpt>
      <trkpt lat="44.93448" lon="3.84653">
        <ele>1026</ele>
        <time>2011-05-30T09:53:05Z</time>
      </trkpt>
      <trkpt lat="44.93438" lon="3.84649">
        <ele>1026</ele>
        <time>2011-05-30T09:53:15Z</time>
      </trkpt>
      <trkpt lat="44.93428" lon="3.84647">
        <ele>1026</ele>
        <time>2011-05-30T09:53:26Z</time>
      </trkpt>
      <trkpt lat="44.93418" lon="3.84643">
        <ele>1027</ele>
        <time>2011-05-30T09:53:36Z</time>
      </trkpt>
      <trkpt lat="44.93408" lon="3.8464">
        <ele>1028</ele>
        <time>2011-05-30T09:53:46Z</time>
      </trkpt>
      <trkpt lat="44.93397" lon="3.84637">
        <ele>1028</ele>
        <time>2011-05-30T09:53:57Z</time>
      </trkpt>
      <trkpt lat="44.93387" lon="3.84634">
        <ele>1028</ele>
        <time>2011-05-30T09:54:07Z</time>
      </trkpt>
      <trkpt lat="44.93378" lon="3.84632">
        <ele>1029</ele>
        <time>2011-05-30T09:54:17Z</time>
      </trkpt>
      <trkpt lat="44.93367" lon="3.8463">
        <ele>1029</ele>
        <time>2011-05-30T09:54:27Z</time>
      </trkpt>
      <trkpt lat="44.93356" lon="3.84628">
        <ele>1029</ele>
        <time>2011-05-30T09:54:37Z</time>
      </trkpt>
      <trkpt lat="44.93344" lon="3.84625">
        <ele>1030</ele>
        <time>2011-05-30T09:54:47Z</time>
      </trkpt>
      <trkpt lat="44.93333" lon="3.84623">
        <ele>1030</ele>
        <time>2011-05-30T09:54:57Z</time>
      </trkpt>
      <trkpt lat="44.93322" lon="3.84622">
        <ele>1030</ele>
        <time>2011-05-30T09:55:07Z</time>
      </trkpt>
      <trkpt lat="44.9331" lon="3.84619">
        <ele>1031</ele>
        <time>2011-05-30T09:55:18Z</time>
      </trkpt>
      <trkpt lat="44.93297" lon="3.84617">
        <ele>1031</ele>
        <time>2011-05-30T09:55:28Z</time>
      </trkpt>
      <trkpt lat="44.93285" lon="3.84614">
        <ele>1031</ele>
        <time>2011-05-30T09:55:39Z</time>
      </trkpt>
      <trkpt lat="44.93271" lon="3.84612">
        <ele>1031</ele>
        <time>2011-05-30T09:55:50Z</time>
      </trkpt>
      <trkpt lat="44.93259" lon="3.84609">
        <ele>1031</ele>
        <time>2011-05-30T09:56:01Z</time>
      </trkpt>
      <trkpt lat="44.93246" lon="3.84608">
        <ele>1031</ele>
        <time>2011-05-30T09:56:12Z</time>
      </trkpt>
      <trkpt lat="44.93235" lon="3.84607">
        <ele>1031</ele>
        <time>2011-05-30T09:56:22Z</time>
      </trkpt>
      <trkpt lat="44.93224" lon="3.84607">
        <ele>1031</ele>
        <time>2011-05-30T09:56:32Z</time>
      </trkpt>
      <trkpt lat="44.93214" lon="3.84603">
        <ele>1031</ele>
        <time>2011-05-30T09:56:42Z</time>
      </trkpt>
      <trkpt lat="44.93203" lon="3.84601">
        <ele>1031</ele>
        <time>2011-05-30T09:56:52Z</time>
      </trkpt>
      <trkpt lat="44.93192" lon="3.84598">
        <ele>1031</ele>
        <time>2011-05-30T09:57:03Z</time>
      </trkpt>
      <trkpt lat="44.93181" lon="3.84594">
        <ele>1030</ele>
        <time>2011-05-30T09:57:14Z</time>
      </trkpt>
      <trkpt lat="44.93169" lon="3.84592">
        <ele>1030</ele>
        <time>2011-05-30T09:57:24Z</time>
      </trkpt>
      <trkpt lat="44.93157" lon="3.8459">
        <ele>1030</ele>
        <time>2011-05-30T09:57:35Z</time>
      </trkpt>
      <trkpt lat="44.93144" lon="3.8459">
        <ele>1030</ele>
        <time>2011-05-30T09:57:46Z</time>
      </trkpt>
      <trkpt lat="44.93132" lon="3.84589">
        <ele>1030</ele>
        <time>2011-05-30T09:57:56Z</time>
      </trkpt>
      <trkpt lat="44.93119" lon="3.84584">
        <ele>1030</ele>
        <time>2011-05-30T09:58:07Z</time>
      </trkpt>
      <trkpt lat="44.93109" lon="3.84582">
        <ele>1030</ele>
        <time>2011-05-30T09:58:17Z</time>
      </trkpt>
      <trkpt lat="44.93098" lon="3.84579">
        <ele>1030</ele>
        <time>2011-05-30T09:58:28Z</time>
      </trkpt>
      <trkpt lat="44.93086" lon="3.84577">
        <ele>1030</ele>
        <time>2011-05-30T09:58:38Z</time>
      </trkpt>
      <trkpt lat="44.93074" lon="3.84575">
        <ele>1030</ele>
        <time>2011-05-30T09:58:49Z</time>
      </trkpt>
      <trkpt lat="44.93063" lon="3.84573">
        <ele>1030</ele>
        <time>2011-05-30T09:58:59Z</time>
      </trkpt>
      <trkpt lat="44.93061" lon="3.84573">
        <ele>1030</ele>
        <time>2011-05-30T09:59:10Z</time>
      </trkpt>
      <trkpt lat="44.93052" lon="3.84572">
        <ele>1030</ele>
        <time>2011-05-30T09:59:20Z</time>
      </trkpt>
      <trkpt lat="44.93041" lon="3.84569">
        <ele>1030</ele>
        <time>2011-05-30T09:59:31Z</time>
      </trkpt>
      <trkpt lat="44.9303" lon="3.84568">
        <ele>1030</ele>
        <time>2011-05-30T09:59:41Z</time>
      </trkpt>
      <trkpt lat="44.93019" lon="3.84566">
        <ele>1030</ele>
        <time>2011-05-30T09:59:51Z</time>
      </trkpt>
      <trkpt lat="44.93008" lon="3.84564">
        <ele>1030</ele>
        <time>2011-05-30T10:00:02Z</time>
      </trkpt>
      <trkpt lat="44.92995" lon="3.84562">
        <ele>1030</ele>
        <time>2011-05-30T10:00:13Z</time>
      </trkpt>
      <trkpt lat="44.92983" lon="3.8456">
        <ele>1030</ele>
        <time>2011-05-30T10:00:24Z</time>
      </trkpt>
      <trkpt lat="44.92972" lon="3.84558">
        <ele>1030</ele>
        <time>2011-05-30T10:00:34Z</time>
      </trkpt>
      <trkpt lat="44.9296" lon="3.84556">
        <ele>1030</ele>
        <time>2011-05-30T10:00:44Z</time>
      </trkpt>
      <trkpt lat="44.92949" lon="3.84554">
        <ele>1030</ele>
        <time>2011-05-30T10:00:54Z</time>
      </trkpt>
      <trkpt lat="44.92938" lon="3.84553">
        <ele>1030</ele>
        <time>2011-05-30T10:01:04Z</time>
      </trkpt>
      <trkpt lat="44.92937" lon="3.84554">
        <ele>1030</ele>
        <time>2011-05-30T10:01:16Z</time>
      </trkpt>
      <trkpt lat="44.92926" lon="3.84565">
        <ele>1030</ele>
        <time>2011-05-30T10:01:28Z</time>
      </trkpt>
      <trkpt lat="44.92918" lon="3.84579">
        <ele>1030</ele>
        <time>2011-05-30T10:01:40Z</time>
      </trkpt>
      <trkpt lat="44.92915" lon="3.84585">
        <ele>1030</ele>
        <time>2011-05-30T10:01:51Z</time>
      </trkpt>
      <trkpt lat="44.92907" lon="3.84599">
        <ele>1030</ele>
        <time>2011-05-30T10:02:02Z</time>
      </trkpt>
      <trkpt lat="44.92901" lon="3.84612">
        <ele>1030</ele>
        <time>2011-05-30T10:02:12Z</time>
      </trkpt>
      <trkpt lat="44.92895" lon="3.84625">
        <ele>1029</ele>
        <time>2011-05-30T10:02:23Z</time>
      </trkpt>
      <trkpt lat="44.92887" lon="3.84643">
        <ele>1029</ele>
        <time>2011-05-30T10:02:33Z</time>
      </trkpt>
      <trkpt lat="44.9288" lon="3.84655">
        <ele>1029</ele>
        <time>2011-05-30T10:02:44Z</time>
      </trkpt>
      <trkpt lat="44.92875" lon="3.84665">
        <ele>1028</ele>
        <time>2011-05-30T10:02:54Z</time>
      </trkpt>
      <trkpt lat="44.92868" lon="3.84676">
        <ele>1026</ele>
        <time>2011-05-30T10:03:04Z</time>
      </trkpt>
      <trkpt lat="44.92861" lon="3.84689">
        <ele>1025</ele>
        <time>2011-05-30T10:03:14Z</time>
      </trkpt>
      <trkpt lat="44.92851" lon="3.84707">
        <ele>1024</ele>
        <time>2011-05-30T10:03:29Z</time>
      </trkpt>
      <trkpt lat="44.92847" lon="3.84719">
        <ele>1024</ele>
        <time>2011-05-30T10:03:39Z</time>
      </trkpt>
      <trkpt lat="44.92838" lon="3.84734">
        <ele>1024</ele>
        <time>2011-05-30T10:03:50Z</time>
      </trkpt>
      <trkpt lat="44.92831" lon="3.84747">
        <ele>1024</ele>
        <time>2011-05-30T10:04:00Z</time>
      </trkpt>
      <trkpt lat="44.92822" lon="3.84761">
        <ele>1024</ele>
        <time>2011-05-30T10:04:11Z</time>
      </trkpt>
      <trkpt lat="44.92815" lon="3.84773">
        <ele>1024</ele>
        <time>2011-05-30T10:04:21Z</time>
      </trkpt>
      <trkpt lat="44.92808" lon="3.84785">
        <ele>1024</ele>
        <time>2011-05-30T10:04:31Z</time>
      </trkpt>
      <trkpt lat="44.92803" lon="3.84797">
        <ele>1024</ele>
        <time>2011-05-30T10:04:41Z</time>
      </trkpt>
      <trkpt lat="44.92796" lon="3.84805">
        <ele>1024</ele>
        <time>2011-05-30T10:04:52Z</time>
      </trkpt>
      <trkpt lat="44.9279" lon="3.8482">
        <ele>1024</ele>
        <time>2011-05-30T10:05:03Z</time>
      </trkpt>
      <trkpt lat="44.92783" lon="3.84834">
        <ele>1024</ele>
        <time>2011-05-30T10:05:14Z</time>
      </trkpt>
      <trkpt lat="44.92777" lon="3.84847">
        <ele>1024</ele>
        <time>2011-05-30T10:05:24Z</time>
      </trkpt>
      <trkpt lat="44.92772" lon="3.84862">
        <ele>1024</ele>
        <time>2011-05-30T10:05:34Z</time>
      </trkpt>
      <trkpt lat="44.92768" lon="3.84879">
        <ele>1024</ele>
        <time>2011-05-30T10:05:44Z</time>
      </trkpt>
      <trkpt lat="44.92767" lon="3.84894">
        <ele>1024</ele>
        <time>2011-05-30T10:05:54Z</time>
      </trkpt>
      <trkpt lat="44.92768" lon="3.8491">
        <ele>1024</ele>
        <time>2011-05-30T10:06:04Z</time>
      </trkpt>
      <trkpt lat="44.92767" lon="3.84927">
        <ele>1024</ele>
        <time>2011-05-30T10:06:14Z</time>
      </trkpt>
      <trkpt lat="44.92768" lon="3.84944">
        <ele>1024</ele>
        <time>2011-05-30T10:06:25Z</time>
      </trkpt>
      <trkpt lat="44.92764" lon="3.84962">
        <ele>1023</ele>
        <time>2011-05-30T10:06:35Z</time>
      </trkpt>
      <trkpt lat="44.9276" lon="3.84978">
        <ele>1022</ele>
        <time>2011-05-30T10:06:45Z</time>
      </trkpt>
      <trkpt lat="44.92754" lon="3.84994">
        <ele>1022</ele>
        <time>2011-05-30T10:06:55Z</time>
      </trkpt>
      <trkpt lat="44.92747" lon="3.85009">
        <ele>1022</ele>
        <time>2011-05-30T10:07:05Z</time>
      </trkpt>
      <trkpt lat="44.9274" lon="3.85026">
        <ele>1022</ele>
        <time>2011-05-30T10:07:16Z</time>
      </trkpt>
      <trkpt lat="44.92733" lon="3.85041">
        <ele>1022</ele>
        <time>2011-05-30T10:07:26Z</time>
      </trkpt>
      <trkpt lat="44.92727" lon="3.85058">
        <ele>1022</ele>
        <time>2011-05-30T10:07:36Z</time>
      </trkpt>
      <trkpt lat="44.9272" lon="3.85075">
        <ele>1022</ele>
        <time>2011-05-30T10:07:47Z</time>
      </trkpt>
      <trkpt lat="44.92714" lon="3.85089">
        <ele>1021</ele>
        <time>2011-05-30T10:07:57Z</time>
      </trkpt>
      <trkpt lat="44.92708" lon="3.85105">
        <ele>1021</ele>
        <time>2011-05-30T10:08:07Z</time>
      </trkpt>
      <trkpt lat="44.92701" lon="3.8512">
        <ele>1021</ele>
        <time>2011-05-30T10:08:17Z</time>
      </trkpt>
      <trkpt lat="44.92697" lon="3.85136">
        <ele>1021</ele>
        <time>2011-05-30T10:08:27Z</time>
      </trkpt>
      <trkpt lat="44.92691" lon="3.85152">
        <ele>1021</ele>
        <time>2011-05-30T10:08:37Z</time>
      </trkpt>
      <trkpt lat="44.92688" lon="3.85168">
        <ele>1020</ele>
        <time>2011-05-30T10:08:47Z</time>
      </trkpt>
      <trkpt lat="44.92684" lon="3.85185">
        <ele>1019</ele>
        <time>2011-05-30T10:08:57Z</time>
      </trkpt>
      <trkpt lat="44.9268" lon="3.85202">
        <ele>1019</ele>
        <time>2011-05-30T10:09:07Z</time>
      </trkpt>
      <trkpt lat="44.92676" lon="3.8522">
        <ele>1019</ele>
        <time>2011-05-30T10:09:17Z</time>
      </trkpt>
      <trkpt lat="44.92672" lon="3.85237">
        <ele>1019</ele>
        <time>2011-05-30T10:09:27Z</time>
      </trkpt>
      <trkpt lat="44.92668" lon="3.85253">
        <ele>1017</ele>
        <time>2011-05-30T10:09:37Z</time>
      </trkpt>
      <trkpt lat="44.92665" lon="3.8527">
        <ele>1015</ele>
        <time>2011-05-30T10:09:47Z</time>
      </trkpt>
      <trkpt lat="44.92661" lon="3.85288">
        <ele>1014</ele>
        <time>2011-05-30T10:09:57Z</time>
      </trkpt>
      <trkpt lat="44.92657" lon="3.85303">
        <ele>1013</ele>
        <time>2011-05-30T10:10:07Z</time>
      </trkpt>
      <trkpt lat="44.9263" lon="3.85335">
        <ele>1008</ele>
        <time>2011-05-30T10:10:38Z</time>
      </trkpt>
      <trkpt lat="44.92617" lon="3.85343">
        <ele>1007</ele>
        <time>2011-05-30T10:10:49Z</time>
      </trkpt>
      <trkpt lat="44.92608" lon="3.8535">
        <ele>1007</ele>
        <time>2011-05-30T10:10:59Z</time>
      </trkpt>
      <trkpt lat="44.92598" lon="3.85357">
        <ele>1007</ele>
        <time>2011-05-30T10:11:09Z</time>
      </trkpt>
      <trkpt lat="44.92588" lon="3.85364">
        <ele>1007</ele>
        <time>2011-05-30T10:11:20Z</time>
      </trkpt>
      <trkpt lat="44.9258" lon="3.8537">
        <ele>1007</ele>
        <time>2011-05-30T10:11:30Z</time>
      </trkpt>
      <trkpt lat="44.92573" lon="3.85378">
        <ele>1007</ele>
        <time>2011-05-30T10:11:40Z</time>
      </trkpt>
      <trkpt lat="44.92571" lon="3.85389">
        <ele>1007</ele>
        <time>2011-05-30T10:11:50Z</time>
      </trkpt>
      <trkpt lat="44.92568" lon="3.85402">
        <ele>1007</ele>
        <time>2011-05-30T10:12:00Z</time>
      </trkpt>
      <trkpt lat="44.92567" lon="3.85418">
        <ele>1007</ele>
        <time>2011-05-30T10:12:10Z</time>
      </trkpt>
      <trkpt lat="44.92563" lon="3.85429">
        <ele>1006</ele>
        <time>2011-05-30T10:12:20Z</time>
      </trkpt>
      <trkpt lat="44.92559" lon="3.85436">
        <ele>1006</ele>
        <time>2011-05-30T10:12:30Z</time>
      </trkpt>
      <trkpt lat="44.92551" lon="3.8544">
        <ele>1006</ele>
        <time>2011-05-30T10:12:40Z</time>
      </trkpt>
      <trkpt lat="44.92548" lon="3.85455">
        <ele>1006</ele>
        <time>2011-05-30T10:12:50Z</time>
      </trkpt>
      <trkpt lat="44.92542" lon="3.85465">
        <ele>1005</ele>
        <time>2011-05-30T10:13:00Z</time>
      </trkpt>
      <trkpt lat="44.92535" lon="3.85477">
        <ele>999</ele>
        <time>2011-05-30T10:13:11Z</time>
      </trkpt>
      <trkpt lat="44.92528" lon="3.85497">
        <ele>999</ele>
        <time>2011-05-30T10:13:22Z</time>
      </trkpt>
      <trkpt lat="44.92526" lon="3.85508">
        <ele>999</ele>
        <time>2011-05-30T10:13:50Z</time>
      </trkpt>
      <trkpt lat="44.92523" lon="3.85523">
        <ele>999</ele>
        <time>2011-05-30T10:14:00Z</time>
      </trkpt>
      <trkpt lat="44.92521" lon="3.85538">
        <ele>999</ele>
        <time>2011-05-30T10:14:10Z</time>
      </trkpt>
      <trkpt lat="44.92521" lon="3.85553">
        <ele>999</ele>
        <time>2011-05-30T10:14:20Z</time>
      </trkpt>
      <trkpt lat="44.92514" lon="3.85563">
        <ele>999</ele>
        <time>2011-05-30T10:14:30Z</time>
      </trkpt>
      <trkpt lat="44.92506" lon="3.85572">
        <ele>998</ele>
        <time>2011-05-30T10:14:40Z</time>
      </trkpt>
      <trkpt lat="44.92498" lon="3.8558">
        <ele>996</ele>
        <time>2011-05-30T10:14:50Z</time>
      </trkpt>
      <trkpt lat="44.92489" lon="3.85585">
        <ele>995</ele>
        <time>2011-05-30T10:15:00Z</time>
      </trkpt>
      <trkpt lat="44.92479" lon="3.85587">
        <ele>995</ele>
        <time>2011-05-30T10:15:10Z</time>
      </trkpt>
      <trkpt lat="44.92467" lon="3.85582">
        <ele>995</ele>
        <time>2011-05-30T10:15:21Z</time>
      </trkpt>
      <trkpt lat="44.92458" lon="3.85575">
        <ele>994</ele>
        <time>2011-05-30T10:15:31Z</time>
      </trkpt>
      <trkpt lat="44.9245" lon="3.85567">
        <ele>993</ele>
        <time>2011-05-30T10:15:41Z</time>
      </trkpt>
      <trkpt lat="44.92442" lon="3.85554">
        <ele>991</ele>
        <time>2011-05-30T10:15:52Z</time>
      </trkpt>
      <trkpt lat="44.92434" lon="3.85541">
        <ele>990</ele>
        <time>2011-05-30T10:16:02Z</time>
      </trkpt>
      <trkpt lat="44.9243" lon="3.85535">
        <ele>989</ele>
        <time>2011-05-30T10:16:12Z</time>
      </trkpt>
      <trkpt lat="44.92422" lon="3.85525">
        <ele>989</ele>
        <time>2011-05-30T10:16:22Z</time>
      </trkpt>
      <trkpt lat="44.92411" lon="3.85518">
        <ele>988</ele>
        <time>2011-05-30T10:16:33Z</time>
      </trkpt>
      <trkpt lat="44.92406" lon="3.85512">
        <ele>987</ele>
        <time>2011-05-30T10:16:43Z</time>
      </trkpt>
      <trkpt lat="44.92393" lon="3.85508">
        <ele>987</ele>
        <time>2011-05-30T10:16:53Z</time>
      </trkpt>
      <trkpt lat="44.92378" lon="3.85502">
        <ele>987</ele>
        <time>2011-05-30T10:17:04Z</time>
      </trkpt>
      <trkpt lat="44.92366" lon="3.85494">
        <ele>987</ele>
        <time>2011-05-30T10:17:15Z</time>
      </trkpt>
      <trkpt lat="44.92356" lon="3.85488">
        <ele>986</ele>
        <time>2011-05-30T10:17:25Z</time>
      </trkpt>
      <trkpt lat="44.92345" lon="3.85486">
        <ele>986</ele>
        <time>2011-05-30T10:17:35Z</time>
      </trkpt>
      <trkpt lat="44.92335" lon="3.85485">
        <ele>986</ele>
        <time>2011-05-30T10:17:45Z</time>
      </trkpt>
      <trkpt lat="44.92332" lon="3.85485">
        <ele>986</ele>
        <time>2011-05-30T10:17:57Z</time>
      </trkpt>
      <trkpt lat="44.92324" lon="3.8548">
        <ele>986</ele>
        <time>2011-05-30T10:18:07Z</time>
      </trkpt>
      <trkpt lat="44.92314" lon="3.85475">
        <ele>986</ele>
        <time>2011-05-30T10:18:18Z</time>
      </trkpt>
      <trkpt lat="44.92304" lon="3.85473">
        <ele>986</ele>
        <time>2011-05-30T10:18:28Z</time>
      </trkpt>
      <trkpt lat="44.92294" lon="3.8547">
        <ele>986</ele>
        <time>2011-05-30T10:18:39Z</time>
      </trkpt>
      <trkpt lat="44.92284" lon="3.85469">
        <ele>986</ele>
        <time>2011-05-30T10:18:50Z</time>
      </trkpt>
      <trkpt lat="44.92277" lon="3.85469">
        <ele>986</ele>
        <time>2011-05-30T10:19:00Z</time>
      </trkpt>
      <trkpt lat="44.92268" lon="3.85467">
        <ele>986</ele>
        <time>2011-05-30T10:19:10Z</time>
      </trkpt>
      <trkpt lat="44.92258" lon="3.85463">
        <ele>986</ele>
        <time>2011-05-30T10:19:23Z</time>
      </trkpt>
      <trkpt lat="44.92257" lon="3.85466">
        <ele>989</ele>
        <time>2011-05-30T10:19:33Z</time>
      </trkpt>
      <trkpt lat="44.92262" lon="3.85471">
        <ele>990</ele>
        <time>2011-05-30T10:19:44Z</time>
      </trkpt>
      <trkpt lat="44.92265" lon="3.85478">
        <ele>990</ele>
        <time>2011-05-30T10:19:55Z</time>
      </trkpt>
      <trkpt lat="44.9227" lon="3.85487">
        <ele>990</ele>
        <time>2011-05-30T10:20:05Z</time>
      </trkpt>
      <trkpt lat="44.92272" lon="3.85494">
        <ele>990</ele>
        <time>2011-05-30T10:20:16Z</time>
      </trkpt>
      <trkpt lat="44.9227" lon="3.85493">
        <ele>988</ele>
        <time>2011-05-30T10:20:35Z</time>
      </trkpt>
      <trkpt lat="44.9227" lon="3.85494">
        <ele>987</ele>
        <time>2011-05-30T10:20:50Z</time>
      </trkpt>
      <trkpt lat="44.9227" lon="3.85492">
        <ele>987</ele>
        <time>2011-05-30T10:21:30Z</time>
      </trkpt>
      <trkpt lat="44.92271" lon="3.85492">
        <ele>987</ele>
        <time>2011-05-30T10:21:49Z</time>
      </trkpt>
      <trkpt lat="44.92272" lon="3.85494">
        <ele>988</ele>
        <time>2011-05-30T10:21:59Z</time>
      </trkpt>
      <trkpt lat="44.92275" lon="3.85495">
        <ele>988</ele>
        <time>2011-05-30T10:22:11Z</time>
      </trkpt>
      <trkpt lat="44.92279" lon="3.85499">
        <ele>990</ele>
        <time>2011-05-30T10:22:23Z</time>
      </trkpt>
      <trkpt lat="44.9228" lon="3.85505">
        <ele>990</ele>
        <time>2011-05-30T10:22:38Z</time>
      </trkpt>
      <trkpt lat="44.9228" lon="3.85506">
        <ele>990</ele>
        <time>2011-05-30T10:22:50Z</time>
      </trkpt>
      <trkpt lat="44.9228" lon="3.85509">
        <ele>991</ele>
        <time>2011-05-30T10:23:14Z</time>
      </trkpt>
      <trkpt lat="44.92281" lon="3.85508">
        <ele>991</ele>
        <time>2011-05-30T10:23:25Z</time>
      </trkpt>
      <trkpt lat="44.92282" lon="3.85508">
        <ele>991</ele>
        <time>2011-05-30T10:23:59Z</time>
      </trkpt>
      <trkpt lat="44.92283" lon="3.85508">
        <ele>991</ele>
        <time>2011-05-30T10:24:14Z</time>
      </trkpt>
      <trkpt lat="44.92284" lon="3.85508">
        <ele>991</ele>
        <time>2011-05-30T10:24:31Z</time>
      </trkpt>
      <trkpt lat="44.92283" lon="3.85507">
        <ele>991</ele>
        <time>2011-05-30T10:24:41Z</time>
      </trkpt>
      <trkpt lat="44.9228" lon="3.85511">
        <ele>992</ele>
        <time>2011-05-30T10:24:58Z</time>
      </trkpt>
      <trkpt lat="44.9228" lon="3.8551">
        <ele>992</ele>
        <time>2011-05-30T10:25:12Z</time>
      </trkpt>
      <trkpt lat="44.92281" lon="3.85507">
        <ele>992</ele>
        <time>2011-05-30T10:25:27Z</time>
      </trkpt>
      <trkpt lat="44.92281" lon="3.85504">
        <ele>992</ele>
        <time>2011-05-30T10:25:40Z</time>
      </trkpt>
      <trkpt lat="44.92282" lon="3.85507">
        <ele>992</ele>
        <time>2011-05-30T10:25:57Z</time>
      </trkpt>
      <trkpt lat="44.92281" lon="3.85508">
        <ele>987</ele>
        <time>2011-05-30T10:26:24Z</time>
      </trkpt>
      <trkpt lat="44.92281" lon="3.85505">
        <ele>987</ele>
        <time>2011-05-30T10:26:36Z</time>
      </trkpt>
      <trkpt lat="44.92282" lon="3.85505">
        <ele>987</ele>
        <time>2011-05-30T10:26:47Z</time>
      </trkpt>
      <trkpt lat="44.92281" lon="3.85506">
        <ele>987</ele>
        <time>2011-05-30T10:26:58Z</time>
      </trkpt>
      <trkpt lat="44.92281" lon="3.85504">
        <ele>987</ele>
        <time>2011-05-30T10:27:28Z</time>
      </trkpt>
      <trkpt lat="44.92281" lon="3.85506">
        <ele>987</ele>
        <time>2011-05-30T10:27:39Z</time>
      </trkpt>
      <trkpt lat="44.9228" lon="3.85506">
        <ele>990</ele>
        <time>2011-05-30T10:27:59Z</time>
      </trkpt>
      <trkpt lat="44.9228" lon="3.85507">
        <ele>991</ele>
        <time>2011-05-30T10:28:51Z</time>
      </trkpt>
      <trkpt lat="44.92279" lon="3.85507">
        <ele>996</ele>
        <time>2011-05-30T10:29:03Z</time>
      </trkpt>
      <trkpt lat="44.92279" lon="3.85506">
        <ele>996</ele>
        <time>2011-05-30T10:29:15Z</time>
      </trkpt>
      <trkpt lat="44.92281" lon="3.85504">
        <ele>993</ele>
        <time>2011-05-30T10:29:36Z</time>
      </trkpt>
      <trkpt lat="44.92279" lon="3.85505">
        <ele>990</ele>
        <time>2011-05-30T10:30:23Z</time>
      </trkpt>
      <trkpt lat="44.92281" lon="3.85504">
        <ele>989</ele>
        <time>2011-05-30T10:30:44Z</time>
      </trkpt>
      <trkpt lat="44.92282" lon="3.85504">
        <ele>988</ele>
        <time>2011-05-30T10:30:59Z</time>
      </trkpt>
      <trkpt lat="44.92281" lon="3.85505">
        <ele>987</ele>
        <time>2011-05-30T10:31:29Z</time>
      </trkpt>
      <trkpt lat="44.92282" lon="3.85507">
        <ele>987</ele>
        <time>2011-05-30T10:32:00Z</time>
      </trkpt>
      <trkpt lat="44.92282" lon="3.85505">
        <ele>987</ele>
        <time>2011-05-30T10:32:10Z</time>
      </trkpt>
      <trkpt lat="44.92281" lon="3.85504">
        <ele>987</ele>
        <time>2011-05-30T10:32:38Z</time>
      </trkpt>
      <trkpt lat="44.9228" lon="3.85505">
        <ele>989</ele>
        <time>2011-05-30T10:33:09Z</time>
      </trkpt>
      <trkpt lat="44.9228" lon="3.85506">
        <ele>993</ele>
        <time>2011-05-30T10:33:55Z</time>
      </trkpt>
      <trkpt lat="44.9228" lon="3.85507">
        <ele>993</ele>
        <time>2011-05-30T10:34:12Z</time>
      </trkpt>
      <trkpt lat="44.92281" lon="3.85508">
        <ele>993</ele>
        <time>2011-05-30T10:34:34Z</time>
      </trkpt>
      <trkpt lat="44.92282" lon="3.85506">
        <ele>993</ele>
        <time>2011-05-30T10:34:45Z</time>
      </trkpt>
      <trkpt lat="44.92281" lon="3.85506">
        <ele>994</ele>
        <time>2011-05-30T10:35:00Z</time>
      </trkpt>
      <trkpt lat="44.9228" lon="3.85503">
        <ele>994</ele>
        <time>2011-05-30T10:35:14Z</time>
      </trkpt>
      <trkpt lat="44.92279" lon="3.85504">
        <ele>994</ele>
        <time>2011-05-30T10:35:29Z</time>
      </trkpt>
      <trkpt lat="44.92278" lon="3.85504">
        <ele>994</ele>
        <time>2011-05-30T10:35:44Z</time>
      </trkpt>
      <trkpt lat="44.92279" lon="3.85504">
        <ele>993</ele>
        <time>2011-05-30T10:36:10Z</time>
      </trkpt>
      <trkpt lat="44.92278" lon="3.85505">
        <ele>993</ele>
        <time>2011-05-30T10:36:30Z</time>
      </trkpt>
      <trkpt lat="44.92277" lon="3.85504">
        <ele>993</ele>
        <time>2011-05-30T10:36:50Z</time>
      </trkpt>
      <trkpt lat="44.92277" lon="3.85502">
        <ele>993</ele>
        <time>2011-05-30T10:37:00Z</time>
      </trkpt>
      <trkpt lat="44.92276" lon="3.855">
        <ele>993</ele>
        <time>2011-05-30T10:37:18Z</time>
      </trkpt>
      <trkpt lat="44.92275" lon="3.85498">
        <ele>993</ele>
        <time>2011-05-30T10:37:34Z</time>
      </trkpt>
      <trkpt lat="44.92276" lon="3.85499">
        <ele>993</ele>
        <time>2011-05-30T10:37:46Z</time>
      </trkpt>
      <trkpt lat="44.92277" lon="3.85501">
        <ele>993</ele>
        <time>2011-05-30T10:38:10Z</time>
      </trkpt>
      <trkpt lat="44.9228" lon="3.85501">
        <ele>993</ele>
        <time>2011-05-30T10:38:54Z</time>
      </trkpt>
      <trkpt lat="44.92281" lon="3.85503">
        <ele>993</ele>
        <time>2011-05-30T10:39:07Z</time>
      </trkpt>
      <trkpt lat="44.92282" lon="3.85503">
        <ele>993</ele>
        <time>2011-05-30T10:39:23Z</time>
      </trkpt>
      <trkpt lat="44.92281" lon="3.85503">
        <ele>990</ele>
        <time>2011-05-30T10:39:49Z</time>
      </trkpt>
      <trkpt lat="44.9228" lon="3.85505">
        <ele>990</ele>
        <time>2011-05-30T10:40:58Z</time>
      </trkpt>
      <trkpt lat="44.92278" lon="3.85502">
        <ele>991</ele>
        <time>2011-05-30T10:41:11Z</time>
      </trkpt>
      <trkpt lat="44.92277" lon="3.85502">
        <ele>993</ele>
        <time>2011-05-30T10:41:25Z</time>
      </trkpt>
      <trkpt lat="44.92277" lon="3.85498">
        <ele>993</ele>
        <time>2011-05-30T10:42:10Z</time>
      </trkpt>
      <trkpt lat="44.92278" lon="3.85499">
        <ele>993</ele>
        <time>2011-05-30T10:42:28Z</time>
      </trkpt>
      <trkpt lat="44.92278" lon="3.855">
        <ele>993</ele>
        <time>2011-05-30T10:42:47Z</time>
      </trkpt>
      <trkpt lat="44.92278" lon="3.85505">
        <ele>993</ele>
        <time>2011-05-30T10:43:17Z</time>
      </trkpt>
      <trkpt lat="44.92279" lon="3.85504">
        <ele>993</ele>
        <time>2011-05-30T10:43:35Z</time>
      </trkpt>
      <trkpt lat="44.92279" lon="3.85505">
        <ele>996</ele>
        <time>2011-05-30T10:43:55Z</time>
      </trkpt>
      <trkpt lat="44.9228" lon="3.85507">
        <ele>996</ele>
        <time>2011-05-30T10:44:10Z</time>
      </trkpt>
      <trkpt lat="44.92279" lon="3.85506">
        <ele>996</ele>
        <time>2011-05-30T10:44:55Z</time>
      </trkpt>
      <trkpt lat="44.9228" lon="3.85506">
        <ele>996</ele>
        <time>2011-05-30T10:45:12Z</time>
      </trkpt>
      <trkpt lat="44.9228" lon="3.85506">
        <ele>997</ele>
        <time>2011-05-30T10:45:27Z</time>
      </trkpt>
      <trkpt lat="44.92281" lon="3.85506">
        <ele>998</ele>
        <time>2011-05-30T10:46:07Z</time>
      </trkpt>
      <trkpt lat="44.92282" lon="3.85506">
        <ele>999</ele>
        <time>2011-05-30T10:46:31Z</time>
      </trkpt>
      <trkpt lat="44.92281" lon="3.85506">
        <ele>999</ele>
        <time>2011-05-30T10:47:20Z</time>
      </trkpt>
      <trkpt lat="44.92282" lon="3.85507">
        <ele>998</ele>
        <time>2011-05-30T10:48:14Z</time>
      </trkpt>
      <trkpt lat="44.92284" lon="3.85508">
        <ele>996</ele>
        <time>2011-05-30T10:48:52Z</time>
      </trkpt>
      <trkpt lat="44.92282" lon="3.85509">
        <ele>995</ele>
        <time>2011-05-30T10:49:13Z</time>
      </trkpt>
      <trkpt lat="44.92281" lon="3.85508">
        <ele>994</ele>
        <time>2011-05-30T10:49:23Z</time>
      </trkpt>
      <trkpt lat="44.92282" lon="3.85507">
        <ele>994</ele>
        <time>2011-05-30T10:49:49Z</time>
      </trkpt>
      <trkpt lat="44.92283" lon="3.85507">
        <ele>994</ele>
        <time>2011-05-30T10:50:04Z</time>
      </trkpt>
      <trkpt lat="44.92282" lon="3.85506">
        <ele>994</ele>
        <time>2011-05-30T10:50:36Z</time>
      </trkpt>
      <trkpt lat="44.92281" lon="3.85504">
        <ele>994</ele>
        <time>2011-05-30T10:51:19Z</time>
      </trkpt>
      <trkpt lat="44.92282" lon="3.85504">
        <ele>994</ele>
        <time>2011-05-30T10:51:33Z</time>
      </trkpt>
      <trkpt lat="44.92281" lon="3.85505">
        <ele>994</ele>
        <time>2011-05-30T10:51:50Z</time>
      </trkpt>
      <trkpt lat="44.92283" lon="3.85506">
        <ele>994</ele>
        <time>2011-05-30T10:52:47Z</time>
      </trkpt>
      <trkpt lat="44.92281" lon="3.85504">
        <ele>994</ele>
        <time>2011-05-30T10:53:51Z</time>
      </trkpt>
      <trkpt lat="44.92282" lon="3.85506">
        <ele>994</ele>
        <time>2011-05-30T10:55:19Z</time>
      </trkpt>
      <trkpt lat="44.92283" lon="3.85506">
        <ele>994</ele>
        <time>2011-05-30T10:55:45Z</time>
      </trkpt>
      <trkpt lat="44.92282" lon="3.85507">
        <ele>994</ele>
        <time>2011-05-30T10:56:47Z</time>
      </trkpt>
      <trkpt lat="44.92281" lon="3.85508">
        <ele>994</ele>
        <time>2011-05-30T10:57:23Z</time>
      </trkpt>
      <trkpt lat="44.92282" lon="3.85508">
        <ele>996</ele>
        <time>2011-05-30T10:57:43Z</time>
      </trkpt>
      <trkpt lat="44.92282" lon="3.85509">
        <ele>998</ele>
        <time>2011-05-30T10:57:57Z</time>
      </trkpt>
      <trkpt lat="44.92283" lon="3.8551">
        <ele>998</ele>
        <time>2011-05-30T10:58:11Z</time>
      </trkpt>
      <trkpt lat="44.92283" lon="3.85507">
        <ele>998</ele>
        <time>2011-05-30T10:58:27Z</time>
      </trkpt>
      <trkpt lat="44.9228" lon="3.85507">
        <ele>998</ele>
        <time>2011-05-30T10:58:47Z</time>
      </trkpt>
      <trkpt lat="44.92279" lon="3.85506">
        <ele>998</ele>
        <time>2011-05-30T10:59:15Z</time>
      </trkpt>
      <trkpt lat="44.92281" lon="3.85506">
        <ele>998</ele>
        <time>2011-05-30T10:59:52Z</time>
      </trkpt>
      <trkpt lat="44.92281" lon="3.85509">
        <ele>996</ele>
        <time>2011-05-30T11:00:13Z</time>
      </trkpt>
      <trkpt lat="44.92282" lon="3.85509">
        <ele>996</ele>
        <time>2011-05-30T11:00:26Z</time>
      </trkpt>
      <trkpt lat="44.9228" lon="3.85507">
        <ele>995</ele>
        <time>2011-05-30T11:00:38Z</time>
      </trkpt>
      <trkpt lat="44.92281" lon="3.85507">
        <ele>991</ele>
        <time>2011-05-30T11:01:01Z</time>
      </trkpt>
      <trkpt lat="44.92282" lon="3.85509">
        <ele>991</ele>
        <time>2011-05-30T11:01:24Z</time>
      </trkpt>
      <trkpt lat="44.92284" lon="3.85511">
        <ele>995</ele>
        <time>2011-05-30T11:01:36Z</time>
      </trkpt>
      <trkpt lat="44.92282" lon="3.85513">
        <ele>999</ele>
        <time>2011-05-30T11:01:47Z</time>
      </trkpt>
      <trkpt lat="44.92279" lon="3.85511">
        <ele>996</ele>
        <time>2011-05-30T11:02:01Z</time>
      </trkpt>
      <trkpt lat="44.92278" lon="3.8551">
        <ele>996</ele>
        <time>2011-05-30T11:02:11Z</time>
      </trkpt>
      <trkpt lat="44.9228" lon="3.85507">
        <ele>996</ele>
        <time>2011-05-30T11:02:21Z</time>
      </trkpt>
      <trkpt lat="44.92281" lon="3.85509">
        <ele>996</ele>
        <time>2011-05-30T11:02:35Z</time>
      </trkpt>
      <trkpt lat="44.92281" lon="3.85507">
        <ele>996</ele>
        <time>2011-05-30T11:02:48Z</time>
      </trkpt>
      <trkpt lat="44.92283" lon="3.85508">
        <ele>996</ele>
        <time>2011-05-30T11:03:15Z</time>
      </trkpt>
      <trkpt lat="44.92282" lon="3.85509">
        <ele>996</ele>
        <time>2011-05-30T11:03:40Z</time>
      </trkpt>
      <trkpt lat="44.92282" lon="3.85508">
        <ele>995</ele>
        <time>2011-05-30T11:03:55Z</time>
      </trkpt>
      <trkpt lat="44.92281" lon="3.8551">
        <ele>993</ele>
        <time>2011-05-30T11:04:13Z</time>
      </trkpt>
      <trkpt lat="44.9228" lon="3.85511">
        <ele>992</ele>
        <time>2011-05-30T11:04:23Z</time>
      </trkpt>
      <trkpt lat="44.92283" lon="3.85513">
        <ele>994</ele>
        <time>2011-05-30T11:04:36Z</time>
      </trkpt>
      <trkpt lat="44.92282" lon="3.85514">
        <ele>998</ele>
        <time>2011-05-30T11:04:52Z</time>
      </trkpt>
      <trkpt lat="44.9228" lon="3.85512">
        <ele>994</ele>
        <time>2011-05-30T11:05:04Z</time>
      </trkpt>
      <trkpt lat="44.9228" lon="3.85509">
        <ele>994</ele>
        <time>2011-05-30T11:05:14Z</time>
      </trkpt>
      <trkpt lat="44.92283" lon="3.85507">
        <ele>994</ele>
        <time>2011-05-30T11:05:27Z</time>
      </trkpt>
      <trkpt lat="44.92283" lon="3.8551">
        <ele>994</ele>
        <time>2011-05-30T11:05:37Z</time>
      </trkpt>
      <trkpt lat="44.9228" lon="3.8551">
        <ele>994</ele>
        <time>2011-05-30T11:05:50Z</time>
      </trkpt>
      <trkpt lat="44.92278" lon="3.8551">
        <ele>988</ele>
        <time>2011-05-30T11:06:05Z</time>
      </trkpt>
      <trkpt lat="44.92277" lon="3.85509">
        <ele>985</ele>
        <time>2011-05-30T11:06:21Z</time>
      </trkpt>
      <trkpt lat="44.92277" lon="3.85508">
        <ele>985</ele>
        <time>2011-05-30T11:06:39Z</time>
      </trkpt>
      <trkpt lat="44.9228" lon="3.85506">
        <ele>987</ele>
        <time>2011-05-30T11:06:51Z</time>
      </trkpt>
      <trkpt lat="44.92281" lon="3.85504">
        <ele>992</ele>
        <time>2011-05-30T11:07:02Z</time>
      </trkpt>
      <trkpt lat="44.9228" lon="3.85503">
        <ele>992</ele>
        <time>2011-05-30T11:07:15Z</time>
      </trkpt>
      <trkpt lat="44.92279" lon="3.85504">
        <ele>991</ele>
        <time>2011-05-30T11:07:30Z</time>
      </trkpt>
      <trkpt lat="44.9228" lon="3.85505">
        <ele>989</ele>
        <time>2011-05-30T11:07:53Z</time>
      </trkpt>
      <trkpt lat="44.92285" lon="3.85506">
        <ele>996</ele>
        <time>2011-05-30T11:08:10Z</time>
      </trkpt>
      <trkpt lat="44.92286" lon="3.85507">
        <ele>997</ele>
        <time>2011-05-30T11:08:51Z</time>
      </trkpt>
      <trkpt lat="44.92282" lon="3.85508">
        <ele>997</ele>
        <time>2011-05-30T11:09:35Z</time>
      </trkpt>
      <trkpt lat="44.92281" lon="3.85508">
        <ele>997</ele>
        <time>2011-05-30T11:10:01Z</time>
      </trkpt>
      <trkpt lat="44.9228" lon="3.85508">
        <ele>995</ele>
        <time>2011-05-30T11:10:34Z</time>
      </trkpt>
      <trkpt lat="44.92281" lon="3.85507">
        <ele>994</ele>
        <time>2011-05-30T11:11:45Z</time>
      </trkpt>
      <trkpt lat="44.92281" lon="3.85505">
        <ele>994</ele>
        <time>2011-05-30T11:12:22Z</time>
      </trkpt>
      <trkpt lat="44.92282" lon="3.85505">
        <ele>994</ele>
        <time>2011-05-30T11:12:44Z</time>
      </trkpt>
      <trkpt lat="44.92282" lon="3.85507">
        <ele>995</ele>
        <time>2011-05-30T11:13:03Z</time>
      </trkpt>
      <trkpt lat="44.92281" lon="3.85506">
        <ele>995</ele>
        <time>2011-05-30T11:13:25Z</time>
      </trkpt>
      <trkpt lat="44.92281" lon="3.85507">
        <ele>995</ele>
        <time>2011-05-30T11:13:40Z</time>
      </trkpt>
      <trkpt lat="44.9228" lon="3.85505">
        <ele>995</ele>
        <time>2011-05-30T11:14:40Z</time>
      </trkpt>
      <trkpt lat="44.92281" lon="3.85504">
        <ele>995</ele>
        <time>2011-05-30T11:15:02Z</time>
      </trkpt>
      <trkpt lat="44.92281" lon="3.85504">
        <ele>997</ele>
        <time>2011-05-30T11:16:16Z</time>
      </trkpt>
      <trkpt lat="44.92282" lon="3.85506">
        <ele>997</ele>
        <time>2011-05-30T11:16:30Z</time>
      </trkpt>
      <trkpt lat="44.92284" lon="3.85505">
        <ele>997</ele>
        <time>2011-05-30T11:17:09Z</time>
      </trkpt>
      <trkpt lat="44.92285" lon="3.85506">
        <ele>997</ele>
        <time>2011-05-30T11:17:23Z</time>
      </trkpt>
      <trkpt lat="44.92281" lon="3.85507">
        <ele>997</ele>
        <time>2011-05-30T11:17:35Z</time>
      </trkpt>
      <trkpt lat="44.9228" lon="3.85507">
        <ele>997</ele>
        <time>2011-05-30T11:18:02Z</time>
      </trkpt>
      <trkpt lat="44.9228" lon="3.85505">
        <ele>997</ele>
        <time>2011-05-30T11:18:15Z</time>
      </trkpt>
      <trkpt lat="44.92279" lon="3.85508">
        <ele>998</ele>
        <time>2011-05-30T11:18:25Z</time>
      </trkpt>
      <trkpt lat="44.92278" lon="3.8551">
        <ele>999</ele>
        <time>2011-05-30T11:18:36Z</time>
      </trkpt>
      <trkpt lat="44.92279" lon="3.85509">
        <ele>999</ele>
        <time>2011-05-30T11:18:49Z</time>
      </trkpt>
      <trkpt lat="44.92281" lon="3.85509">
        <ele>999</ele>
        <time>2011-05-30T11:19:14Z</time>
      </trkpt>
      <trkpt lat="44.92283" lon="3.85506">
        <ele>999</ele>
        <time>2011-05-30T11:19:34Z</time>
      </trkpt>
      <trkpt lat="44.92282" lon="3.85507">
        <ele>999</ele>
        <time>2011-05-30T11:20:25Z</time>
      </trkpt>
      <trkpt lat="44.92284" lon="3.85506">
        <ele>1000</ele>
        <time>2011-05-30T11:20:37Z</time>
      </trkpt>
      <trkpt lat="44.92286" lon="3.85507">
        <ele>1002</ele>
        <time>2011-05-30T11:20:51Z</time>
      </trkpt>
      <trkpt lat="44.92285" lon="3.85508">
        <ele>1003</ele>
        <time>2011-05-30T11:21:06Z</time>
      </trkpt>
      <trkpt lat="44.92282" lon="3.85509">
        <ele>1003</ele>
        <time>2011-05-30T11:21:25Z</time>
      </trkpt>
      <trkpt lat="44.92281" lon="3.85509">
        <ele>1003</ele>
        <time>2011-05-30T11:21:39Z</time>
      </trkpt>
      <trkpt lat="44.9228" lon="3.85509">
        <ele>1002</ele>
        <time>2011-05-30T11:21:50Z</time>
      </trkpt>
      <trkpt lat="44.92279" lon="3.85511">
        <ele>997</ele>
        <time>2011-05-30T11:22:01Z</time>
      </trkpt>
      <trkpt lat="44.92279" lon="3.85509">
        <ele>995</ele>
        <time>2011-05-30T11:22:12Z</time>
      </trkpt>
      <trkpt lat="44.92281" lon="3.85509">
        <ele>998</ele>
        <time>2011-05-30T11:22:31Z</time>
      </trkpt>
      <trkpt lat="44.92283" lon="3.85513">
        <ele>1003</ele>
        <time>2011-05-30T11:22:47Z</time>
      </trkpt>
      <trkpt lat="44.92282" lon="3.85512">
        <ele>1004</ele>
        <time>2011-05-30T11:22:58Z</time>
      </trkpt>
      <trkpt lat="44.9228" lon="3.8551">
        <ele>1001</ele>
        <time>2011-05-30T11:23:14Z</time>
      </trkpt>
      <trkpt lat="44.92279" lon="3.85509">
        <ele>1000</ele>
        <time>2011-05-30T11:23:24Z</time>
      </trkpt>
      <trkpt lat="44.92279" lon="3.85507">
        <ele>1000</ele>
        <time>2011-05-30T11:23:34Z</time>
      </trkpt>
      <trkpt lat="44.92278" lon="3.85506">
        <ele>1000</ele>
        <time>2011-05-30T11:24:12Z</time>
      </trkpt>
      <trkpt lat="44.92278" lon="3.85504">
        <ele>1000</ele>
        <time>2011-05-30T11:24:29Z</time>
      </trkpt>
      <trkpt lat="44.92279" lon="3.85506">
        <ele>1000</ele>
        <time>2011-05-30T11:24:41Z</time>
      </trkpt>
      <trkpt lat="44.92281" lon="3.85505">
        <ele>1000</ele>
        <time>2011-05-30T11:24:52Z</time>
      </trkpt>
      <trkpt lat="44.92281" lon="3.85504">
        <ele>1000</ele>
        <time>2011-05-30T11:25:14Z</time>
      </trkpt>
      <trkpt lat="44.92287" lon="3.85508">
        <ele>1000</ele>
        <time>2011-05-30T11:25:26Z</time>
      </trkpt>
      <trkpt lat="44.92286" lon="3.85509">
        <ele>1001</ele>
        <time>2011-05-30T11:25:41Z</time>
      </trkpt>
      <trkpt lat="44.92285" lon="3.85509">
        <ele>1002</ele>
        <time>2011-05-30T11:25:55Z</time>
      </trkpt>
      <trkpt lat="44.92284" lon="3.85508">
        <ele>1004</ele>
        <time>2011-05-30T11:26:08Z</time>
      </trkpt>
      <trkpt lat="44.92283" lon="3.85508">
        <ele>1004</ele>
        <time>2011-05-30T11:26:23Z</time>
      </trkpt>
      <trkpt lat="44.92284" lon="3.85505">
        <ele>1005</ele>
        <time>2011-05-30T11:27:05Z</time>
      </trkpt>
      <trkpt lat="44.92283" lon="3.85506">
        <ele>1005</ele>
        <time>2011-05-30T11:27:31Z</time>
      </trkpt>
      <trkpt lat="44.92282" lon="3.85507">
        <ele>1003</ele>
        <time>2011-05-30T11:28:13Z</time>
      </trkpt>
      <trkpt lat="44.92281" lon="3.85507">
        <ele>1003</ele>
        <time>2011-05-30T11:28:48Z</time>
      </trkpt>
      <trkpt lat="44.9228" lon="3.85508">
        <ele>1000</ele>
        <time>2011-05-30T11:29:24Z</time>
      </trkpt>
      <trkpt lat="44.92281" lon="3.85507">
        <ele>999</ele>
        <time>2011-05-30T11:29:37Z</time>
      </trkpt>
      <trkpt lat="44.9228" lon="3.85505">
        <ele>999</ele>
        <time>2011-05-30T11:29:48Z</time>
      </trkpt>
      <trkpt lat="44.92277" lon="3.85507">
        <ele>994</ele>
        <time>2011-05-30T11:30:02Z</time>
      </trkpt>
      <trkpt lat="44.9228" lon="3.85506">
        <ele>997</ele>
        <time>2011-05-30T11:30:34Z</time>
      </trkpt>
      <trkpt lat="44.92279" lon="3.85505">
        <ele>997</ele>
        <time>2011-05-30T11:31:31Z</time>
      </trkpt>
      <trkpt lat="44.92278" lon="3.85504">
        <ele>997</ele>
        <time>2011-05-30T11:31:42Z</time>
      </trkpt>
      <trkpt lat="44.92277" lon="3.85502">
        <ele>1001</ele>
        <time>2011-05-30T11:32:03Z</time>
      </trkpt>
      <trkpt lat="44.92278" lon="3.85505">
        <ele>1001</ele>
        <time>2011-05-30T11:32:19Z</time>
      </trkpt>
      <trkpt lat="44.92278" lon="3.85506">
        <ele>1001</ele>
        <time>2011-05-30T11:32:35Z</time>
      </trkpt>
      <trkpt lat="44.92278" lon="3.85507">
        <ele>1000</ele>
        <time>2011-05-30T11:32:51Z</time>
      </trkpt>
      <trkpt lat="44.92277" lon="3.85507">
        <ele>999</ele>
        <time>2011-05-30T11:33:02Z</time>
      </trkpt>
      <trkpt lat="44.92277" lon="3.85507">
        <ele>999</ele>
        <time>2011-05-30T11:33:12Z</time>
      </trkpt>
      <trkpt lat="44.92278" lon="3.85506">
        <ele>998</ele>
        <time>2011-05-30T11:33:22Z</time>
      </trkpt>
      <trkpt lat="44.92278" lon="3.85508">
        <ele>997</ele>
        <time>2011-05-30T11:33:43Z</time>
      </trkpt>
      <trkpt lat="44.92278" lon="3.85506">
        <ele>997</ele>
        <time>2011-05-30T11:33:55Z</time>
      </trkpt>
      <trkpt lat="44.92274" lon="3.85504">
        <ele>998</ele>
        <time>2011-05-30T11:34:15Z</time>
      </trkpt>
      <trkpt lat="44.92275" lon="3.85504">
        <ele>1001</ele>
        <time>2011-05-30T11:34:38Z</time>
      </trkpt>
      <trkpt lat="44.92274" lon="3.85502">
        <ele>1001</ele>
        <time>2011-05-30T11:35:01Z</time>
      </trkpt>
      <trkpt lat="44.92275" lon="3.85502">
        <ele>1001</ele>
        <time>2011-05-30T11:35:29Z</time>
      </trkpt>
      <trkpt lat="44.92276" lon="3.85502">
        <ele>1001</ele>
        <time>2011-05-30T11:36:03Z</time>
      </trkpt>
      <trkpt lat="44.92278" lon="3.85502">
        <ele>1001</ele>
        <time>2011-05-30T11:36:13Z</time>
      </trkpt>
      <trkpt lat="44.92277" lon="3.85503">
        <ele>1001</ele>
        <time>2011-05-30T11:36:46Z</time>
      </trkpt>
      <trkpt lat="44.92274" lon="3.85504">
        <ele>1000</ele>
        <time>2011-05-30T11:37:13Z</time>
      </trkpt>
      <trkpt lat="44.92275" lon="3.85506">
        <ele>998</ele>
        <time>2011-05-30T11:37:40Z</time>
      </trkpt>
      <trkpt lat="44.92274" lon="3.85506">
        <ele>998</ele>
        <time>2011-05-30T11:38:24Z</time>
      </trkpt>
      <trkpt lat="44.92273" lon="3.85505">
        <ele>998</ele>
        <time>2011-05-30T11:38:39Z</time>
      </trkpt>
      <trkpt lat="44.92274" lon="3.85506">
        <ele>998</ele>
        <time>2011-05-30T11:38:58Z</time>
      </trkpt>
      <trkpt lat="44.92275" lon="3.85506">
        <ele>998</ele>
        <time>2011-05-30T11:39:36Z</time>
      </trkpt>
      <trkpt lat="44.92278" lon="3.85506">
        <ele>998</ele>
        <time>2011-05-30T11:40:12Z</time>
      </trkpt>
      <trkpt lat="44.92275" lon="3.85507">
        <ele>998</ele>
        <time>2011-05-30T11:40:31Z</time>
      </trkpt>
      <trkpt lat="44.92275" lon="3.85506">
        <ele>998</ele>
        <time>2011-05-30T11:40:48Z</time>
      </trkpt>
      <trkpt lat="44.92276" lon="3.85505">
        <ele>998</ele>
        <time>2011-05-30T11:41:54Z</time>
      </trkpt>
      <trkpt lat="44.92277" lon="3.85506">
        <ele>998</ele>
        <time>2011-05-30T11:42:05Z</time>
      </trkpt>
      <trkpt lat="44.92278" lon="3.85504">
        <ele>997</ele>
        <time>2011-05-30T11:43:50Z</time>
      </trkpt>
      <trkpt lat="44.92279" lon="3.85504">
        <ele>997</ele>
        <time>2011-05-30T11:44:48Z</time>
      </trkpt>
      <trkpt lat="44.9228" lon="3.85503">
        <ele>999</ele>
        <time>2011-05-30T11:45:04Z</time>
      </trkpt>
      <trkpt lat="44.9228" lon="3.85505">
        <ele>999</ele>
        <time>2011-05-30T11:46:49Z</time>
      </trkpt>
      <trkpt lat="44.92279" lon="3.85506">
        <ele>999</ele>
        <time>2011-05-30T11:47:32Z</time>
      </trkpt>
      <trkpt lat="44.92278" lon="3.85505">
        <ele>999</ele>
        <time>2011-05-30T11:47:58Z</time>
      </trkpt>
      <trkpt lat="44.92277" lon="3.85502">
        <ele>999</ele>
        <time>2011-05-30T11:48:22Z</time>
      </trkpt>
      <trkpt lat="44.92276" lon="3.85502">
        <ele>1004</ele>
        <time>2011-05-30T11:48:54Z</time>
      </trkpt>
      <trkpt lat="44.92277" lon="3.85501">
        <ele>1003</ele>
        <time>2011-05-30T11:49:38Z</time>
      </trkpt>
      <trkpt lat="44.92278" lon="3.85505">
        <ele>1000</ele>
        <time>2011-05-30T11:49:49Z</time>
      </trkpt>
      <trkpt lat="44.92276" lon="3.85507">
        <ele>997</ele>
        <time>2011-05-30T11:50:08Z</time>
      </trkpt>
      <trkpt lat="44.92276" lon="3.85507">
        <ele>993</ele>
        <time>2011-05-30T11:50:28Z</time>
      </trkpt>
      <trkpt lat="44.92277" lon="3.85507">
        <ele>998</ele>
        <time>2011-05-30T11:51:28Z</time>
      </trkpt>
      <trkpt lat="44.92276" lon="3.8551">
        <ele>996</ele>
        <time>2011-05-30T11:51:56Z</time>
      </trkpt>
      <trkpt lat="44.92278" lon="3.85508">
        <ele>993</ele>
        <time>2011-05-30T11:52:12Z</time>
      </trkpt>
      <trkpt lat="44.92277" lon="3.85504">
        <ele>993</ele>
        <time>2011-05-30T11:52:22Z</time>
      </trkpt>
      <trkpt lat="44.92278" lon="3.85502">
        <ele>996</ele>
        <time>2011-05-30T11:52:39Z</time>
      </trkpt>
      <trkpt lat="44.92279" lon="3.85504">
        <ele>999</ele>
        <time>2011-05-30T11:53:29Z</time>
      </trkpt>
      <trkpt lat="44.92279" lon="3.85505">
        <ele>997</ele>
        <time>2011-05-30T11:53:46Z</time>
      </trkpt>
      <trkpt lat="44.92279" lon="3.85504">
        <ele>992</ele>
        <time>2011-05-30T11:54:01Z</time>
      </trkpt>
      <trkpt lat="44.92278" lon="3.85504">
        <ele>993</ele>
        <time>2011-05-30T11:54:20Z</time>
      </trkpt>
      <trkpt lat="44.92277" lon="3.85503">
        <ele>993</ele>
        <time>2011-05-30T11:54:40Z</time>
      </trkpt>
      <trkpt lat="44.92276" lon="3.85501">
        <ele>996</ele>
        <time>2011-05-30T11:54:58Z</time>
      </trkpt>
      <trkpt lat="44.92274" lon="3.85502">
        <ele>999</ele>
        <time>2011-05-30T11:55:15Z</time>
      </trkpt>
      <trkpt lat="44.92273" lon="3.85502">
        <ele>1002</ele>
        <time>2011-05-30T11:55:25Z</time>
      </trkpt>
      <trkpt lat="44.92272" lon="3.85502">
        <ele>1005</ele>
        <time>2011-05-30T11:55:47Z</time>
      </trkpt>
      <trkpt lat="44.92272" lon="3.855">
        <ele>1012</ele>
        <time>2011-05-30T11:56:10Z</time>
      </trkpt>
      <trkpt lat="44.92274" lon="3.85503">
        <ele>1011</ele>
        <time>2011-05-30T11:56:35Z</time>
      </trkpt>
      <trkpt lat="44.92276" lon="3.85505">
        <ele>1002</ele>
        <time>2011-05-30T11:56:57Z</time>
      </trkpt>
      <trkpt lat="44.92275" lon="3.85504">
        <ele>998</ele>
        <time>2011-05-30T11:57:12Z</time>
      </trkpt>
      <trkpt lat="44.92274" lon="3.85503">
        <ele>998</ele>
        <time>2011-05-30T11:57:36Z</time>
      </trkpt>
      <trkpt lat="44.92273" lon="3.85501">
        <ele>997</ele>
        <time>2011-05-30T11:57:59Z</time>
      </trkpt>
      <trkpt lat="44.92272" lon="3.85503">
        <ele>994</ele>
        <time>2011-05-30T11:58:32Z</time>
      </trkpt>
      <trkpt lat="44.92271" lon="3.85504">
        <ele>990</ele>
        <time>2011-05-30T11:58:42Z</time>
      </trkpt>
      <trkpt lat="44.92273" lon="3.85504">
        <ele>987</ele>
        <time>2011-05-30T11:59:16Z</time>
      </trkpt>
      <trkpt lat="44.92274" lon="3.85504">
        <ele>992</ele>
        <time>2011-05-30T11:59:39Z</time>
      </trkpt>
      <trkpt lat="44.92275" lon="3.85504">
        <ele>994</ele>
        <time>2011-05-30T12:00:12Z</time>
      </trkpt>
      <trkpt lat="44.92276" lon="3.85505">
        <ele>996</ele>
        <time>2011-05-30T12:01:06Z</time>
      </trkpt>
      <trkpt lat="44.92277" lon="3.85505">
        <ele>998</ele>
        <time>2011-05-30T12:02:18Z</time>
      </trkpt>
      <trkpt lat="44.92279" lon="3.85504">
        <ele>999</ele>
        <time>2011-05-30T12:02:51Z</time>
      </trkpt>
      <trkpt lat="44.92277" lon="3.85506">
        <ele>1000</ele>
        <time>2011-05-30T12:03:09Z</time>
      </trkpt>
      <trkpt lat="44.92278" lon="3.85505">
        <ele>1000</ele>
        <time>2011-05-30T12:03:25Z</time>
      </trkpt>
      <trkpt lat="44.92278" lon="3.85504">
        <ele>1000</ele>
        <time>2011-05-30T12:03:38Z</time>
      </trkpt>
      <trkpt lat="44.9228" lon="3.85504">
        <ele>1000</ele>
        <time>2011-05-30T12:03:50Z</time>
      </trkpt>
      <trkpt lat="44.9228" lon="3.85505">
        <ele>1000</ele>
        <time>2011-05-30T12:04:31Z</time>
      </trkpt>
      <trkpt lat="44.92279" lon="3.85504">
        <ele>997</ele>
        <time>2011-05-30T12:04:58Z</time>
      </trkpt>
      <trkpt lat="44.92278" lon="3.85503">
        <ele>997</ele>
        <time>2011-05-30T12:05:17Z</time>
      </trkpt>
      <trkpt lat="44.92278" lon="3.85503">
        <ele>997</ele>
        <time>2011-05-30T12:05:40Z</time>
      </trkpt>
      <trkpt lat="44.92278" lon="3.85503">
        <ele>997</ele>
        <time>2011-05-30T12:05:57Z</time>
      </trkpt>
      <trkpt lat="44.92278" lon="3.85503">
        <ele>997</ele>
        <time>2011-05-30T12:06:09Z</time>
      </trkpt>
      <trkpt lat="44.92279" lon="3.85502">
        <ele>1000</ele>
        <time>2011-05-30T12:06:41Z</time>
      </trkpt>
      <trkpt lat="44.92281" lon="3.85501">
        <ele>1000</ele>
        <time>2011-05-30T12:06:55Z</time>
      </trkpt>
      <trkpt lat="44.92283" lon="3.85501">
        <ele>1000</ele>
        <time>2011-05-30T12:07:10Z</time>
      </trkpt>
      <trkpt lat="44.92284" lon="3.85502">
        <ele>1000</ele>
        <time>2011-05-30T12:07:27Z</time>
      </trkpt>
      <trkpt lat="44.92281" lon="3.85504">
        <ele>1000</ele>
        <time>2011-05-30T12:07:44Z</time>
      </trkpt>
      <trkpt lat="44.9228" lon="3.85507">
        <ele>1000</ele>
        <time>2011-05-30T12:07:56Z</time>
      </trkpt>
      <trkpt lat="44.92277" lon="3.85506">
        <ele>1001</ele>
        <time>2011-05-30T12:08:07Z</time>
      </trkpt>
      <trkpt lat="44.92272" lon="3.85496">
        <ele>1001</ele>
        <time>2011-05-30T12:08:17Z</time>
      </trkpt>
      <trkpt lat="44.92264" lon="3.85488">
        <ele>1001</ele>
        <time>2011-05-30T12:08:27Z</time>
      </trkpt>
      <trkpt lat="44.92256" lon="3.85478">
        <ele>1001</ele>
        <time>2011-05-30T12:08:37Z</time>
      </trkpt>
      <trkpt lat="44.92252" lon="3.85469">
        <ele>1001</ele>
        <time>2011-05-30T12:08:47Z</time>
      </trkpt>
      <trkpt lat="44.92245" lon="3.85457">
        <ele>1000</ele>
        <time>2011-05-30T12:08:58Z</time>
      </trkpt>
      <trkpt lat="44.92238" lon="3.85452">
        <ele>1000</ele>
        <time>2011-05-30T12:09:08Z</time>
      </trkpt>
      <trkpt lat="44.92228" lon="3.85447">
        <ele>999</ele>
        <time>2011-05-30T12:09:19Z</time>
      </trkpt>
      <trkpt lat="44.92218" lon="3.8544">
        <ele>999</ele>
        <time>2011-05-30T12:09:30Z</time>
      </trkpt>
      <trkpt lat="44.92207" lon="3.85434">
        <ele>999</ele>
        <time>2011-05-30T12:09:41Z</time>
      </trkpt>
      <trkpt lat="44.92197" lon="3.85429">
        <ele>999</ele>
        <time>2011-05-30T12:09:52Z</time>
      </trkpt>
      <trkpt lat="44.92186" lon="3.85425">
        <ele>999</ele>
        <time>2011-05-30T12:10:03Z</time>
      </trkpt>
      <trkpt lat="44.92176" lon="3.85422">
        <ele>999</ele>
        <time>2011-05-30T12:10:13Z</time>
      </trkpt>
      <trkpt lat="44.92165" lon="3.85419">
        <ele>999</ele>
        <time>2011-05-30T12:10:23Z</time>
      </trkpt>
      <trkpt lat="44.92157" lon="3.85417">
        <ele>999</ele>
        <time>2011-05-30T12:10:33Z</time>
      </trkpt>
      <trkpt lat="44.92147" lon="3.85415">
        <ele>999</ele>
        <time>2011-05-30T12:10:43Z</time>
      </trkpt>
      <trkpt lat="44.92136" lon="3.85413">
        <ele>999</ele>
        <time>2011-05-30T12:10:54Z</time>
      </trkpt>
      <trkpt lat="44.92125" lon="3.8541">
        <ele>999</ele>
        <time>2011-05-30T12:11:04Z</time>
      </trkpt>
      <trkpt lat="44.92113" lon="3.85403">
        <ele>999</ele>
        <time>2011-05-30T12:11:16Z</time>
      </trkpt>
      <trkpt lat="44.92102" lon="3.85396">
        <ele>1002</ele>
        <time>2011-05-30T12:11:28Z</time>
      </trkpt>
      <trkpt lat="44.92091" lon="3.85391">
        <ele>1004</ele>
        <time>2011-05-30T12:11:40Z</time>
      </trkpt>
      <trkpt lat="44.92081" lon="3.85387">
        <ele>1006</ele>
        <time>2011-05-30T12:11:52Z</time>
      </trkpt>
      <trkpt lat="44.92069" lon="3.85385">
        <ele>1007</ele>
        <time>2011-05-30T12:12:04Z</time>
      </trkpt>
      <trkpt lat="44.92058" lon="3.85384">
        <ele>1007</ele>
        <time>2011-05-30T12:12:16Z</time>
      </trkpt>
      <trkpt lat="44.92048" lon="3.8538">
        <ele>1007</ele>
        <time>2011-05-30T12:12:28Z</time>
      </trkpt>
      <trkpt lat="44.92041" lon="3.85376">
        <ele>1009</ele>
        <time>2011-05-30T12:12:43Z</time>
      </trkpt>
      <trkpt lat="44.9203" lon="3.85372">
        <ele>1009</ele>
        <time>2011-05-30T12:12:55Z</time>
      </trkpt>
      <trkpt lat="44.92019" lon="3.85372">
        <ele>1009</ele>
        <time>2011-05-30T12:13:06Z</time>
      </trkpt>
      <trkpt lat="44.92009" lon="3.85372">
        <ele>1009</ele>
        <time>2011-05-30T12:13:17Z</time>
      </trkpt>
      <trkpt lat="44.91997" lon="3.85368">
        <ele>1009</ele>
        <time>2011-05-30T12:13:28Z</time>
      </trkpt>
      <trkpt lat="44.91985" lon="3.85361">
        <ele>1009</ele>
        <time>2011-05-30T12:13:40Z</time>
      </trkpt>
      <trkpt lat="44.91973" lon="3.85355">
        <ele>1010</ele>
        <time>2011-05-30T12:13:52Z</time>
      </trkpt>
      <trkpt lat="44.91962" lon="3.85351">
        <ele>1010</ele>
        <time>2011-05-30T12:14:03Z</time>
      </trkpt>
      <trkpt lat="44.91953" lon="3.85359">
        <ele>1010</ele>
        <time>2011-05-30T12:14:15Z</time>
      </trkpt>
      <trkpt lat="44.91941" lon="3.85363">
        <ele>1010</ele>
        <time>2011-05-30T12:14:25Z</time>
      </trkpt>
      <trkpt lat="44.91932" lon="3.85361">
        <ele>1010</ele>
        <time>2011-05-30T12:14:35Z</time>
      </trkpt>
      <trkpt lat="44.9192" lon="3.85355">
        <ele>1011</ele>
        <time>2011-05-30T12:14:46Z</time>
      </trkpt>
      <trkpt lat="44.91911" lon="3.8535">
        <ele>1013</ele>
        <time>2011-05-30T12:14:57Z</time>
      </trkpt>
      <trkpt lat="44.919" lon="3.85347">
        <ele>1014</ele>
        <time>2011-05-30T12:15:07Z</time>
      </trkpt>
      <trkpt lat="44.9189" lon="3.85343">
        <ele>1014</ele>
        <time>2011-05-30T12:15:17Z</time>
      </trkpt>
      <trkpt lat="44.91881" lon="3.8534">
        <ele>1014</ele>
        <time>2011-05-30T12:15:27Z</time>
      </trkpt>
      <trkpt lat="44.91871" lon="3.85342">
        <ele>1014</ele>
        <time>2011-05-30T12:15:38Z</time>
      </trkpt>
      <trkpt lat="44.91861" lon="3.85342">
        <ele>1014</ele>
        <time>2011-05-30T12:15:49Z</time>
      </trkpt>
      <trkpt lat="44.91849" lon="3.85344">
        <ele>1014</ele>
        <time>2011-05-30T12:15:59Z</time>
      </trkpt>
      <trkpt lat="44.91842" lon="3.85344">
        <ele>1014</ele>
        <time>2011-05-30T12:16:09Z</time>
      </trkpt>
      <trkpt lat="44.91839" lon="3.85343">
        <ele>1014</ele>
        <time>2011-05-30T12:16:22Z</time>
      </trkpt>
      <trkpt lat="44.91833" lon="3.85342">
        <ele>1015</ele>
        <time>2011-05-30T12:16:32Z</time>
      </trkpt>
      <trkpt lat="44.91821" lon="3.85343">
        <ele>1015</ele>
        <time>2011-05-30T12:16:43Z</time>
      </trkpt>
      <trkpt lat="44.91811" lon="3.85346">
        <ele>1015</ele>
        <time>2011-05-30T12:16:53Z</time>
      </trkpt>
      <trkpt lat="44.918" lon="3.85346">
        <ele>1015</ele>
        <time>2011-05-30T12:17:04Z</time>
      </trkpt>
      <trkpt lat="44.9179" lon="3.85348">
        <ele>1016</ele>
        <time>2011-05-30T12:17:14Z</time>
      </trkpt>
      <trkpt lat="44.91777" lon="3.85349">
        <ele>1017</ele>
        <time>2011-05-30T12:17:25Z</time>
      </trkpt>
      <trkpt lat="44.91765" lon="3.85348">
        <ele>1017</ele>
        <time>2011-05-30T12:17:36Z</time>
      </trkpt>
      <trkpt lat="44.91755" lon="3.85346">
        <ele>1018</ele>
        <time>2011-05-30T12:17:46Z</time>
      </trkpt>
      <trkpt lat="44.91743" lon="3.85341">
        <ele>1018</ele>
        <time>2011-05-30T12:17:57Z</time>
      </trkpt>
      <trkpt lat="44.91732" lon="3.8534">
        <ele>1019</ele>
        <time>2011-05-30T12:18:07Z</time>
      </trkpt>
      <trkpt lat="44.91719" lon="3.85336">
        <ele>1021</ele>
        <time>2011-05-30T12:18:19Z</time>
      </trkpt>
      <trkpt lat="44.91705" lon="3.85337">
        <ele>1023</ele>
        <time>2011-05-30T12:18:30Z</time>
      </trkpt>
      <trkpt lat="44.91695" lon="3.85335">
        <ele>1023</ele>
        <time>2011-05-30T12:18:40Z</time>
      </trkpt>
      <trkpt lat="44.91688" lon="3.85344">
        <ele>1023</ele>
        <time>2011-05-30T12:18:50Z</time>
      </trkpt>
      <trkpt lat="44.91681" lon="3.85351">
        <ele>1023</ele>
        <time>2011-05-30T12:19:00Z</time>
      </trkpt>
      <trkpt lat="44.91674" lon="3.85363">
        <ele>1023</ele>
        <time>2011-05-30T12:19:10Z</time>
      </trkpt>
      <trkpt lat="44.91664" lon="3.85378">
        <ele>1023</ele>
        <time>2011-05-30T12:19:21Z</time>
      </trkpt>
      <trkpt lat="44.91655" lon="3.85389">
        <ele>1024</ele>
        <time>2011-05-30T12:19:31Z</time>
      </trkpt>
      <trkpt lat="44.91647" lon="3.854">
        <ele>1024</ele>
        <time>2011-05-30T12:19:43Z</time>
      </trkpt>
      <trkpt lat="44.91638" lon="3.8541">
        <ele>1024</ele>
        <time>2011-05-30T12:19:53Z</time>
      </trkpt>
      <trkpt lat="44.91627" lon="3.85421">
        <ele>1025</ele>
        <time>2011-05-30T12:20:04Z</time>
      </trkpt>
      <trkpt lat="44.91617" lon="3.85429">
        <ele>1026</ele>
        <time>2011-05-30T12:20:14Z</time>
      </trkpt>
      <trkpt lat="44.91606" lon="3.85438">
        <ele>1026</ele>
        <time>2011-05-30T12:20:25Z</time>
      </trkpt>
      <trkpt lat="44.91597" lon="3.85447">
        <ele>1028</ele>
        <time>2011-05-30T12:20:35Z</time>
      </trkpt>
      <trkpt lat="44.91586" lon="3.85455">
        <ele>1028</ele>
        <time>2011-05-30T12:20:45Z</time>
      </trkpt>
      <trkpt lat="44.91574" lon="3.85461">
        <ele>1028</ele>
        <time>2011-05-30T12:20:55Z</time>
      </trkpt>
      <trkpt lat="44.91564" lon="3.85466">
        <ele>1028</ele>
        <time>2011-05-30T12:21:05Z</time>
      </trkpt>
      <trkpt lat="44.91552" lon="3.85473">
        <ele>1028</ele>
        <time>2011-05-30T12:21:15Z</time>
      </trkpt>
      <trkpt lat="44.91541" lon="3.85477">
        <ele>1029</ele>
        <time>2011-05-30T12:21:25Z</time>
      </trkpt>
      <trkpt lat="44.9153" lon="3.85481">
        <ele>1029</ele>
        <time>2011-05-30T12:21:35Z</time>
      </trkpt>
      <trkpt lat="44.91518" lon="3.85487">
        <ele>1029</ele>
        <time>2011-05-30T12:21:45Z</time>
      </trkpt>
      <trkpt lat="44.91505" lon="3.85492">
        <ele>1030</ele>
        <time>2011-05-30T12:21:55Z</time>
      </trkpt>
      <trkpt lat="44.91493" lon="3.85497">
        <ele>1031</ele>
        <time>2011-05-30T12:22:06Z</time>
      </trkpt>
      <trkpt lat="44.91482" lon="3.85502">
        <ele>1031</ele>
        <time>2011-05-30T12:22:16Z</time>
      </trkpt>
      <trkpt lat="44.91471" lon="3.85507">
        <ele>1031</ele>
        <time>2011-05-30T12:22:26Z</time>
      </trkpt>
      <trkpt lat="44.91459" lon="3.85512">
        <ele>1033</ele>
        <time>2011-05-30T12:22:37Z</time>
      </trkpt>
      <trkpt lat="44.91447" lon="3.85516">
        <ele>1033</ele>
        <time>2011-05-30T12:22:48Z</time>
      </trkpt>
      <trkpt lat="44.91435" lon="3.85521">
        <ele>1034</ele>
        <time>2011-05-30T12:22:59Z</time>
      </trkpt>
      <trkpt lat="44.91423" lon="3.85525">
        <ele>1035</ele>
        <time>2011-05-30T12:23:09Z</time>
      </trkpt>
      <trkpt lat="44.91412" lon="3.85531">
        <ele>1037</ele>
        <time>2011-05-30T12:23:19Z</time>
      </trkpt>
      <trkpt lat="44.91401" lon="3.85537">
        <ele>1038</ele>
        <time>2011-05-30T12:23:29Z</time>
      </trkpt>
      <trkpt lat="44.9139" lon="3.85543">
        <ele>1040</ele>
        <time>2011-05-30T12:23:39Z</time>
      </trkpt>
      <trkpt lat="44.91378" lon="3.85552">
        <ele>1041</ele>
        <time>2011-05-30T12:23:50Z</time>
      </trkpt>
      <trkpt lat="44.91367" lon="3.8556">
        <ele>1041</ele>
        <time>2011-05-30T12:24:01Z</time>
      </trkpt>
      <trkpt lat="44.91357" lon="3.85568">
        <ele>1042</ele>
        <time>2011-05-30T12:24:11Z</time>
      </trkpt>
      <trkpt lat="44.91348" lon="3.85577">
        <ele>1042</ele>
        <time>2011-05-30T12:24:21Z</time>
      </trkpt>
      <trkpt lat="44.91336" lon="3.85587">
        <ele>1043</ele>
        <time>2011-05-30T12:24:32Z</time>
      </trkpt>
      <trkpt lat="44.91325" lon="3.85597">
        <ele>1043</ele>
        <time>2011-05-30T12:24:43Z</time>
      </trkpt>
      <trkpt lat="44.91315" lon="3.85604">
        <ele>1043</ele>
        <time>2011-05-30T12:24:53Z</time>
      </trkpt>
      <trkpt lat="44.91303" lon="3.8561">
        <ele>1043</ele>
        <time>2011-05-30T12:25:03Z</time>
      </trkpt>
      <trkpt lat="44.91291" lon="3.85612">
        <ele>1044</ele>
        <time>2011-05-30T12:25:13Z</time>
      </trkpt>
      <trkpt lat="44.91279" lon="3.85614">
        <ele>1045</ele>
        <time>2011-05-30T12:25:23Z</time>
      </trkpt>
      <trkpt lat="44.91266" lon="3.85616">
        <ele>1045</ele>
        <time>2011-05-30T12:25:33Z</time>
      </trkpt>
      <trkpt lat="44.91254" lon="3.85619">
        <ele>1045</ele>
        <time>2011-05-30T12:25:43Z</time>
      </trkpt>
      <trkpt lat="44.91242" lon="3.85624">
        <ele>1046</ele>
        <time>2011-05-30T12:25:53Z</time>
      </trkpt>
      <trkpt lat="44.9123" lon="3.85629">
        <ele>1046</ele>
        <time>2011-05-30T12:26:03Z</time>
      </trkpt>
      <trkpt lat="44.91219" lon="3.85635">
        <ele>1046</ele>
        <time>2011-05-30T12:26:13Z</time>
      </trkpt>
      <trkpt lat="44.91207" lon="3.85642">
        <ele>1046</ele>
        <time>2011-05-30T12:26:23Z</time>
      </trkpt>
      <trkpt lat="44.91195" lon="3.85652">
        <ele>1046</ele>
        <time>2011-05-30T12:26:34Z</time>
      </trkpt>
      <trkpt lat="44.91184" lon="3.85661">
        <ele>1046</ele>
        <time>2011-05-30T12:26:44Z</time>
      </trkpt>
      <trkpt lat="44.91174" lon="3.8567">
        <ele>1046</ele>
        <time>2011-05-30T12:26:54Z</time>
      </trkpt>
      <trkpt lat="44.91161" lon="3.85677">
        <ele>1046</ele>
        <time>2011-05-30T12:27:05Z</time>
      </trkpt>
      <trkpt lat="44.91148" lon="3.85682">
        <ele>1046</ele>
        <time>2011-05-30T12:27:16Z</time>
      </trkpt>
      <trkpt lat="44.91135" lon="3.85683">
        <ele>1046</ele>
        <time>2011-05-30T12:27:26Z</time>
      </trkpt>
      <trkpt lat="44.91122" lon="3.85683">
        <ele>1046</ele>
        <time>2011-05-30T12:27:36Z</time>
      </trkpt>
      <trkpt lat="44.91109" lon="3.85683">
        <ele>1046</ele>
        <time>2011-05-30T12:27:46Z</time>
      </trkpt>
      <trkpt lat="44.91096" lon="3.85682">
        <ele>1046</ele>
        <time>2011-05-30T12:27:56Z</time>
      </trkpt>
      <trkpt lat="44.91085" lon="3.8568">
        <ele>1046</ele>
        <time>2011-05-30T12:28:06Z</time>
      </trkpt>
      <trkpt lat="44.91072" lon="3.85679">
        <ele>1046</ele>
        <time>2011-05-30T12:28:16Z</time>
      </trkpt>
      <trkpt lat="44.9106" lon="3.85677">
        <ele>1046</ele>
        <time>2011-05-30T12:28:26Z</time>
      </trkpt>
      <trkpt lat="44.91047" lon="3.85675">
        <ele>1046</ele>
        <time>2011-05-30T12:28:36Z</time>
      </trkpt>
      <trkpt lat="44.91034" lon="3.85673">
        <ele>1046</ele>
        <time>2011-05-30T12:28:46Z</time>
      </trkpt>
      <trkpt lat="44.91021" lon="3.85671">
        <ele>1046</ele>
        <time>2011-05-30T12:28:56Z</time>
      </trkpt>
      <trkpt lat="44.91009" lon="3.85669">
        <ele>1046</ele>
        <time>2011-05-30T12:29:06Z</time>
      </trkpt>
      <trkpt lat="44.90996" lon="3.85666">
        <ele>1046</ele>
        <time>2011-05-30T12:29:16Z</time>
      </trkpt>
      <trkpt lat="44.90983" lon="3.85663">
        <ele>1046</ele>
        <time>2011-05-30T12:29:26Z</time>
      </trkpt>
      <trkpt lat="44.90971" lon="3.85661">
        <ele>1046</ele>
        <time>2011-05-30T12:29:36Z</time>
      </trkpt>
      <trkpt lat="44.90959" lon="3.85658">
        <ele>1046</ele>
        <time>2011-05-30T12:29:46Z</time>
      </trkpt>
      <trkpt lat="44.90945" lon="3.85655">
        <ele>1046</ele>
        <time>2011-05-30T12:29:57Z</time>
      </trkpt>
      <trkpt lat="44.90934" lon="3.85652">
        <ele>1046</ele>
        <time>2011-05-30T12:30:07Z</time>
      </trkpt>
      <trkpt lat="44.90922" lon="3.85648">
        <ele>1046</ele>
        <time>2011-05-30T12:30:17Z</time>
      </trkpt>
      <trkpt lat="44.90911" lon="3.8564">
        <ele>1046</ele>
        <time>2011-05-30T12:30:28Z</time>
      </trkpt>
      <trkpt lat="44.90901" lon="3.85629">
        <ele>1046</ele>
        <time>2011-05-30T12:30:39Z</time>
      </trkpt>
      <trkpt lat="44.90892" lon="3.85618">
        <ele>1046</ele>
        <time>2011-05-30T12:30:49Z</time>
      </trkpt>
      <trkpt lat="44.90883" lon="3.85608">
        <ele>1046</ele>
        <time>2011-05-30T12:30:59Z</time>
      </trkpt>
      <trkpt lat="44.90875" lon="3.85596">
        <ele>1046</ele>
        <time>2011-05-30T12:31:09Z</time>
      </trkpt>
      <trkpt lat="44.90866" lon="3.85582">
        <ele>1046</ele>
        <time>2011-05-30T12:31:20Z</time>
      </trkpt>
      <trkpt lat="44.90861" lon="3.85568">
        <ele>1046</ele>
        <time>2011-05-30T12:31:31Z</time>
      </trkpt>
      <trkpt lat="44.90854" lon="3.85553">
        <ele>1046</ele>
        <time>2011-05-30T12:31:41Z</time>
      </trkpt>
      <trkpt lat="44.90847" lon="3.85538">
        <ele>1046</ele>
        <time>2011-05-30T12:31:51Z</time>
      </trkpt>
      <trkpt lat="44.90839" lon="3.85525">
        <ele>1045</ele>
        <time>2011-05-30T12:32:01Z</time>
      </trkpt>
      <trkpt lat="44.90829" lon="3.85513">
        <ele>1045</ele>
        <time>2011-05-30T12:32:11Z</time>
      </trkpt>
      <trkpt lat="44.90818" lon="3.85503">
        <ele>1045</ele>
        <time>2011-05-30T12:32:21Z</time>
      </trkpt>
      <trkpt lat="44.90805" lon="3.85494">
        <ele>1045</ele>
        <time>2011-05-30T12:32:32Z</time>
      </trkpt>
      <trkpt lat="44.90794" lon="3.85489">
        <ele>1045</ele>
        <time>2011-05-30T12:32:42Z</time>
      </trkpt>
      <trkpt lat="44.90782" lon="3.85487">
        <ele>1046</ele>
        <time>2011-05-30T12:32:52Z</time>
      </trkpt>
      <trkpt lat="44.9077" lon="3.85488">
        <ele>1046</ele>
        <time>2011-05-30T12:33:02Z</time>
      </trkpt>
      <trkpt lat="44.90758" lon="3.8549">
        <ele>1046</ele>
        <time>2011-05-30T12:33:13Z</time>
      </trkpt>
      <trkpt lat="44.90747" lon="3.85494">
        <ele>1046</ele>
        <time>2011-05-30T12:33:23Z</time>
      </trkpt>
      <trkpt lat="44.90736" lon="3.855">
        <ele>1046</ele>
        <time>2011-05-30T12:33:33Z</time>
      </trkpt>
      <trkpt lat="44.90725" lon="3.85507">
        <ele>1046</ele>
        <time>2011-05-30T12:33:43Z</time>
      </trkpt>
      <trkpt lat="44.90714" lon="3.85514">
        <ele>1046</ele>
        <time>2011-05-30T12:33:53Z</time>
      </trkpt>
      <trkpt lat="44.90703" lon="3.85524">
        <ele>1046</ele>
        <time>2011-05-30T12:34:03Z</time>
      </trkpt>
      <trkpt lat="44.90692" lon="3.85533">
        <ele>1046</ele>
        <time>2011-05-30T12:34:13Z</time>
      </trkpt>
      <trkpt lat="44.9068" lon="3.85541">
        <ele>1046</ele>
        <time>2011-05-30T12:34:23Z</time>
      </trkpt>
      <trkpt lat="44.90669" lon="3.85547">
        <ele>1046</ele>
        <time>2011-05-30T12:34:33Z</time>
      </trkpt>
      <trkpt lat="44.90658" lon="3.85555">
        <ele>1046</ele>
        <time>2011-05-30T12:34:43Z</time>
      </trkpt>
      <trkpt lat="44.90649" lon="3.85562">
        <ele>1046</ele>
        <time>2011-05-30T12:34:53Z</time>
      </trkpt>
      <trkpt lat="44.90641" lon="3.85574">
        <ele>1046</ele>
        <time>2011-05-30T12:35:04Z</time>
      </trkpt>
      <trkpt lat="44.90633" lon="3.85588">
        <ele>1046</ele>
        <time>2011-05-30T12:35:15Z</time>
      </trkpt>
      <trkpt lat="44.90625" lon="3.85602">
        <ele>1046</ele>
        <time>2011-05-30T12:35:25Z</time>
      </trkpt>
      <trkpt lat="44.90619" lon="3.85618">
        <ele>1046</ele>
        <time>2011-05-30T12:35:35Z</time>
      </trkpt>
      <trkpt lat="44.90611" lon="3.8563">
        <ele>1046</ele>
        <time>2011-05-30T12:35:45Z</time>
      </trkpt>
      <trkpt lat="44.90604" lon="3.85645">
        <ele>1046</ele>
        <time>2011-05-30T12:35:55Z</time>
      </trkpt>
      <trkpt lat="44.906" lon="3.85661">
        <ele>1046</ele>
        <time>2011-05-30T12:36:05Z</time>
      </trkpt>
      <trkpt lat="44.90599" lon="3.85678">
        <ele>1046</ele>
        <time>2011-05-30T12:36:15Z</time>
      </trkpt>
      <trkpt lat="44.90598" lon="3.85697">
        <ele>1046</ele>
        <time>2011-05-30T12:36:25Z</time>
      </trkpt>
      <trkpt lat="44.90598" lon="3.85714">
        <ele>1047</ele>
        <time>2011-05-30T12:36:36Z</time>
      </trkpt>
      <trkpt lat="44.90601" lon="3.85732">
        <ele>1050</ele>
        <time>2011-05-30T12:36:46Z</time>
      </trkpt>
      <trkpt lat="44.90604" lon="3.85749">
        <ele>1052</ele>
        <time>2011-05-30T12:36:56Z</time>
      </trkpt>
      <trkpt lat="44.90601" lon="3.85761">
        <ele>1054</ele>
        <time>2011-05-30T12:37:06Z</time>
      </trkpt>
      <trkpt lat="44.90587" lon="3.85755">
        <ele>1055</ele>
        <time>2011-05-30T12:37:16Z</time>
      </trkpt>
      <trkpt lat="44.90575" lon="3.85751">
        <ele>1055</ele>
        <time>2011-05-30T12:37:26Z</time>
      </trkpt>
      <trkpt lat="44.90563" lon="3.85746">
        <ele>1055</ele>
        <time>2011-05-30T12:37:36Z</time>
      </trkpt>
      <trkpt lat="44.90553" lon="3.8574">
        <ele>1055</ele>
        <time>2011-05-30T12:37:46Z</time>
      </trkpt>
      <trkpt lat="44.90541" lon="3.85732">
        <ele>1052</ele>
        <time>2011-05-30T12:37:57Z</time>
      </trkpt>
      <trkpt lat="44.90532" lon="3.85727">
        <ele>1049</ele>
        <time>2011-05-30T12:38:07Z</time>
      </trkpt>
      <trkpt lat="44.90519" lon="3.8572">
        <ele>1048</ele>
        <time>2011-05-30T12:38:18Z</time>
      </trkpt>
      <trkpt lat="44.90507" lon="3.85714">
        <ele>1048</ele>
        <time>2011-05-30T12:38:28Z</time>
      </trkpt>
      <trkpt lat="44.90496" lon="3.85707">
        <ele>1048</ele>
        <time>2011-05-30T12:38:38Z</time>
      </trkpt>
      <trkpt lat="44.90484" lon="3.85702">
        <ele>1048</ele>
        <time>2011-05-30T12:38:49Z</time>
      </trkpt>
      <trkpt lat="44.90472" lon="3.85696">
        <ele>1048</ele>
        <time>2011-05-30T12:38:59Z</time>
      </trkpt>
      <trkpt lat="44.9046" lon="3.8569">
        <ele>1048</ele>
        <time>2011-05-30T12:39:10Z</time>
      </trkpt>
      <trkpt lat="44.9045" lon="3.85684">
        <ele>1048</ele>
        <time>2011-05-30T12:39:20Z</time>
      </trkpt>
      <trkpt lat="44.90439" lon="3.85678">
        <ele>1048</ele>
        <time>2011-05-30T12:39:30Z</time>
      </trkpt>
      <trkpt lat="44.90426" lon="3.85671">
        <ele>1048</ele>
        <time>2011-05-30T12:39:41Z</time>
      </trkpt>
      <trkpt lat="44.90416" lon="3.85665">
        <ele>1048</ele>
        <time>2011-05-30T12:39:51Z</time>
      </trkpt>
      <trkpt lat="44.90405" lon="3.85659">
        <ele>1048</ele>
        <time>2011-05-30T12:40:01Z</time>
      </trkpt>
      <trkpt lat="44.90393" lon="3.85652">
        <ele>1051</ele>
        <time>2011-05-30T12:40:12Z</time>
      </trkpt>
      <trkpt lat="44.90385" lon="3.85648">
        <ele>1053</ele>
        <time>2011-05-30T12:40:24Z</time>
      </trkpt>
      <trkpt lat="44.90369" lon="3.85643">
        <ele>1059</ele>
        <time>2011-05-30T12:40:37Z</time>
      </trkpt>
      <trkpt lat="44.90346" lon="3.85632">
        <ele>1059</ele>
        <time>2011-05-30T12:40:59Z</time>
      </trkpt>
      <trkpt lat="44.90339" lon="3.85636">
        <ele>1062</ele>
        <time>2011-05-30T12:41:10Z</time>
      </trkpt>
      <trkpt lat="44.90329" lon="3.85641">
        <ele>1065</ele>
        <time>2011-05-30T12:41:21Z</time>
      </trkpt>
      <trkpt lat="44.90322" lon="3.85643">
        <ele>1065</ele>
        <time>2011-05-30T12:41:34Z</time>
      </trkpt>
      <trkpt lat="44.90307" lon="3.85647">
        <ele>1065</ele>
        <time>2011-05-30T12:41:45Z</time>
      </trkpt>
      <trkpt lat="44.90299" lon="3.85648">
        <ele>1067</ele>
        <time>2011-05-30T12:41:55Z</time>
      </trkpt>
      <trkpt lat="44.9029" lon="3.8565">
        <ele>1068</ele>
        <time>2011-05-30T12:42:07Z</time>
      </trkpt>
      <trkpt lat="44.90282" lon="3.85651">
        <ele>1071</ele>
        <time>2011-05-30T12:42:18Z</time>
      </trkpt>
      <trkpt lat="44.90272" lon="3.85655">
        <ele>1074</ele>
        <time>2011-05-30T12:42:29Z</time>
      </trkpt>
      <trkpt lat="44.90254" lon="3.85655">
        <ele>1075</ele>
        <time>2011-05-30T12:42:49Z</time>
      </trkpt>
      <trkpt lat="44.90251" lon="3.85658">
        <ele>1078</ele>
        <time>2011-05-30T12:42:59Z</time>
      </trkpt>
      <trkpt lat="44.90237" lon="3.8566">
        <ele>1083</ele>
        <time>2011-05-30T12:43:10Z</time>
      </trkpt>
      <trkpt lat="44.90229" lon="3.85661">
        <ele>1083</ele>
        <time>2011-05-30T12:43:21Z</time>
      </trkpt>
      <trkpt lat="44.90218" lon="3.85656">
        <ele>1083</ele>
        <time>2011-05-30T12:43:31Z</time>
      </trkpt>
      <trkpt lat="44.90209" lon="3.85651">
        <ele>1083</ele>
        <time>2011-05-30T12:43:41Z</time>
      </trkpt>
      <trkpt lat="44.90199" lon="3.85647">
        <ele>1083</ele>
        <time>2011-05-30T12:43:51Z</time>
      </trkpt>
      <trkpt lat="44.90181" lon="3.85645">
        <ele>1087</ele>
        <time>2011-05-30T12:44:10Z</time>
      </trkpt>
      <trkpt lat="44.90163" lon="3.85638">
        <ele>1086</ele>
        <time>2011-05-30T12:44:24Z</time>
      </trkpt>
      <trkpt lat="44.90155" lon="3.85631">
        <ele>1087</ele>
        <time>2011-05-30T12:44:34Z</time>
      </trkpt>
      <trkpt lat="44.90141" lon="3.85627">
        <ele>1091</ele>
        <time>2011-05-30T12:44:47Z</time>
      </trkpt>
      <trkpt lat="44.90129" lon="3.85632">
        <ele>1095</ele>
        <time>2011-05-30T12:44:57Z</time>
      </trkpt>
      <trkpt lat="44.90127" lon="3.85634">
        <ele>1095</ele>
        <time>2011-05-30T12:45:08Z</time>
      </trkpt>
      <trkpt lat="44.90119" lon="3.85635">
        <ele>1095</ele>
        <time>2011-05-30T12:45:19Z</time>
      </trkpt>
      <trkpt lat="44.90105" lon="3.85641">
        <ele>1096</ele>
        <time>2011-05-30T12:45:29Z</time>
      </trkpt>
      <trkpt lat="44.90092" lon="3.85646">
        <ele>1102</ele>
        <time>2011-05-30T12:45:39Z</time>
      </trkpt>
      <trkpt lat="44.90081" lon="3.8565">
        <ele>1102</ele>
        <time>2011-05-30T12:45:49Z</time>
      </trkpt>
      <trkpt lat="44.90077" lon="3.85659">
        <ele>1112</ele>
        <time>2011-05-30T12:46:14Z</time>
      </trkpt>
      <trkpt lat="44.90055" lon="3.85664">
        <ele>1116</ele>
        <time>2011-05-30T12:46:24Z</time>
      </trkpt>
      <trkpt lat="44.90039" lon="3.85669">
        <ele>1112</ele>
        <time>2011-05-30T12:46:35Z</time>
      </trkpt>
      <trkpt lat="44.90031" lon="3.85657">
        <ele>1109</ele>
        <time>2011-05-30T12:46:45Z</time>
      </trkpt>
      <trkpt lat="44.90022" lon="3.85648">
        <ele>1107</ele>
        <time>2011-05-30T12:46:55Z</time>
      </trkpt>
      <trkpt lat="44.9002" lon="3.85643">
        <ele>1104</ele>
        <time>2011-05-30T12:47:05Z</time>
      </trkpt>
      <trkpt lat="44.9001" lon="3.85631">
        <ele>1104</ele>
        <time>2011-05-30T12:47:15Z</time>
      </trkpt>
      <trkpt lat="44.90001" lon="3.8562">
        <ele>1104</ele>
        <time>2011-05-30T12:47:25Z</time>
      </trkpt>
      <trkpt lat="44.89995" lon="3.8561">
        <ele>1104</ele>
        <time>2011-05-30T12:47:58Z</time>
      </trkpt>
      <trkpt lat="44.8999" lon="3.85598">
        <ele>1104</ele>
        <time>2011-05-30T12:48:08Z</time>
      </trkpt>
      <trkpt lat="44.89981" lon="3.85584">
        <ele>1104</ele>
        <time>2011-05-30T12:48:19Z</time>
      </trkpt>
      <trkpt lat="44.89973" lon="3.8557">
        <ele>1104</ele>
        <time>2011-05-30T12:48:29Z</time>
      </trkpt>
      <trkpt lat="44.89966" lon="3.85552">
        <ele>1104</ele>
        <time>2011-05-30T12:48:40Z</time>
      </trkpt>
      <trkpt lat="44.89959" lon="3.85536">
        <ele>1104</ele>
        <time>2011-05-30T12:48:50Z</time>
      </trkpt>
      <trkpt lat="44.89951" lon="3.85519">
        <ele>1104</ele>
        <time>2011-05-30T12:49:00Z</time>
      </trkpt>
      <trkpt lat="44.89946" lon="3.85502">
        <ele>1104</ele>
        <time>2011-05-30T12:49:10Z</time>
      </trkpt>
      <trkpt lat="44.89941" lon="3.85485">
        <ele>1104</ele>
        <time>2011-05-30T12:49:20Z</time>
      </trkpt>
      <trkpt lat="44.89936" lon="3.85468">
        <ele>1104</ele>
        <time>2011-05-30T12:49:30Z</time>
      </trkpt>
      <trkpt lat="44.89927" lon="3.85455">
        <ele>1104</ele>
        <time>2011-05-30T12:49:40Z</time>
      </trkpt>
      <trkpt lat="44.89918" lon="3.85442">
        <ele>1104</ele>
        <time>2011-05-30T12:49:51Z</time>
      </trkpt>
      <trkpt lat="44.89909" lon="3.8543">
        <ele>1104</ele>
        <time>2011-05-30T12:50:01Z</time>
      </trkpt>
      <trkpt lat="44.89901" lon="3.85417">
        <ele>1104</ele>
        <time>2011-05-30T12:50:11Z</time>
      </trkpt>
      <trkpt lat="44.89892" lon="3.85404">
        <ele>1104</ele>
        <time>2011-05-30T12:50:21Z</time>
      </trkpt>
      <trkpt lat="44.89883" lon="3.85393">
        <ele>1104</ele>
        <time>2011-05-30T12:50:31Z</time>
      </trkpt>
      <trkpt lat="44.89874" lon="3.85382">
        <ele>1104</ele>
        <time>2011-05-30T12:50:41Z</time>
      </trkpt>
      <trkpt lat="44.89864" lon="3.85371">
        <ele>1104</ele>
        <time>2011-05-30T12:50:51Z</time>
      </trkpt>
      <trkpt lat="44.89854" lon="3.85361">
        <ele>1104</ele>
        <time>2011-05-30T12:51:01Z</time>
      </trkpt>
      <trkpt lat="44.89844" lon="3.85349">
        <ele>1104</ele>
        <time>2011-05-30T12:51:12Z</time>
      </trkpt>
      <trkpt lat="44.89834" lon="3.85341">
        <ele>1104</ele>
        <time>2011-05-30T12:51:22Z</time>
      </trkpt>
      <trkpt lat="44.89824" lon="3.85335">
        <ele>1102</ele>
        <time>2011-05-30T12:51:32Z</time>
      </trkpt>
      <trkpt lat="44.89817" lon="3.85329">
        <ele>1099</ele>
        <time>2011-05-30T12:51:42Z</time>
      </trkpt>
      <trkpt lat="44.89808" lon="3.85316">
        <ele>1094</ele>
        <time>2011-05-30T12:51:52Z</time>
      </trkpt>
      <trkpt lat="44.89803" lon="3.85303">
        <ele>1090</ele>
        <time>2011-05-30T12:52:02Z</time>
      </trkpt>
      <trkpt lat="44.89798" lon="3.8529">
        <ele>1090</ele>
        <time>2011-05-30T12:52:12Z</time>
      </trkpt>
      <trkpt lat="44.89791" lon="3.85277">
        <ele>1088</ele>
        <time>2011-05-30T12:52:23Z</time>
      </trkpt>
      <trkpt lat="44.89785" lon="3.85263">
        <ele>1088</ele>
        <time>2011-05-30T12:52:33Z</time>
      </trkpt>
      <trkpt lat="44.89779" lon="3.85251">
        <ele>1088</ele>
        <time>2011-05-30T12:52:43Z</time>
      </trkpt>
      <trkpt lat="44.89773" lon="3.85238">
        <ele>1087</ele>
        <time>2011-05-30T12:52:53Z</time>
      </trkpt>
      <trkpt lat="44.89766" lon="3.85225">
        <ele>1086</ele>
        <time>2011-05-30T12:53:03Z</time>
      </trkpt>
      <trkpt lat="44.89758" lon="3.85213">
        <ele>1084</ele>
        <time>2011-05-30T12:53:14Z</time>
      </trkpt>
      <trkpt lat="44.89752" lon="3.85199">
        <ele>1082</ele>
        <time>2011-05-30T12:53:25Z</time>
      </trkpt>
      <trkpt lat="44.89745" lon="3.85187">
        <ele>1081</ele>
        <time>2011-05-30T12:53:35Z</time>
      </trkpt>
      <trkpt lat="44.89737" lon="3.85173">
        <ele>1081</ele>
        <time>2011-05-30T12:53:45Z</time>
      </trkpt>
      <trkpt lat="44.89731" lon="3.85159">
        <ele>1081</ele>
        <time>2011-05-30T12:53:55Z</time>
      </trkpt>
      <trkpt lat="44.89725" lon="3.85144">
        <ele>1081</ele>
        <time>2011-05-30T12:54:06Z</time>
      </trkpt>
      <trkpt lat="44.8972" lon="3.85131">
        <ele>1078</ele>
        <time>2011-05-30T12:54:16Z</time>
      </trkpt>
      <trkpt lat="44.89712" lon="3.85116">
        <ele>1078</ele>
        <time>2011-05-30T12:54:26Z</time>
      </trkpt>
      <trkpt lat="44.89704" lon="3.85101">
        <ele>1078</ele>
        <time>2011-05-30T12:54:36Z</time>
      </trkpt>
      <trkpt lat="44.89696" lon="3.85087">
        <ele>1078</ele>
        <time>2011-05-30T12:54:46Z</time>
      </trkpt>
      <trkpt lat="44.89688" lon="3.85073">
        <ele>1078</ele>
        <time>2011-05-30T12:54:56Z</time>
      </trkpt>
      <trkpt lat="44.89682" lon="3.85059">
        <ele>1078</ele>
        <time>2011-05-30T12:55:06Z</time>
      </trkpt>
      <trkpt lat="44.89683" lon="3.85043">
        <ele>1078</ele>
        <time>2011-05-30T12:55:16Z</time>
      </trkpt>
      <trkpt lat="44.89682" lon="3.85029">
        <ele>1078</ele>
        <time>2011-05-30T12:55:27Z</time>
      </trkpt>
      <trkpt lat="44.89667" lon="3.85023">
        <ele>1078</ele>
        <time>2011-05-30T12:55:37Z</time>
      </trkpt>
      <trkpt lat="44.89656" lon="3.85022">
        <ele>1079</ele>
        <time>2011-05-30T12:55:47Z</time>
      </trkpt>
      <trkpt lat="44.89645" lon="3.85019">
        <ele>1079</ele>
        <time>2011-05-30T12:55:57Z</time>
      </trkpt>
      <trkpt lat="44.89637" lon="3.85017">
        <ele>1079</ele>
        <time>2011-05-30T12:56:07Z</time>
      </trkpt>
      <trkpt lat="44.89626" lon="3.85015">
        <ele>1079</ele>
        <time>2011-05-30T12:56:17Z</time>
      </trkpt>
      <trkpt lat="44.89615" lon="3.85012">
        <ele>1079</ele>
        <time>2011-05-30T12:56:27Z</time>
      </trkpt>
      <trkpt lat="44.89605" lon="3.85011">
        <ele>1082</ele>
        <time>2011-05-30T12:56:37Z</time>
      </trkpt>
      <trkpt lat="44.89594" lon="3.85007">
        <ele>1082</ele>
        <time>2011-05-30T12:56:49Z</time>
      </trkpt>
      <trkpt lat="44.89582" lon="3.85003">
        <ele>1082</ele>
        <time>2011-05-30T12:57:00Z</time>
      </trkpt>
      <trkpt lat="44.89571" lon="3.85">
        <ele>1080</ele>
        <time>2011-05-30T12:57:10Z</time>
      </trkpt>
      <trkpt lat="44.89561" lon="3.85">
        <ele>1078</ele>
        <time>2011-05-30T12:57:20Z</time>
      </trkpt>
      <trkpt lat="44.8955" lon="3.84994">
        <ele>1078</ele>
        <time>2011-05-30T12:57:30Z</time>
      </trkpt>
      <trkpt lat="44.89536" lon="3.8499">
        <ele>1081</ele>
        <time>2011-05-30T12:57:40Z</time>
      </trkpt>
      <trkpt lat="44.89522" lon="3.84985">
        <ele>1083</ele>
        <time>2011-05-30T12:57:50Z</time>
      </trkpt>
      <trkpt lat="44.89511" lon="3.84978">
        <ele>1083</ele>
        <time>2011-05-30T12:58:01Z</time>
      </trkpt>
      <trkpt lat="44.89504" lon="3.8498">
        <ele>1080</ele>
        <time>2011-05-30T12:58:11Z</time>
      </trkpt>
      <trkpt lat="44.89489" lon="3.8498">
        <ele>1079</ele>
        <time>2011-05-30T12:58:22Z</time>
      </trkpt>
      <trkpt lat="44.89478" lon="3.84978">
        <ele>1077</ele>
        <time>2011-05-30T12:58:32Z</time>
      </trkpt>
      <trkpt lat="44.89467" lon="3.84977">
        <ele>1076</ele>
        <time>2011-05-30T12:58:42Z</time>
      </trkpt>
      <trkpt lat="44.89456" lon="3.84975">
        <ele>1076</ele>
        <time>2011-05-30T12:58:52Z</time>
      </trkpt>
      <trkpt lat="44.89444" lon="3.8497">
        <ele>1076</ele>
        <time>2011-05-30T12:59:03Z</time>
      </trkpt>
      <trkpt lat="44.89441" lon="3.84973">
        <ele>1076</ele>
        <time>2011-05-30T12:59:13Z</time>
      </trkpt>
      <trkpt lat="44.89439" lon="3.84979">
        <ele>1076</ele>
        <time>2011-05-30T12:59:28Z</time>
      </trkpt>
      <trkpt lat="44.89432" lon="3.84963">
        <ele>1087</ele>
        <time>2011-05-30T12:59:59Z</time>
      </trkpt>
      <trkpt lat="44.89435" lon="3.84967">
        <ele>1085</ele>
        <time>2011-05-30T13:00:11Z</time>
      </trkpt>
      <trkpt lat="44.89432" lon="3.84966">
        <ele>1081</ele>
        <time>2011-05-30T13:00:22Z</time>
      </trkpt>
      <trkpt lat="44.89426" lon="3.84962">
        <ele>1078</ele>
        <time>2011-05-30T13:00:32Z</time>
      </trkpt>
      <trkpt lat="44.89418" lon="3.84957">
        <ele>1076</ele>
        <time>2011-05-30T13:00:42Z</time>
      </trkpt>
      <trkpt lat="44.8941" lon="3.8495">
        <ele>1076</ele>
        <time>2011-05-30T13:00:54Z</time>
      </trkpt>
      <trkpt lat="44.894" lon="3.84952">
        <ele>1076</ele>
        <time>2011-05-30T13:01:06Z</time>
      </trkpt>
      <trkpt lat="44.89384" lon="3.84944">
        <ele>1076</ele>
        <time>2011-05-30T13:01:17Z</time>
      </trkpt>
      <trkpt lat="44.89397" lon="3.8494">
        <ele>1076</ele>
        <time>2011-05-30T13:01:28Z</time>
      </trkpt>
      <trkpt lat="44.8938" lon="3.84941">
        <ele>1074</ele>
        <time>2011-05-30T13:01:39Z</time>
      </trkpt>
      <trkpt lat="44.89369" lon="3.84929">
        <ele>1074</ele>
        <time>2011-05-30T13:01:49Z</time>
      </trkpt>
      <trkpt lat="44.89353" lon="3.84926">
        <ele>1074</ele>
        <time>2011-05-30T13:02:01Z</time>
      </trkpt>
      <trkpt lat="44.8934" lon="3.84927">
        <ele>1074</ele>
        <time>2011-05-30T13:02:12Z</time>
      </trkpt>
      <trkpt lat="44.89326" lon="3.84923">
        <ele>1074</ele>
        <time>2011-05-30T13:02:27Z</time>
      </trkpt>
      <trkpt lat="44.89336" lon="3.84932">
        <ele>1074</ele>
        <time>2011-05-30T13:03:16Z</time>
      </trkpt>
      <trkpt lat="44.89326" lon="3.84911">
        <ele>1079</ele>
        <time>2011-05-30T13:03:40Z</time>
      </trkpt>
      <trkpt lat="44.89342" lon="3.84923">
        <ele>1055</ele>
        <time>2011-05-30T13:05:07Z</time>
      </trkpt>
      <trkpt lat="44.89334" lon="3.84917">
        <ele>1062</ele>
        <time>2011-05-30T13:06:10Z</time>
      </trkpt>
      <trkpt lat="44.89351" lon="3.84932">
        <ele>1066</ele>
        <time>2011-05-30T13:06:41Z</time>
      </trkpt>
      <trkpt lat="44.8934" lon="3.8493">
        <ele>1078</ele>
        <time>2011-05-30T13:06:54Z</time>
      </trkpt>
      <trkpt lat="44.89326" lon="3.84895">
        <ele>1080</ele>
        <time>2011-05-30T13:07:32Z</time>
      </trkpt>
      <trkpt lat="44.89329" lon="3.84892">
        <ele>1081</ele>
        <time>2011-05-30T13:07:44Z</time>
      </trkpt>
      <trkpt lat="44.8933" lon="3.84931">
        <ele>1083</ele>
        <time>2011-05-30T13:09:42Z</time>
      </trkpt>
    </trkseg>
  </trk>
</gpx>